<?xml version="1.0" encoding="utf-8"?>
<gpx version="1.1" creator="Guru Maps/6.2.5" xmlns:xsi="http://www.w3.org/2001/XMLSchema-instance" xmlns="http://www.topografix.com/GPX/1/1" xmlns:gom="https://gurumaps.app/gpx/v3" xsi:schemaLocation="http://www.topografix.com/GPX/1/1 http://www.topografix.com/GPX/1/1/gpx.xsd https://gurumaps.app/gpx/v3 https://gurumaps.app/gpx/v3/schema.xsd">
 <trk>
  <name>2026-08-04-06:45- лиса 3</name>
  <type>TrackStyle_2196F3C8</type>
  <extensions>
   <gom:time>2026-08-13T21:49:46.906Z</gom:time>
   <line xmlns="http://www.topografix.com/GPX/gpx_style/0/2">
    <color>2196F3</color>
   </line>
  </extensions>
  <trkseg>
   <trkpt lat="59.3501891217" lon="34.6935548295"><ele>162.31</ele><time>2026-08-13T21:49:46.000Z</time><hdop>4.687</hdop><vdop>3.375</vdop><extensions><gom:speed>0.0</gom:speed><gom:course>354.808</gom:course></extensions></trkpt>
   <trkpt lat="59.3502760001" lon="34.693600427"><ele>163.715</ele><time>2026-08-13T21:50:25.998Z</time><hdop>4.687</hdop><vdop>3.312</vdop><extensions><gom:speed>0.403</gom:speed><gom:course>47.148</gom:course><gom:rel_alt>0.626</gom:rel_alt></extensions></trkpt>
   <trkpt lat="59.3503430554" lon="34.6937247306"><ele>164.375</ele><time>2026-08-13T21:50:45.998Z</time><hdop>4.687</hdop><vdop>3.312</vdop><extensions><gom:speed>0.546</gom:speed><gom:course>53.487</gom:course><gom:rel_alt>2.166</gom:rel_alt></extensions></trkpt>
   <trkpt lat="59.3503978311" lon="34.6938737609"><ele>162.104</ele><time>2026-08-13T21:51:15.997Z</time><hdop>4.687</hdop><vdop>3.375</vdop><extensions><gom:speed>0.963</gom:speed><gom:course>53.41</gom:course><gom:rel_alt>2.483</gom:rel_alt></extensions></trkpt>
   <trkpt lat="59.3504839971" lon="34.6939766068"><ele>164.728</ele><time>2026-08-13T21:51:49.000Z</time><hdop>4.687</hdop><vdop>3.375</vdop><extensions><gom:speed>0.968</gom:speed><gom:course>25.384</gom:course><gom:rel_alt>2.824</gom:rel_alt></extensions></trkpt>
   <trkpt lat="59.3505738092" lon="34.6939965557"><ele>164.694</ele><time>2026-08-13T21:51:59.000Z</time><hdop>4.687</hdop><vdop>3.375</vdop><extensions><gom:speed>1.098</gom:speed><gom:course>3.389</gom:course><gom:rel_alt>2.977</gom:rel_alt></extensions></trkpt>
   <trkpt lat="59.3506593465" lon="34.6940539718"><ele>164.462</ele><time>2026-08-13T21:52:08.999Z</time><hdop>4.687</hdop><vdop>3.375</vdop><extensions><gom:speed>1.065</gom:speed><gom:course>19.759</gom:course><gom:rel_alt>2.969</gom:rel_alt></extensions></trkpt>
   <trkpt lat="59.3507420339" lon="34.6941351086"><ele>164.119</ele><time>2026-08-13T21:52:18.999Z</time><hdop>4.687</hdop><vdop>3.375</vdop><extensions><gom:speed>1.134</gom:speed><gom:course>23.379</gom:course><gom:rel_alt>2.769</gom:rel_alt></extensions></trkpt>
   <trkpt lat="59.3508345702" lon="34.6941890881"><ele>162.568</ele><time>2026-08-13T21:52:30.999Z</time><hdop>4.687</hdop><vdop>3.375</vdop><extensions><gom:speed>0.928</gom:speed><gom:course>29.317</gom:course><gom:rel_alt>2.436</gom:rel_alt></extensions></trkpt>
   <trkpt lat="59.3509222449" lon="34.6942543831"><ele>162.074</ele><time>2026-08-13T21:52:39.998Z</time><hdop>4.687</hdop><vdop>3.375</vdop><extensions><gom:speed>1.399</gom:speed><gom:course>23.434</gom:course><gom:rel_alt>1.878</gom:rel_alt></extensions></trkpt>
   <trkpt lat="59.3510179662" lon="34.694291934"><ele>162.35</ele><time>2026-08-13T21:52:49.998Z</time><hdop>4.687</hdop><vdop>3.375</vdop><extensions><gom:speed>0.955</gom:speed><gom:course>6.07</gom:course><gom:rel_alt>1.815</gom:rel_alt></extensions></trkpt>
   <trkpt lat="59.3511141066" lon="34.6943170797"><ele>162.554</ele><time>2026-08-13T21:53:04.997Z</time><hdop>4.687</hdop><vdop>3.375</vdop><extensions><gom:speed>0.693</gom:speed><gom:course>0.142</gom:course><gom:rel_alt>2.121</gom:rel_alt></extensions></trkpt>
   <trkpt lat="59.3512016137" lon="34.6942693867"><ele>163.428</ele><time>2026-08-13T21:53:15.997Z</time><hdop>4.687</hdop><vdop>3.375</vdop><extensions><gom:speed>0.785</gom:speed><gom:course>336.829</gom:course><gom:rel_alt>2.108</gom:rel_alt></extensions></trkpt>
   <trkpt lat="59.3512910067" lon="34.694237284"><ele>163.383</ele><time>2026-08-13T21:53:25.997Z</time><hdop>4.687</hdop><vdop>3.375</vdop><extensions><gom:speed>0.792</gom:speed><gom:course>338.493</gom:course><gom:rel_alt>2.235</gom:rel_alt></extensions></trkpt>
   <trkpt lat="59.3513615404" lon="34.69410946"><ele>164.106</ele><time>2026-08-13T21:53:42.996Z</time><hdop>4.687</hdop><vdop>3.375</vdop><extensions><gom:speed>0.696</gom:speed><gom:course>330.523</gom:course><gom:rel_alt>2.198</gom:rel_alt></extensions></trkpt>
   <trkpt lat="59.3514510591" lon="34.694066377"><ele>163.845</ele><time>2026-08-13T21:53:57.000Z</time><hdop>4.687</hdop><vdop>3.375</vdop><extensions><gom:speed>0.711</gom:speed><gom:course>348.788</gom:course><gom:rel_alt>2.732</gom:rel_alt></extensions></trkpt>
   <trkpt lat="59.3515347105" lon="34.6939994056"><ele>164.381</ele><time>2026-08-13T21:54:09.000Z</time><hdop>4.687</hdop><vdop>3.375</vdop><extensions><gom:speed>0.0</gom:speed><gom:course>341.169</gom:course><gom:rel_alt>3.139</gom:rel_alt></extensions></trkpt>
   <trkpt lat="59.3516272887" lon="34.6940070331"><ele>165.151</ele><time>2026-08-13T21:54:21.999Z</time><hdop>4.687</hdop><vdop>3.375</vdop><extensions><gom:speed>0.514</gom:speed><gom:course>350.71</gom:course><gom:rel_alt>3.429</gom:rel_alt></extensions></trkpt>
   <trkpt lat="59.3517191962" lon="34.6940377109"><ele>164.306</ele><time>2026-08-13T21:54:34.999Z</time><hdop>4.687</hdop><vdop>3.375</vdop><extensions><gom:speed>0.911</gom:speed><gom:course>31.207</gom:course><gom:rel_alt>3.405</gom:rel_alt></extensions></trkpt>
   <trkpt lat="59.3518052365" lon="34.6939662133"><ele>164.523</ele><time>2026-08-13T21:54:52.998Z</time><hdop>4.687</hdop><vdop>3.375</vdop><extensions><gom:speed>0.563</gom:speed><gom:course>314.301</gom:course><gom:rel_alt>3.086</gom:rel_alt></extensions></trkpt>
   <trkpt lat="59.3518603894" lon="34.6938092202"><ele>164.324</ele><time>2026-08-13T21:55:19.997Z</time><hdop>4.687</hdop><vdop>3.375</vdop><extensions><gom:speed>0.688</gom:speed><gom:course>299.425</gom:course><gom:rel_alt>3.014</gom:rel_alt></extensions></trkpt>
   <trkpt lat="59.351949489" lon="34.693847777"><ele>163.846</ele><time>2026-08-13T21:55:31.997Z</time><hdop>4.687</hdop><vdop>3.375</vdop><extensions><gom:speed>0.502</gom:speed><gom:course>57.283</gom:course><gom:rel_alt>2.877</gom:rel_alt></extensions></trkpt>
   <trkpt lat="59.352024046" lon="34.6939506229"><ele>164.799</ele><time>2026-08-13T21:55:41.997Z</time><hdop>4.687</hdop><vdop>3.375</vdop><extensions><gom:speed>0.562</gom:speed><gom:course>52.91</gom:course><gom:rel_alt>2.93</gom:rel_alt></extensions></trkpt>
   <trkpt lat="59.3521126008" lon="34.693986246"><ele>163.974</ele><time>2026-08-13T21:55:53.000Z</time><hdop>4.687</hdop><vdop>3.375</vdop><extensions><gom:speed>1.225</gom:speed><gom:course>30.256</gom:course><gom:rel_alt>2.613</gom:rel_alt></extensions></trkpt>
   <trkpt lat="59.3522076097" lon="34.6939791214"><ele>166.416</ele><time>2026-08-13T21:56:05.000Z</time><hdop>4.687</hdop><vdop>3.375</vdop><extensions><gom:speed>0.563</gom:speed><gom:course>341.833</gom:course><gom:rel_alt>2.79</gom:rel_alt></extensions></trkpt>
   <trkpt lat="59.3523051751" lon="34.6939794567"><ele>164.765</ele><time>2026-08-13T21:56:17.000Z</time><hdop>4.687</hdop><vdop>3.375</vdop><extensions><gom:speed>1.054</gom:speed><gom:course>350.853</gom:course></extensions></trkpt>
   <trkpt lat="59.3523971665" lon="34.6939681411"><ele>166.931</ele><time>2026-08-13T21:56:32.999Z</time><hdop>4.687</hdop><vdop>3.375</vdop><extensions><gom:speed>0.764</gom:speed></extensions></trkpt>
   <trkpt lat="59.3524861404" lon="34.6940457575"><ele>165.158</ele><time>2026-08-13T21:56:50.998Z</time><hdop>4.687</hdop><vdop>3.375</vdop><extensions><gom:speed>0.924</gom:speed><gom:course>40.012</gom:course><gom:rel_alt>3.937</gom:rel_alt></extensions></trkpt>
   <trkpt lat="59.352578006" lon="34.6940521278"><ele>164.823</ele><time>2026-08-13T21:57:02.998Z</time><hdop>4.687</hdop><vdop>3.375</vdop><extensions><gom:speed>1.014</gom:speed><gom:course>340.916</gom:course><gom:rel_alt>4.23</gom:rel_alt></extensions></trkpt>
   <trkpt lat="59.3526515153" lon="34.6939314284"><ele>163.485</ele><time>2026-08-13T22:02:57.998Z</time><hdop>4.687</hdop><vdop>3.375</vdop><extensions><gom:speed>0.928</gom:speed><gom:course>284.599</gom:course><gom:rel_alt>4.116</gom:rel_alt></extensions></trkpt>
   <trkpt lat="59.3526930895" lon="34.6937730104"><ele>164.057</ele><time>2026-08-13T22:03:12.997Z</time><hdop>4.687</hdop><vdop>3.375</vdop><extensions><gom:speed>0.582</gom:speed><gom:course>329.556</gom:course><gom:rel_alt>4.203</gom:rel_alt></extensions></trkpt>
   <trkpt lat="59.352781351" lon="34.6938145846"><ele>164.882</ele><time>2026-08-13T22:03:24.997Z</time><hdop>4.687</hdop><vdop>3.375</vdop><extensions><gom:speed>0.586</gom:speed><gom:course>346.113</gom:course><gom:rel_alt>3.96</gom:rel_alt></extensions></trkpt>
   <trkpt lat="59.3528336122" lon="34.6936667279"><ele>165.535</ele><time>2026-08-13T22:03:46.996Z</time><hdop>4.687</hdop><vdop>3.375</vdop><extensions><gom:speed>0.0</gom:speed><gom:course>313.219</gom:course><gom:rel_alt>4.275</gom:rel_alt></extensions></trkpt>
   <trkpt lat="59.3529034334" lon="34.6935399935"><ele>166.034</ele><time>2026-08-13T22:04:00.996Z</time><hdop>4.687</hdop><vdop>3.375</vdop><extensions><gom:speed>0.764</gom:speed><gom:course>323.31</gom:course><gom:rel_alt>3.807</gom:rel_alt></extensions></trkpt>
   <trkpt lat="59.3528347018" lon="34.6934241556"><ele>166.515</ele><time>2026-08-13T22:04:22.999Z</time><hdop>4.687</hdop><vdop>3.375</vdop><extensions><gom:speed>0.0</gom:speed><gom:course>186.814</gom:course><gom:rel_alt>4.285</gom:rel_alt></extensions></trkpt>
   <trkpt lat="59.3527770343" lon="34.6932816632"><ele>167.336</ele><time>2026-08-13T22:04:41.999Z</time><hdop>4.687</hdop><vdop>3.375</vdop><extensions><gom:speed>0.0</gom:speed><gom:course>114.232</gom:course><gom:rel_alt>4.727</gom:rel_alt></extensions></trkpt>
   <trkpt lat="59.3527189477" lon="34.6931264304"><ele>167.679</ele><time>2026-08-13T22:04:56.998Z</time><hdop>4.687</hdop><vdop>3.375</vdop><extensions><gom:speed>0.0</gom:speed><gom:course>114.232</gom:course><gom:rel_alt>5.033</gom:rel_alt></extensions></trkpt>
   <trkpt lat="59.3527024354" lon="34.6929440402"><ele>166.333</ele><time>2026-08-13T22:05:26.997Z</time><hdop>4.687</hdop><vdop>3.375</vdop><extensions><gom:speed>0.0</gom:speed><gom:course>220.509</gom:course></extensions></trkpt>
   <trkpt lat="59.3527237254" lon="34.6927727141"><ele>168.245</ele><time>2026-08-13T22:05:45.997Z</time><hdop>4.687</hdop><vdop>3.375</vdop><extensions><gom:speed>0.0</gom:speed><gom:course>220.509</gom:course><gom:rel_alt>5.385</gom:rel_alt></extensions></trkpt>
   <trkpt lat="59.3527684848" lon="34.6926101051"><ele>166.712</ele><time>2026-08-13T22:08:19.996Z</time><hdop>4.687</hdop><vdop>3.375</vdop><extensions><gom:speed>0.6</gom:speed><gom:course>309.363</gom:course><gom:rel_alt>5.03</gom:rel_alt></extensions></trkpt>
   <trkpt lat="59.3528000007" lon="34.6924391143"><ele>170.651</ele><time>2026-08-13T22:09:15.998Z</time><hdop>4.687</hdop><vdop>3.375</vdop><extensions><gom:speed>0.515</gom:speed><gom:course>317.8</gom:course><gom:rel_alt>4.885</gom:rel_alt></extensions></trkpt>
   <trkpt lat="59.3528340732" lon="34.6922715601"><ele>168.614</ele><time>2026-08-13T22:09:50.997Z</time><hdop>4.687</hdop><vdop>3.375</vdop><extensions><gom:speed>0.733</gom:speed><gom:course>235.116</gom:course><gom:rel_alt>6.077</gom:rel_alt></extensions></trkpt>
   <trkpt lat="59.3528571234" lon="34.692096965"><ele>169.617</ele><time>2026-08-13T22:10:15.996Z</time><hdop>4.687</hdop><vdop>3.375</vdop><extensions><gom:speed>0.0</gom:speed><gom:course>308.654</gom:course><gom:rel_alt>6.344</gom:rel_alt></extensions></trkpt>
   <trkpt lat="59.3528274934" lon="34.6919216156"><ele>169.513</ele><time>2026-08-13T22:10:35.000Z</time><hdop>4.687</hdop><vdop>3.375</vdop><extensions><gom:speed>0.485</gom:speed><gom:course>275.629</gom:course><gom:rel_alt>6.988</gom:rel_alt></extensions></trkpt>
   <trkpt lat="59.3527663055" lon="34.6917798776"><ele>169.091</ele><time>2026-08-13T22:10:50.999Z</time><hdop>4.687</hdop><vdop>3.375</vdop><extensions><gom:speed>0.779</gom:speed><gom:course>219.235</gom:course><gom:rel_alt>7.144</gom:rel_alt></extensions></trkpt>
   <trkpt lat="59.3527097695" lon="34.6916364633"><ele>169.477</ele><time>2026-08-13T22:11:06.999Z</time><hdop>4.687</hdop><vdop>3.375</vdop><extensions><gom:speed>0.0</gom:speed><gom:course>227.491</gom:course><gom:rel_alt>6.766</gom:rel_alt></extensions></trkpt>
   <trkpt lat="59.3527167684" lon="34.6914508041"><ele>172.033</ele><time>2026-08-13T22:11:29.998Z</time><hdop>4.687</hdop><vdop>3.375</vdop><extensions><gom:speed>0.373</gom:speed><gom:course>310.439</gom:course><gom:rel_alt>7.144</gom:rel_alt></extensions></trkpt>
   <trkpt lat="59.3527087637" lon="34.6912722696"><ele>170.265</ele><time>2026-08-13T22:11:45.998Z</time><hdop>4.687</hdop><vdop>3.375</vdop><extensions><gom:speed>0.0</gom:speed><gom:course>294.328</gom:course><gom:rel_alt>7.242</gom:rel_alt></extensions></trkpt>
   <trkpt lat="59.3527470271" lon="34.6911009435"><ele>169.002</ele><time>2026-08-13T22:11:59.997Z</time><hdop>4.687</hdop><vdop>3.375</vdop><extensions><gom:speed>0.652</gom:speed><gom:course>311.247</gom:course><gom:rel_alt>7.57</gom:rel_alt></extensions></trkpt>
   <trkpt lat="59.3528184828" lon="34.6909814175"><ele>169.533</ele><time>2026-08-13T22:12:13.997Z</time><hdop>4.687</hdop><vdop>3.312</vdop><extensions><gom:speed>0.554</gom:speed><gom:course>307.446</gom:course><gom:rel_alt>7.443</gom:rel_alt></extensions></trkpt>
   <trkpt lat="59.3528414911" lon="34.6907971833"><ele>169.723</ele><time>2026-08-13T22:12:25.996Z</time><hdop>4.687</hdop><vdop>3.375</vdop><extensions><gom:speed>0.821</gom:speed><gom:course>306.028</gom:course><gom:rel_alt>6.999</gom:rel_alt></extensions></trkpt>
   <trkpt lat="59.352874893" lon="34.6906287071"><ele>173.354</ele><time>2026-08-13T22:14:12.997Z</time><hdop>4.687</hdop><vdop>3.375</vdop><extensions><gom:speed>0.572</gom:speed><gom:course>296.02</gom:course><gom:rel_alt>6.88</gom:rel_alt></extensions></trkpt>
   <trkpt lat="59.3529238433" lon="34.6904659305"><ele>171.157</ele><time>2026-08-13T22:14:25.997Z</time><hdop>4.687</hdop><vdop>3.375</vdop><extensions><gom:speed>0.548</gom:speed><gom:course>302.046</gom:course><gom:rel_alt>6.328</gom:rel_alt></extensions></trkpt>
   <trkpt lat="59.3529582091" lon="34.6903025672"><ele>169.371</ele><time>2026-08-13T22:14:47.000Z</time><hdop>4.687</hdop><vdop>3.375</vdop><extensions><gom:speed>0.706</gom:speed><gom:course>302.639</gom:course><gom:rel_alt>6.481</gom:rel_alt></extensions></trkpt>
   <trkpt lat="59.3530207381" lon="34.690174827"><ele>169.541</ele><time>2026-08-13T22:15:00.000Z</time><hdop>4.687</hdop><vdop>3.375</vdop><extensions><gom:speed>0.583</gom:speed><gom:course>311.203</gom:course><gom:rel_alt>5.839</gom:rel_alt></extensions></trkpt>
   <trkpt lat="59.3530440817" lon="34.6899993938"><ele>169.118</ele><time>2026-08-13T22:15:14.999Z</time><hdop>4.687</hdop><vdop>3.375</vdop><extensions><gom:speed>0.42</gom:speed><gom:course>275.244</gom:course><gom:rel_alt>5.63</gom:rel_alt></extensions></trkpt>
   <trkpt lat="59.3531082452" lon="34.6898695581"><ele>167.707</ele><time>2026-08-13T22:15:30.999Z</time><hdop>4.687</hdop><vdop>3.312</vdop><extensions><gom:speed>0.0</gom:speed><gom:course>309.967</gom:course><gom:rel_alt>4.904</gom:rel_alt></extensions></trkpt>
   <trkpt lat="59.3531109274" lon="34.6896863297"><ele>166.782</ele><time>2026-08-13T22:15:54.998Z</time><hdop>4.687</hdop><vdop>3.375</vdop><extensions><gom:speed>0.494</gom:speed><gom:course>251.909</gom:course><gom:rel_alt>4.988</gom:rel_alt></extensions></trkpt>
   <trkpt lat="59.353055565" lon="34.6895332761"><ele>169.064</ele><time>2026-08-13T22:16:15.997Z</time><hdop>4.687</hdop><vdop>3.375</vdop><extensions><gom:speed>0.0</gom:speed><gom:course>196.724</gom:course><gom:rel_alt>4.798</gom:rel_alt></extensions></trkpt>
   <trkpt lat="59.3530019208" lon="34.6893911191"><ele>166.125</ele><time>2026-08-13T22:16:31.997Z</time><hdop>4.687</hdop><vdop>3.375</vdop><extensions><gom:speed>0.0</gom:speed><gom:course>248.168</gom:course><gom:rel_alt>4.84</gom:rel_alt></extensions></trkpt>
   <trkpt lat="59.3530282399" lon="34.6892190386"><ele>168.663</ele><time>2026-08-13T22:18:04.998Z</time><hdop>4.687</hdop><vdop>3.375</vdop><extensions><gom:speed>0.0</gom:speed><gom:course>254.815</gom:course><gom:rel_alt>4.793</gom:rel_alt></extensions></trkpt>
   <trkpt lat="59.3529963887" lon="34.6890541665"><ele>165.315</ele><time>2026-08-13T22:18:21.997Z</time><hdop>4.687</hdop><vdop>3.375</vdop><extensions><gom:speed>0.0</gom:speed><gom:course>257.018</gom:course></extensions></trkpt>
   <trkpt lat="59.3530094226" lon="34.6888768055"><ele>164.77</ele><time>2026-08-13T22:18:40.997Z</time><hdop>4.687</hdop><vdop>3.375</vdop><extensions><gom:speed>0.442</gom:speed><gom:course>287.648</gom:course><gom:rel_alt>5.371</gom:rel_alt></extensions></trkpt>
   <trkpt lat="59.3530015855" lon="34.688695924"><ele>165.048</ele><time>2026-08-13T22:19:00.000Z</time><hdop>4.687</hdop><vdop>3.375</vdop><extensions><gom:speed>0.0</gom:speed><gom:course>289.939</gom:course><gom:rel_alt>5.532</gom:rel_alt></extensions></trkpt>
   <trkpt lat="59.3529818042" lon="34.6885193173"><ele>166.908</ele><time>2026-08-13T22:21:41.999Z</time><hdop>4.687</hdop><vdop>3.375</vdop><extensions><gom:speed>0.543</gom:speed><gom:course>289.23</gom:course><gom:rel_alt>5.033</gom:rel_alt></extensions></trkpt>
   <trkpt lat="59.3530600074" lon="34.6884051558"><ele>170.996</ele><time>2026-08-13T22:22:40.996Z</time><hdop>4.687</hdop><vdop>3.312</vdop><extensions><gom:speed>0.0</gom:speed><gom:course>51.647</gom:course></extensions></trkpt>
   <trkpt lat="59.3530944989" lon="34.688239697"><ele>171.171</ele><time>2026-08-13T22:24:12.997Z</time><hdop>4.687</hdop><vdop>3.312</vdop><extensions><gom:speed>0.0</gom:speed><gom:course>297.783</gom:course><gom:rel_alt>5.041</gom:rel_alt></extensions></trkpt>
   <trkpt lat="59.3531548905" lon="34.6881039102"><ele>167.53</ele><time>2026-08-13T22:24:25.997Z</time><hdop>4.687</hdop><vdop>3.375</vdop><extensions><gom:speed>0.598</gom:speed><gom:course>314.9</gom:course><gom:rel_alt>4.909</gom:rel_alt></extensions></trkpt>
   <trkpt lat="59.3532188444" lon="34.6879727334"><ele>165.872</ele><time>2026-08-13T22:24:55.996Z</time><hdop>4.687</hdop><vdop>3.375</vdop><extensions><gom:speed>0.523</gom:speed><gom:course>269.971</gom:course><gom:rel_alt>4.565</gom:rel_alt></extensions></trkpt>
   <trkpt lat="59.353289462" lon="34.6878515311"><ele>164.288</ele><time>2026-08-13T22:25:15.999Z</time><hdop>4.687</hdop><vdop>3.312</vdop><extensions><gom:speed>0.0</gom:speed><gom:course>279.946</gom:course><gom:rel_alt>4.396</gom:rel_alt></extensions></trkpt>
   <trkpt lat="59.3533755441" lon="34.687795037"><ele>167.267</ele><time>2026-08-13T22:25:31.999Z</time><hdop>4.75</hdop><vdop>3.312</vdop><extensions><gom:speed>0.0</gom:speed><gom:course>250.569</gom:course><gom:rel_alt>4.132</gom:rel_alt></extensions></trkpt>
   <trkpt lat="59.3533760889" lon="34.6876118925"><ele>168.756</ele><time>2026-08-13T22:25:49.998Z</time><hdop>4.687</hdop><vdop>3.375</vdop><extensions><gom:speed>0.0</gom:speed><gom:course>331.742</gom:course><gom:rel_alt>4.436</gom:rel_alt></extensions></trkpt>
   <trkpt lat="59.3533929366" lon="34.6874338608"><ele>167.4</ele><time>2026-08-13T22:26:23.997Z</time><hdop>4.687</hdop><vdop>3.375</vdop><extensions><gom:speed>0.659</gom:speed><gom:course>303.26</gom:course><gom:rel_alt>4.692</gom:rel_alt></extensions></trkpt>
   <trkpt lat="59.3534106643" lon="34.6872464415"><ele>166.807</ele><time>2026-08-13T22:26:44.997Z</time><hdop>4.687</hdop><vdop>3.375</vdop><extensions><gom:speed>0.758</gom:speed><gom:course>310.747</gom:course><gom:rel_alt>4.349</gom:rel_alt></extensions></trkpt>
   <trkpt lat="59.3534382407" lon="34.6870589383"><ele>166.973</ele><time>2026-08-13T22:27:09.996Z</time><hdop>4.687</hdop><vdop>3.312</vdop><extensions><gom:speed>0.641</gom:speed><gom:course>279.622</gom:course><gom:rel_alt>4.0</gom:rel_alt></extensions></trkpt>
   <trkpt lat="59.3534548788" lon="34.6868697588"><ele>165.745</ele><time>2026-08-13T22:27:19.999Z</time><hdop>4.687</hdop><vdop>3.375</vdop><extensions><gom:speed>0.872</gom:speed><gom:course>298.667</gom:course><gom:rel_alt>4.119</gom:rel_alt></extensions></trkpt>
   <trkpt lat="59.3534767975" lon="34.6866983488"><ele>165.79</ele><time>2026-08-13T22:27:30.999Z</time><hdop>4.687</hdop><vdop>3.375</vdop><extensions><gom:speed>0.635</gom:speed><gom:course>284.945</gom:course><gom:rel_alt>3.876</gom:rel_alt></extensions></trkpt>
   <trkpt lat="59.3534914239" lon="34.686520401"><ele>166.843</ele><time>2026-08-13T22:27:55.998Z</time><hdop>4.687</hdop><vdop>3.312</vdop><extensions><gom:speed>0.498</gom:speed><gom:rel_alt>3.564</gom:rel_alt></extensions></trkpt>
   <trkpt lat="59.3535327886" lon="34.686350919"><ele>167.879</ele><time>2026-08-13T22:30:42.997Z</time><hdop>4.687</hdop><vdop>3.375</vdop><extensions><gom:speed>0.637</gom:speed><gom:course>322.942</gom:course><gom:rel_alt>3.659</gom:rel_alt></extensions></trkpt>
   <trkpt lat="59.3535305255" lon="34.6861703728"><ele>167.326</ele><time>2026-08-13T22:31:10.996Z</time><hdop>4.687</hdop><vdop>3.375</vdop><extensions><gom:speed>0.0</gom:speed><gom:course>232.298</gom:course><gom:rel_alt>3.77</gom:rel_alt></extensions></trkpt>
   <trkpt lat="59.3535082715" lon="34.685997035"><ele>169.321</ele><time>2026-08-13T22:31:38.999Z</time><hdop>4.687</hdop><vdop>3.375</vdop><extensions><gom:speed>0.679</gom:speed><gom:course>222.262</gom:course><gom:rel_alt>4.074</gom:rel_alt></extensions></trkpt>
   <trkpt lat="59.3534687509" lon="34.6858333364"><ele>165.554</ele><time>2026-08-13T22:31:52.999Z</time><hdop>4.687</hdop><vdop>3.375</vdop><extensions><gom:speed>0.0</gom:speed><gom:course>334.78</gom:course><gom:rel_alt>4.003</gom:rel_alt></extensions></trkpt>
   <trkpt lat="59.3534277634" lon="34.6856730744"><ele>166.575</ele><time>2026-08-13T22:32:24.998Z</time><hdop>4.687</hdop><vdop>3.375</vdop><extensions><gom:speed>0.0</gom:speed><gom:course>352.298</gom:course><gom:rel_alt>3.902</gom:rel_alt></extensions></trkpt>
   <trkpt lat="59.3534032044" lon="34.6855032571"><ele>167.819</ele><time>2026-08-13T22:33:26.996Z</time><hdop>4.687</hdop><vdop>3.375</vdop><extensions><gom:speed>0.0</gom:speed><gom:course>263.972</gom:course></extensions></trkpt>
   <trkpt lat="59.3533778072" lon="34.685322208"><ele>165.816</ele><time>2026-08-13T22:33:39.999Z</time><hdop>4.687</hdop><vdop>3.375</vdop><extensions><gom:speed>0.606</gom:speed><gom:course>274.184</gom:course><gom:rel_alt>3.736</gom:rel_alt></extensions></trkpt>
   <trkpt lat="59.3533718142" lon="34.6851446793"><ele>165.255</ele><time>2026-08-13T22:33:54.999Z</time><hdop>4.687</hdop><vdop>3.375</vdop><extensions><gom:speed>0.0</gom:speed><gom:course>270.064</gom:course><gom:rel_alt>4.145</gom:rel_alt></extensions></trkpt>
   <trkpt lat="59.3533656535" lon="34.6849662285"><ele>166.016</ele><time>2026-08-13T22:34:06.999Z</time><hdop>4.687</hdop><vdop>3.375</vdop><extensions><gom:speed>0.451</gom:speed><gom:course>280.271</gom:course><gom:rel_alt>4.518</gom:rel_alt></extensions></trkpt>
   <trkpt lat="59.3533244564" lon="34.6847945672"><ele>164.791</ele><time>2026-08-13T22:34:23.998Z</time><hdop>4.687</hdop><vdop>3.375</vdop><extensions><gom:speed>0.0</gom:speed><gom:course>213.0</gom:course><gom:rel_alt>4.624</gom:rel_alt></extensions></trkpt>
   <trkpt lat="59.3533365683" lon="34.6846053038"><ele>167.633</ele><time>2026-08-13T22:34:38.998Z</time><hdop>4.687</hdop><vdop>3.375</vdop><extensions><gom:speed>0.454</gom:speed><gom:course>300.491</gom:course><gom:rel_alt>4.629</gom:rel_alt></extensions></trkpt>
   <trkpt lat="59.3533549665" lon="34.6844252605"><ele>166.205</ele><time>2026-08-13T22:34:54.997Z</time><hdop>4.687</hdop><vdop>3.375</vdop><extensions><gom:speed>0.405</gom:speed><gom:course>259.836</gom:course><gom:rel_alt>4.639</gom:rel_alt></extensions></trkpt>
   <trkpt lat="59.3534142685" lon="34.6842854504"><ele>166.316</ele><time>2026-08-13T22:35:08.997Z</time><hdop>4.687</hdop><vdop>3.375</vdop><extensions><gom:speed>0.495</gom:speed><gom:course>323.156</gom:course><gom:rel_alt>4.93</gom:rel_alt></extensions></trkpt>
   <trkpt lat="59.3534933518" lon="34.6841879688"><ele>167.696</ele><time>2026-08-13T22:35:26.996Z</time><hdop>4.687</hdop><vdop>3.375</vdop><extensions><gom:speed>0.509</gom:speed><gom:course>322.036</gom:course><gom:rel_alt>5.197</gom:rel_alt></extensions></trkpt>
   <trkpt lat="59.3535752429" lon="34.6840865478"><ele>168.238</ele><time>2026-08-13T22:35:38.996Z</time><hdop>4.687</hdop><vdop>3.375</vdop><extensions><gom:speed>0.612</gom:speed><gom:course>338.949</gom:course><gom:rel_alt>5.332</gom:rel_alt></extensions></trkpt>
   <trkpt lat="59.3536690364" lon="34.6840865478"><ele>168.683</ele><time>2026-08-13T22:36:32.998Z</time><hdop>4.687</hdop><vdop>3.375</vdop><extensions><gom:speed>0.604</gom:speed><gom:course>16.122</gom:course><gom:rel_alt>5.226</gom:rel_alt></extensions></trkpt>
   <trkpt lat="59.3537569626" lon="34.6840413693"><ele>170.351</ele><time>2026-08-13T22:36:50.998Z</time><hdop>4.687</hdop><vdop>3.312</vdop><extensions><gom:speed>0.0</gom:speed><gom:course>308.33</gom:course><gom:rel_alt>5.083</gom:rel_alt></extensions></trkpt>
   <trkpt lat="59.3538217128" lon="34.6839187421"><ele>171.246</ele><time>2026-08-13T22:37:10.997Z</time><hdop>4.687</hdop><vdop>3.312</vdop><extensions><gom:speed>0.0</gom:speed><gom:course>323.519</gom:course><gom:rel_alt>5.173</gom:rel_alt></extensions></trkpt>
   <trkpt lat="59.3538523906" lon="34.6837269642"><ele>172.331</ele><time>2026-08-13T22:37:47.000Z</time><hdop>4.687</hdop><vdop>3.375</vdop><extensions><gom:speed>0.0</gom:speed><gom:course>267.515</gom:course><gom:rel_alt>4.555</gom:rel_alt></extensions></trkpt>
   <trkpt lat="59.3538178571" lon="34.6835421432"><ele>172.357</ele><time>2026-08-13T22:39:49.996Z</time><hdop>4.687</hdop><vdop>3.375</vdop><extensions><gom:speed>0.89</gom:speed><gom:course>236.061</gom:course><gom:rel_alt>4.621</gom:rel_alt></extensions></trkpt>
   <trkpt lat="59.353781312" lon="34.6833771035"><ele>167.552</ele><time>2026-08-13T22:40:04.000Z</time><hdop>4.687</hdop><vdop>3.312</vdop><extensions><gom:speed>0.0</gom:speed><gom:course>261.791</gom:course><gom:rel_alt>4.225</gom:rel_alt></extensions></trkpt>
   <trkpt lat="59.35378412" lon="34.6831935398"><ele>168.539</ele><time>2026-08-13T22:40:20.999Z</time><hdop>4.687</hdop><vdop>3.312</vdop><extensions><gom:speed>0.0</gom:speed><gom:course>239.247</gom:course><gom:rel_alt>3.728</gom:rel_alt></extensions></trkpt>
   <trkpt lat="59.3537197889" lon="34.6830596809"><ele>168.751</ele><time>2026-08-13T22:40:37.999Z</time><hdop>4.687</hdop><vdop>3.375</vdop><extensions><gom:speed>0.0</gom:speed><gom:course>249.146</gom:course><gom:rel_alt>3.863</gom:rel_alt></extensions></trkpt>
   <trkpt lat="59.353668785" lon="34.682904448"><ele>169.962</ele><time>2026-08-13T22:41:12.998Z</time><hdop>4.687</hdop><vdop>3.312</vdop><extensions><gom:speed>0.476</gom:speed><gom:course>281.276</gom:course><gom:rel_alt>4.457</gom:rel_alt></extensions></trkpt>
   <trkpt lat="59.3537071741" lon="34.6827417553"><ele>170.097</ele><time>2026-08-13T22:41:28.997Z</time><hdop>4.687</hdop><vdop>3.375</vdop><extensions><gom:speed>0.0</gom:speed><gom:course>302.513</gom:course><gom:rel_alt>4.708</gom:rel_alt></extensions></trkpt>
   <trkpt lat="59.3537511791" lon="34.6825645618"><ele>170.431</ele><time>2026-08-13T22:41:40.997Z</time><hdop>4.687</hdop><vdop>3.312</vdop><extensions><gom:speed>0.59</gom:speed><gom:course>295.69</gom:course><gom:rel_alt>4.782</gom:rel_alt></extensions></trkpt>
   <trkpt lat="59.353791035" lon="34.6824039646"><ele>169.814</ele><time>2026-08-13T22:41:53.996Z</time><hdop>4.687</hdop><vdop>3.375</vdop><extensions><gom:speed>0.42</gom:speed><gom:course>325.15</gom:course><gom:rel_alt>4.666</gom:rel_alt></extensions></trkpt>
   <trkpt lat="59.353818402" lon="34.682227274"><ele>168.92</ele><time>2026-08-13T22:42:05.000Z</time><hdop>4.687</hdop><vdop>3.375</vdop><extensions><gom:speed>0.508</gom:speed><gom:course>311.708</gom:course></extensions></trkpt>
   <trkpt lat="59.3538430028" lon="34.6820552774"><ele>168.616</ele><time>2026-08-13T22:42:21.999Z</time><hdop>4.687</hdop><vdop>3.312</vdop><extensions><gom:speed>0.0</gom:speed><gom:course>254.886</gom:course><gom:rel_alt>4.898</gom:rel_alt></extensions></trkpt>
   <trkpt lat="59.3538493731" lon="34.6818728872"><ele>168.492</ele><time>2026-08-13T22:42:35.999Z</time><hdop>4.687</hdop><vdop>3.375</vdop><extensions><gom:speed>0.393</gom:speed><gom:course>318.185</gom:course><gom:rel_alt>5.385</gom:rel_alt></extensions></trkpt>
   <trkpt lat="59.353844805" lon="34.6816963643"><ele>168.089</ele><time>2026-08-13T22:42:49.999Z</time><hdop>4.687</hdop><vdop>3.375</vdop><extensions><gom:speed>0.465</gom:speed><gom:course>274.42</gom:course><gom:rel_alt>5.443</gom:rel_alt></extensions></trkpt>
   <trkpt lat="59.353837387" lon="34.6815073524"><ele>168.092</ele><time>2026-08-13T22:43:06.998Z</time><hdop>4.687</hdop><vdop>3.312</vdop><extensions><gom:speed>0.607</gom:speed><gom:course>264.225</gom:course><gom:rel_alt>5.496</gom:rel_alt></extensions></trkpt>
   <trkpt lat="59.353794765" lon="34.6813374512"><ele>168.277</ele><time>2026-08-13T22:43:20.998Z</time><hdop>4.687</hdop><vdop>3.375</vdop><extensions><gom:speed>1.031</gom:speed><gom:course>238.703</gom:course><gom:rel_alt>5.739</gom:rel_alt></extensions></trkpt>
   <trkpt lat="59.3537361755" lon="34.6812000718"><ele>169.371</ele><time>2026-08-13T22:43:38.997Z</time><hdop>4.687</hdop><vdop>3.375</vdop><extensions><gom:speed>0.495</gom:speed><gom:course>262.368</gom:course><gom:rel_alt>5.691</gom:rel_alt></extensions></trkpt>
   <trkpt lat="59.3537607345" lon="34.6810276561"><ele>167.204</ele><time>2026-08-13T22:43:59.996Z</time><hdop>4.687</hdop><vdop>3.375</vdop><extensions><gom:speed>0.595</gom:speed><gom:course>307.94</gom:course><gom:rel_alt>5.606</gom:rel_alt></extensions></trkpt>
   <trkpt lat="59.3538262809" lon="34.6808837388"><ele>164.704</ele><time>2026-08-13T22:54:06.997Z</time><hdop>4.687</hdop><vdop>3.312</vdop><extensions><gom:speed>0.583</gom:speed><gom:course>306.594</gom:course><gom:rel_alt>4.729</gom:rel_alt></extensions></trkpt>
   <trkpt lat="59.3538264067" lon="34.6807035279"><ele>165.032</ele><time>2026-08-13T22:54:20.996Z</time><hdop>4.687</hdop><vdop>3.312</vdop><extensions><gom:speed>0.383</gom:speed><gom:course>320.668</gom:course><gom:rel_alt>4.476</gom:rel_alt></extensions></trkpt>
   <trkpt lat="59.3538360878" lon="34.6805240713"><ele>168.306</ele><time>2026-08-13T22:54:39.999Z</time><hdop>4.687</hdop><vdop>3.375</vdop><extensions><gom:speed>0.384</gom:speed><gom:course>275.502</gom:course><gom:rel_alt>4.735</gom:rel_alt></extensions></trkpt>
   <trkpt lat="59.353911944" lon="34.6804014441"><ele>169.685</ele><time>2026-08-13T22:54:59.999Z</time><hdop>4.687</hdop><vdop>3.312</vdop><extensions><gom:speed>0.622</gom:speed><gom:course>346.085</gom:course><gom:rel_alt>4.93</gom:rel_alt></extensions></trkpt>
   <trkpt lat="59.3539893928" lon="34.6802777272"><ele>168.462</ele><time>2026-08-13T22:55:13.999Z</time><hdop>4.687</hdop><vdop>3.312</vdop><extensions><gom:speed>0.587</gom:speed><gom:course>341.828</gom:course><gom:rel_alt>4.708</gom:rel_alt></extensions></trkpt>
   <trkpt lat="59.3540002054" lon="34.6800905593"><ele>167.358</ele><time>2026-08-13T22:55:33.998Z</time><hdop>4.687</hdop><vdop>3.375</vdop><extensions><gom:speed>0.0</gom:speed><gom:course>307.649</gom:course><gom:rel_alt>5.229</gom:rel_alt></extensions></trkpt>
   <trkpt lat="59.3540668835" lon="34.6799604722"><ele>167.567</ele><time>2026-08-13T22:55:54.997Z</time><hdop>4.687</hdop><vdop>3.312</vdop><extensions><gom:speed>0.0</gom:speed><gom:course>8.316</gom:course><gom:rel_alt>5.054</gom:rel_alt></extensions></trkpt>
   <trkpt lat="59.3540521732" lon="34.6797776628"><ele>166.275</ele><time>2026-08-13T22:56:13.997Z</time><hdop>4.687</hdop><vdop>3.312</vdop><extensions><gom:speed>0.0</gom:speed><gom:course>48.148</gom:course><gom:rel_alt>5.284</gom:rel_alt></extensions></trkpt>
   <trkpt lat="59.353995302" lon="34.6796397805"><ele>164.684</ele><time>2026-08-13T22:56:27.996Z</time><hdop>4.687</hdop><vdop>3.375</vdop><extensions><gom:speed>0.754</gom:speed><gom:course>288.818</gom:course><gom:rel_alt>5.358</gom:rel_alt></extensions></trkpt>
   <trkpt lat="59.3540098446" lon="34.6794535346"><ele>165.364</ele><time>2026-08-13T22:56:45.999Z</time><hdop>4.687</hdop><vdop>3.312</vdop><extensions><gom:speed>0.507</gom:speed><gom:course>307.605</gom:course><gom:rel_alt>4.573</gom:rel_alt></extensions></trkpt>
   <trkpt lat="59.3540019656" lon="34.6792671211"><ele>166.57</ele><time>2026-08-13T22:57:09.999Z</time><hdop>4.687</hdop><vdop>3.375</vdop><extensions><gom:speed>0.56</gom:speed><gom:course>262.269</gom:course><gom:rel_alt>4.684</gom:rel_alt></extensions></trkpt>
   <trkpt lat="59.3539485729" lon="34.6791126426"><ele>166.379</ele><time>2026-08-13T22:57:26.998Z</time><hdop>4.687</hdop><vdop>3.375</vdop><extensions><gom:speed>0.0</gom:speed><gom:course>243.581</gom:course></extensions></trkpt>
   <trkpt lat="59.3539450525" lon="34.6789245527"><ele>166.65</ele><time>2026-08-13T22:57:41.998Z</time><hdop>4.687</hdop><vdop>3.375</vdop><extensions><gom:speed>0.467</gom:speed><gom:course>307.654</gom:course><gom:rel_alt>4.742</gom:rel_alt></extensions></trkpt>
   <trkpt lat="59.3539943381" lon="34.6787698228"><ele>167.502</ele><time>2026-08-13T22:57:54.998Z</time><hdop>4.687</hdop><vdop>3.375</vdop><extensions><gom:speed>0.0</gom:speed><gom:course>314.027</gom:course><gom:rel_alt>4.853</gom:rel_alt></extensions></trkpt>
   <trkpt lat="59.3540486109" lon="34.6786018495"><ele>167.045</ele><time>2026-08-13T22:58:06.997Z</time><hdop>4.687</hdop><vdop>3.375</vdop><extensions><gom:speed>0.784</gom:speed><gom:course>303.425</gom:course><gom:rel_alt>4.832</gom:rel_alt></extensions></trkpt>
   <trkpt lat="59.3540815937" lon="34.6784356363"><ele>170.847</ele><time>2026-08-13T22:58:30.997Z</time><hdop>4.687</hdop><vdop>3.375</vdop><extensions><gom:speed>0.0</gom:speed><gom:rel_alt>4.729</gom:rel_alt></extensions></trkpt>
   <trkpt lat="59.3540895565" lon="34.6782534976"><ele>169.081</ele><time>2026-08-13T22:58:55.000Z</time><hdop>4.687</hdop><vdop>3.312</vdop><extensions><gom:speed>0.0</gom:speed><gom:course>205.683</gom:course><gom:rel_alt>4.846</gom:rel_alt></extensions></trkpt>
   <trkpt lat="59.3541121877" lon="34.678080076"><ele>168.246</ele><time>2026-08-13T22:59:16.999Z</time><hdop>4.75</hdop><vdop>3.312</vdop><extensions><gom:speed>0.0</gom:speed><gom:course>306.644</gom:course><gom:rel_alt>5.725</gom:rel_alt></extensions></trkpt>
   <trkpt lat="59.354160216" lon="34.6779308781"><ele>163.862</ele><time>2026-08-13T22:59:39.998Z</time><hdop>4.687</hdop><vdop>3.375</vdop><extensions><gom:speed>0.402</gom:speed><gom:course>321.157</gom:course><gom:rel_alt>5.654</gom:rel_alt></extensions></trkpt>
   <trkpt lat="59.3542240023" lon="34.6778022997"><ele>166.479</ele><time>2026-08-13T23:00:05.998Z</time><hdop>4.687</hdop><vdop>3.312</vdop><extensions><gom:speed>0.402</gom:speed><gom:course>277.463</gom:course><gom:rel_alt>5.334</gom:rel_alt></extensions></trkpt>
   <trkpt lat="59.3542422748" lon="34.677618736"><ele>168.652</ele><time>2026-08-13T23:00:23.997Z</time><hdop>4.687</hdop><vdop>3.375</vdop><extensions><gom:speed>0.462</gom:speed><gom:course>282.737</gom:course><gom:rel_alt>5.437</gom:rel_alt></extensions></trkpt>
   <trkpt lat="59.3542508243" lon="34.6774379384"><ele>168.856</ele><time>2026-08-13T23:00:37.997Z</time><hdop>4.687</hdop><vdop>3.375</vdop><extensions><gom:speed>0.383</gom:speed><gom:course>276.848</gom:course><gom:rel_alt>5.297</gom:rel_alt></extensions></trkpt>
   <trkpt lat="59.3542198532" lon="34.6772600744"><ele>166.789</ele><time>2026-08-13T23:00:55.000Z</time><hdop>4.687</hdop><vdop>3.375</vdop><extensions><gom:speed>0.631</gom:speed><gom:course>249.096</gom:course><gom:rel_alt>6.539</gom:rel_alt></extensions></trkpt>
   <trkpt lat="59.3541797039" lon="34.6771002315"><ele>167.094</ele><time>2026-08-13T23:01:08.000Z</time><hdop>4.687</hdop><vdop>3.375</vdop><extensions><gom:speed>0.0</gom:speed><gom:course>247.86</gom:course><gom:rel_alt>7.543</gom:rel_alt></extensions></trkpt>
   <trkpt lat="59.3541325138" lon="34.6769434899"><ele>169.413</ele><time>2026-08-13T23:01:21.999Z</time><hdop>4.687</hdop><vdop>3.312</vdop><extensions><gom:speed>0.0</gom:speed><gom:course>256.979</gom:course><gom:rel_alt>7.926</gom:rel_alt></extensions></trkpt>
   <trkpt lat="59.3541179712" lon="34.6767601777"><ele>169.216</ele><time>2026-08-13T23:01:33.999Z</time><hdop>4.687</hdop><vdop>3.312</vdop><extensions><gom:speed>0.518</gom:speed><gom:course>313.593</gom:course><gom:rel_alt>7.665</gom:rel_alt></extensions></trkpt>
   <trkpt lat="59.3541377944" lon="34.676578961"><ele>166.419</ele><time>2026-08-13T23:01:51.998Z</time><hdop>4.687</hdop><vdop>3.312</vdop><extensions><gom:speed>0.0</gom:speed><gom:course>274.722</gom:course><gom:rel_alt>7.036</gom:rel_alt></extensions></trkpt>
   <trkpt lat="59.3541869962" lon="34.6764272485"><ele>169.095</ele><time>2026-08-13T23:02:16.998Z</time><hdop>4.687</hdop><vdop>3.375</vdop><extensions><gom:speed>0.0</gom:speed><gom:course>221.542</gom:course><gom:rel_alt>6.856</gom:rel_alt></extensions></trkpt>
   <trkpt lat="59.3542281932" lon="34.6762673218"><ele>169.232</ele><time>2026-08-13T23:02:29.997Z</time><hdop>4.687</hdop><vdop>3.375</vdop><extensions><gom:speed>0.556</gom:speed><gom:course>257.204</gom:course><gom:rel_alt>6.692</gom:rel_alt></extensions></trkpt>
   <trkpt lat="59.3542588291" lon="34.6761010248"><ele>168.193</ele><time>2026-08-13T23:02:42.997Z</time><hdop>4.687</hdop><vdop>3.312</vdop><extensions><gom:speed>0.326</gom:speed><gom:course>308.522</gom:course><gom:rel_alt>6.317</gom:rel_alt></extensions></trkpt>
   <trkpt lat="59.3543213161" lon="34.6759741228"><ele>167.583</ele><time>2026-08-13T23:03:06.000Z</time><hdop>4.687</hdop><vdop>3.312</vdop><extensions><gom:speed>0.0</gom:speed><gom:course>306.347</gom:course><gom:rel_alt>5.688</gom:rel_alt></extensions></trkpt>
   <trkpt lat="59.354336194" lon="34.6757921517"><ele>167.603</ele><time>2026-08-13T23:03:25.999Z</time><hdop>4.687</hdop><vdop>3.375</vdop><extensions><gom:speed>0.0</gom:speed><gom:course>259.945</gom:course><gom:rel_alt>4.264</gom:rel_alt></extensions></trkpt>
   <trkpt lat="59.3543148621" lon="34.6756180596"><ele>167.693</ele><time>2026-08-13T23:03:50.999Z</time><hdop>4.687</hdop><vdop>3.375</vdop><extensions><gom:speed>0.0</gom:speed><gom:course>232.309</gom:course><gom:rel_alt>3.662</gom:rel_alt></extensions></trkpt>
   <trkpt lat="59.3542555601" lon="34.675464084"><ele>169.735</ele><time>2026-08-13T23:04:12.998Z</time><hdop>4.687</hdop><vdop>3.375</vdop><extensions><gom:speed>0.621</gom:speed><gom:course>212.248</gom:course><gom:rel_alt>3.638</gom:rel_alt></extensions></trkpt>
   <trkpt lat="59.3542014968" lon="34.6753170654"><ele>166.976</ele><time>2026-08-13T23:04:34.997Z</time><hdop>4.687</hdop><vdop>3.375</vdop><extensions><gom:speed>0.57</gom:speed><gom:course>309.203</gom:course><gom:rel_alt>3.77</gom:rel_alt></extensions></trkpt>
   <trkpt lat="59.354227816" lon="34.6751334179"><ele>166.872</ele><time>2026-08-13T23:04:57.997Z</time><hdop>4.687</hdop><vdop>3.312</vdop><extensions><gom:speed>0.544</gom:speed><gom:course>260.676</gom:course><gom:rel_alt>3.387</gom:rel_alt></extensions></trkpt>
   <trkpt lat="59.3542905546" lon="34.6749957871"><ele>167.768</ele><time>2026-08-13T23:05:36.999Z</time><hdop>4.687</hdop><vdop>3.375</vdop><extensions><gom:speed>0.653</gom:speed><gom:course>308.539</gom:course><gom:rel_alt>3.59</gom:rel_alt></extensions></trkpt>
   <trkpt lat="59.3543592024" lon="34.6748618443"><ele>165.258</ele><time>2026-08-13T23:05:56.999Z</time><hdop>4.687</hdop><vdop>3.375</vdop><extensions><gom:speed>0.512</gom:speed><gom:course>338.62</gom:course><gom:rel_alt>3.45</gom:rel_alt></extensions></trkpt>
   <trkpt lat="59.3543983877" lon="34.674679035"><ele>165.405</ele><time>2026-08-13T23:06:19.998Z</time><hdop>4.687</hdop><vdop>3.375</vdop><extensions><gom:speed>0.696</gom:speed><gom:course>305.199</gom:course><gom:rel_alt>3.736</gom:rel_alt></extensions></trkpt>
   <trkpt lat="59.3543776006" lon="34.6745045237"><ele>166.015</ele><time>2026-08-13T23:16:28.998Z</time><hdop>4.687</hdop><vdop>3.375</vdop><extensions><gom:speed>0.551</gom:speed><gom:course>247.674</gom:course><gom:rel_alt>4.005</gom:rel_alt></extensions></trkpt>
   <trkpt lat="59.3543672071" lon="34.6743290067"><ele>167.573</ele><time>2026-08-13T23:17:18.997Z</time><hdop>4.687</hdop><vdop>3.312</vdop><extensions><gom:speed>0.456</gom:speed><gom:course>302.068</gom:course><gom:rel_alt>4.037</gom:rel_alt></extensions></trkpt>
   <trkpt lat="59.3543773492" lon="34.6741489634"><ele>170.175</ele><time>2026-08-13T23:17:35.996Z</time><hdop>4.687</hdop><vdop>3.375</vdop><extensions><gom:speed>0.634</gom:speed><gom:course>283.264</gom:course><gom:rel_alt>4.394</gom:rel_alt></extensions></trkpt>
   <trkpt lat="59.3543164546" lon="34.6740093209"><ele>168.752</ele><time>2026-08-13T23:17:51.999Z</time><hdop>4.687</hdop><vdop>3.375</vdop><extensions><gom:speed>0.0</gom:speed><gom:course>276.337</gom:course><gom:rel_alt>4.407</gom:rel_alt></extensions></trkpt>
   <trkpt lat="59.3543372418" lon="34.6738325466"><ele>169.67</ele><time>2026-08-13T23:18:03.999Z</time><hdop>4.687</hdop><vdop>3.375</vdop><extensions><gom:speed>0.0</gom:speed><gom:course>288.335</gom:course><gom:rel_alt>4.365</gom:rel_alt></extensions></trkpt>
   <trkpt lat="59.3543546342" lon="34.6736574486"><ele>170.499</ele><time>2026-08-13T23:18:17.999Z</time><hdop>4.687</hdop><vdop>3.375</vdop><extensions><gom:speed>0.587</gom:speed><gom:course>289.702</gom:course><gom:rel_alt>4.283</gom:rel_alt></extensions></trkpt>
   <trkpt lat="59.3543729068" lon="34.6734838594"><ele>171.295</ele><time>2026-08-13T23:19:20.997Z</time><hdop>4.687</hdop><vdop>3.375</vdop><extensions><gom:speed>0.497</gom:speed><gom:course>346.953</gom:course></extensions></trkpt>
   <trkpt lat="59.3544601624" lon="34.6734296285"><ele>170.861</ele><time>2026-08-13T23:19:40.996Z</time><hdop>4.687</hdop><vdop>3.375</vdop><extensions><gom:speed>0.603</gom:speed><gom:course>308.89</gom:course><gom:rel_alt>4.122</gom:rel_alt></extensions></trkpt>
   <trkpt lat="59.3545232362" lon="34.6733013015"><ele>173.997</ele><time>2026-08-13T23:20:21.999Z</time><hdop>4.687</hdop><vdop>3.375</vdop><extensions><gom:speed>0.589</gom:speed><gom:course>270.487</gom:course><gom:rel_alt>4.362</gom:rel_alt></extensions></trkpt>
   <trkpt lat="59.3544864816" lon="34.6731330767"><ele>170.078</ele><time>2026-08-13T23:20:39.998Z</time><hdop>4.687</hdop><vdop>3.375</vdop><extensions><gom:speed>0.902</gom:speed><gom:course>260.434</gom:course><gom:rel_alt>4.137</gom:rel_alt></extensions></trkpt>
   <trkpt lat="59.3544466256" lon="34.6729646843"><ele>168.921</ele><time>2026-08-13T23:20:54.998Z</time><hdop>4.687</hdop><vdop>3.375</vdop><extensions><gom:speed>0.43</gom:speed><gom:course>265.95</gom:course><gom:rel_alt>4.264</gom:rel_alt></extensions></trkpt>
   <trkpt lat="59.3543521616" lon="34.6729452383"><ele>167.221</ele><time>2026-08-13T23:21:36.997Z</time><hdop>4.687</hdop><vdop>3.375</vdop><extensions><gom:speed>0.549</gom:speed><gom:course>206.623</gom:course><gom:rel_alt>4.737</gom:rel_alt></extensions></trkpt>
   <trkpt lat="59.3542605474" lon="34.672916656"><ele>165.556</ele><time>2026-08-13T23:21:52.000Z</time><hdop>4.687</hdop><vdop>3.375</vdop><extensions><gom:speed>0.0</gom:speed><gom:course>224.366</gom:course><gom:rel_alt>4.185</gom:rel_alt></extensions></trkpt>
   <trkpt lat="59.3541757225" lon="34.6728334237"><ele>167.442</ele><time>2026-08-13T23:22:05.000Z</time><hdop>4.687</hdop><vdop>3.375</vdop><extensions><gom:speed>0.602</gom:speed><gom:course>247.382</gom:course><gom:rel_alt>4.291</gom:rel_alt></extensions></trkpt>
   <trkpt lat="59.3541009978" lon="34.6727178373"><ele>169.621</ele><time>2026-08-13T23:22:19.999Z</time><hdop>4.687</hdop><vdop>3.375</vdop><extensions><gom:speed>0.836</gom:speed><gom:course>161.528</gom:course><gom:rel_alt>3.944</gom:rel_alt></extensions></trkpt>
   <trkpt lat="59.3540041449" lon="34.6726672944"><ele>166.938</ele><time>2026-08-13T23:22:40.999Z</time><hdop>4.687</hdop><vdop>3.375</vdop><extensions><gom:speed>0.551</gom:speed><gom:course>217.906</gom:course><gom:rel_alt>3.619</gom:rel_alt></extensions></trkpt>
   <trkpt lat="59.3539340303" lon="34.672777684"><ele>167.874</ele><time>2026-08-13T23:23:34.997Z</time><hdop>4.687</hdop><vdop>3.312</vdop><extensions><gom:speed>0.0</gom:speed><gom:course>138.045</gom:course><gom:rel_alt>2.734</gom:rel_alt></extensions></trkpt>
   <trkpt lat="59.3538889776" lon="34.672937024"><ele>168.431</ele><time>2026-08-13T23:23:57.000Z</time><hdop>4.687</hdop><vdop>3.375</vdop><extensions><gom:speed>0.0</gom:speed><gom:course>182.892</gom:course></extensions></trkpt>
   <trkpt lat="59.3538499179" lon="34.6731019799"><ele>166.939</ele><time>2026-08-13T23:24:11.000Z</time><hdop>4.687</hdop><vdop>3.312</vdop><extensions><gom:speed>0.0</gom:speed><gom:course>150.037</gom:course><gom:rel_alt>3.139</gom:rel_alt></extensions></trkpt>
   <trkpt lat="59.3538134566" lon="34.6732640021"><ele>170.954</ele><time>2026-08-13T23:24:26.999Z</time><hdop>4.687</hdop><vdop>3.375</vdop><extensions><gom:speed>0.0</gom:speed><gom:course>129.03</gom:course><gom:rel_alt>2.23</gom:rel_alt></extensions></trkpt>
   <trkpt lat="59.3537748999" lon="34.6734245155"><ele>169.873</ele><time>2026-08-13T23:25:24.998Z</time><hdop>4.687</hdop><vdop>3.375</vdop><extensions><gom:speed>0.0</gom:speed><gom:course>72.648</gom:course><gom:rel_alt>3.815</gom:rel_alt></extensions></trkpt>
   <trkpt lat="59.353783659" lon="34.6736032177"><ele>167.677</ele><time>2026-08-13T23:25:42.997Z</time><hdop>4.687</hdop><vdop>3.375</vdop><extensions><gom:speed>0.0</gom:speed><gom:course>158.441</gom:course><gom:rel_alt>3.68</gom:rel_alt></extensions></trkpt>
   <trkpt lat="59.3537858802" lon="34.6737877872"><ele>167.509</ele><time>2026-08-13T23:26:03.000Z</time><hdop>4.687</hdop><vdop>3.375</vdop><extensions><gom:speed>0.0</gom:speed><gom:course>76.29</gom:course><gom:rel_alt>3.691</gom:rel_alt></extensions></trkpt>
   <trkpt lat="59.353774397" lon="34.6739640586"><ele>168.405</ele><time>2026-08-13T23:26:39.999Z</time><hdop>4.687</hdop><vdop>3.375</vdop><extensions><gom:speed>0.681</gom:speed><gom:course>105.662</gom:course><gom:rel_alt>2.687</gom:rel_alt></extensions></trkpt>
   <trkpt lat="59.3538070864" lon="34.6741328702"><ele>168.363</ele><time>2026-08-13T23:27:37.997Z</time><hdop>4.687</hdop><vdop>3.375</vdop><extensions><gom:speed>0.0</gom:speed><gom:course>37.694</gom:course><gom:rel_alt>3.886</gom:rel_alt></extensions></trkpt>
   <trkpt lat="59.3538493312" lon="34.6742910367"><ele>167.406</ele><time>2026-08-13T23:27:56.997Z</time><hdop>4.687</hdop><vdop>3.375</vdop><extensions><gom:speed>0.0</gom:speed><gom:course>30.048</gom:course><gom:rel_alt>3.781</gom:rel_alt></extensions></trkpt>
   <trkpt lat="59.3538589285" lon="34.6744811382"><ele>167.508</ele><time>2026-08-13T23:28:18.000Z</time><hdop>4.687</hdop><vdop>3.375</vdop><extensions><gom:speed>0.662</gom:speed><gom:course>119.796</gom:course><gom:rel_alt>3.662</gom:rel_alt></extensions></trkpt>
   <trkpt lat="59.3537934658" lon="34.6746165898"><ele>169.542</ele><time>2026-08-13T23:28:58.999Z</time><hdop>4.687</hdop><vdop>3.375</vdop><extensions><gom:speed>0.0</gom:speed><gom:course>96.186</gom:course><gom:rel_alt>3.693</gom:rel_alt></extensions></trkpt>
   <trkpt lat="59.3537012649" lon="34.6746674679"><ele>171.314</ele><time>2026-08-13T23:29:15.998Z</time><hdop>4.687</hdop><vdop>3.375</vdop><extensions><gom:speed>0.442</gom:speed><gom:course>160.287</gom:course><gom:rel_alt>3.287</gom:rel_alt></extensions></trkpt>
   <trkpt lat="59.3536232713" lon="34.6747736666"><ele>169.692</ele><time>2026-08-13T23:29:39.997Z</time><hdop>4.687</hdop><vdop>3.375</vdop><extensions><gom:speed>0.0</gom:speed><gom:course>176.651</gom:course><gom:rel_alt>3.598</gom:rel_alt></extensions></trkpt>
   <trkpt lat="59.3535785957" lon="34.674933761"><ele>169.4</ele><time>2026-08-13T23:32:01.996Z</time><hdop>4.687</hdop><vdop>3.375</vdop><extensions><gom:speed>0.506</gom:speed><gom:course>126.179</gom:course><gom:rel_alt>4.148</gom:rel_alt></extensions></trkpt>
   <trkpt lat="59.3536376043" lon="34.6750887424"><ele>171.688</ele><time>2026-08-13T23:32:34.999Z</time><hdop>4.687</hdop><vdop>3.375</vdop><extensions><gom:speed>0.0</gom:speed><gom:course>351.155</gom:course><gom:rel_alt>5.03</gom:rel_alt></extensions></trkpt>
   <trkpt lat="59.3536713834" lon="34.6752537821"><ele>169.13</ele><time>2026-08-13T23:32:52.999Z</time><hdop>4.687</hdop><vdop>3.375</vdop><extensions><gom:speed>0.0</gom:speed><gom:course>351.155</gom:course></extensions></trkpt>
   <trkpt lat="59.3537215491" lon="34.6754041534"><ele>170.009</ele><time>2026-08-13T23:33:05.998Z</time><hdop>4.687</hdop><vdop>3.375</vdop><extensions><gom:speed>0.0</gom:speed><gom:course>351.155</gom:course><gom:rel_alt>4.951</gom:rel_alt></extensions></trkpt>
   <trkpt lat="59.3537291347" lon="34.6755954284"><ele>171.964</ele><time>2026-08-13T23:37:54.997Z</time><hdop>4.687</hdop><vdop>3.375</vdop><extensions><gom:speed>0.723</gom:speed><gom:course>90.38</gom:course><gom:rel_alt>5.459</gom:rel_alt></extensions></trkpt>
   <trkpt lat="59.3536793462" lon="34.6757488173"><ele>170.172</ele><time>2026-08-13T23:39:21.999Z</time><hdop>4.687</hdop><vdop>3.375</vdop><extensions><gom:speed>0.466</gom:speed><gom:course>146.125</gom:course><gom:rel_alt>6.563</gom:rel_alt></extensions></trkpt>
   <trkpt lat="59.3536423401" lon="34.6759159524"><ele>175.671</ele><time>2026-08-13T23:39:41.998Z</time><hdop>4.687</hdop><vdop>3.375</vdop><extensions><gom:speed>0.0</gom:speed><gom:course>179.87</gom:course><gom:rel_alt>8.13</gom:rel_alt></extensions></trkpt>
   <trkpt lat="59.3536233551" lon="34.6760985103"><ele>174.418</ele><time>2026-08-13T23:40:05.997Z</time><hdop>4.687</hdop><vdop>3.375</vdop><extensions><gom:speed>0.0</gom:speed><gom:course>190.115</gom:course><gom:rel_alt>9.219</gom:rel_alt></extensions></trkpt>
   <trkpt lat="59.3535891569" lon="34.6762660645"><ele>172.204</ele><time>2026-08-13T23:41:08.999Z</time><hdop>4.687</hdop><vdop>3.375</vdop><extensions><gom:speed>0.478</gom:speed><gom:course>124.207</gom:course><gom:rel_alt>8.814</gom:rel_alt></extensions></trkpt>
   <trkpt lat="59.3535981675" lon="34.6764414139"><ele>174.306</ele><time>2026-08-13T23:41:35.998Z</time><hdop>4.687</hdop><vdop>3.375</vdop><extensions><gom:speed>0.0</gom:speed><gom:course>68.528</gom:course><gom:rel_alt>8.22</gom:rel_alt></extensions></trkpt>
   <trkpt lat="59.3535862652" lon="34.6766258158"><ele>174.076</ele><time>2026-08-13T23:41:47.998Z</time><hdop>4.687</hdop><vdop>3.375</vdop><extensions><gom:speed>0.406</gom:speed><gom:course>96.796</gom:course><gom:rel_alt>8.286</gom:rel_alt></extensions></trkpt>
   <trkpt lat="59.3535544558" lon="34.6768103853"><ele>172.992</ele><time>2026-08-13T23:41:57.998Z</time><hdop>4.687</hdop><vdop>3.375</vdop><extensions><gom:speed>0.665</gom:speed><gom:course>102.91</gom:course><gom:rel_alt>8.516</gom:rel_alt></extensions></trkpt>
   <trkpt lat="59.3535222274" lon="34.6769831363"><ele>172.912</ele><time>2026-08-13T23:42:08.997Z</time><hdop>4.687</hdop><vdop>3.375</vdop><extensions><gom:speed>0.56</gom:speed><gom:course>89.814</gom:course><gom:rel_alt>8.719</gom:rel_alt></extensions></trkpt>
   <trkpt lat="59.3534822038" lon="34.6771461643"><ele>173.03</ele><time>2026-08-13T23:42:18.997Z</time><hdop>4.687</hdop><vdop>3.375</vdop><extensions><gom:speed>0.757</gom:speed><gom:course>92.308</gom:course><gom:rel_alt>8.917</gom:rel_alt></extensions></trkpt>
   <trkpt lat="59.3535112052" lon="34.6773280516"><ele>173.705</ele><time>2026-08-13T23:42:30.997Z</time><hdop>4.687</hdop><vdop>3.375</vdop><extensions><gom:speed>0.57</gom:speed><gom:course>64.133</gom:course><gom:rel_alt>8.669</gom:rel_alt></extensions></trkpt>
   <trkpt lat="59.3535037872" lon="34.6775218412"><ele>173.473</ele><time>2026-08-13T23:42:41.996Z</time><hdop>4.687</hdop><vdop>3.375</vdop><extensions><gom:speed>0.964</gom:speed><gom:course>109.689</gom:course><gom:rel_alt>8.711</gom:rel_alt></extensions></trkpt>
   <trkpt lat="59.3534888255" lon="34.6776971907"><ele>173.602</ele><time>2026-08-13T23:43:00.000Z</time><hdop>4.687</hdop><vdop>3.375</vdop><extensions><gom:speed>0.0</gom:speed><gom:course>111.199</gom:course><gom:rel_alt>8.373</gom:rel_alt></extensions></trkpt>
   <trkpt lat="59.3534790606" lon="34.6778732106"><ele>174.722</ele><time>2026-08-13T23:46:49.997Z</time><hdop>4.687</hdop><vdop>3.375</vdop><extensions><gom:speed>0.0</gom:speed><gom:course>168.84</gom:course><gom:rel_alt>7.892</gom:rel_alt></extensions></trkpt>
   <trkpt lat="59.3535499715" lon="34.6779835165"><ele>172.992</ele><time>2026-08-13T23:47:37.999Z</time><hdop>4.687</hdop><vdop>3.375</vdop><extensions><gom:speed>0.0</gom:speed><gom:course>168.84</gom:course><gom:rel_alt>7.514</gom:rel_alt></extensions></trkpt>
   <trkpt lat="59.3535306093" lon="34.6781570219"><ele>170.89</ele><time>2026-08-13T23:47:58.998Z</time><hdop>4.687</hdop><vdop>3.375</vdop><extensions><gom:speed>0.0</gom:speed><gom:course>143.011</gom:course><gom:rel_alt>6.896</gom:rel_alt></extensions></trkpt>
   <trkpt lat="59.3535420506" lon="34.6783341315"><ele>173.769</ele><time>2026-08-13T23:48:35.997Z</time><hdop>4.687</hdop><vdop>3.375</vdop><extensions><gom:speed>0.541</gom:speed><gom:course>125.894</gom:course><gom:rel_alt>6.854</gom:rel_alt></extensions></trkpt>
   <trkpt lat="59.3534499754" lon="34.6783774659"><ele>172.12</ele><time>2026-08-13T23:48:55.997Z</time><hdop>4.687</hdop><vdop>3.375</vdop><extensions><gom:speed>0.626</gom:speed><gom:course>192.631</gom:course><gom:rel_alt>6.185</gom:rel_alt></extensions></trkpt>
   <trkpt lat="59.3533648153" lon="34.6784363069"><ele>169.473</ele><time>2026-08-13T23:49:12.000Z</time><hdop>4.687</hdop><vdop>3.375</vdop><extensions><gom:speed>0.559</gom:speed><gom:course>157.068</gom:course><gom:rel_alt>6.399</gom:rel_alt></extensions></trkpt>
   <trkpt lat="59.3532776854" lon="34.6783835847"><ele>168.542</ele><time>2026-08-13T23:49:29.000Z</time><hdop>4.687</hdop><vdop>3.375</vdop><extensions><gom:speed>0.0</gom:speed><gom:course>145.538</gom:course><gom:rel_alt>6.698</gom:rel_alt></extensions></trkpt>
   <trkpt lat="59.3531993146" lon="34.6784988359"><ele>170.367</ele><time>2026-08-13T23:49:46.999Z</time><hdop>4.687</hdop><vdop>3.375</vdop><extensions><gom:speed>0.665</gom:speed><gom:course>140.319</gom:course><gom:rel_alt>6.692</gom:rel_alt></extensions></trkpt>
   <trkpt lat="59.3532040085" lon="34.6786792983"><ele>172.439</ele><time>2026-08-13T23:50:01.999Z</time><hdop>4.687</hdop><vdop>3.375</vdop><extensions><gom:speed>0.0</gom:speed><gom:course>98.439</gom:course><gom:rel_alt>6.584</gom:rel_alt></extensions></trkpt>
   <trkpt lat="59.3532507795" lon="34.6788354531"><ele>173.475</ele><time>2026-08-13T23:50:15.998Z</time><hdop>4.687</hdop><vdop>3.375</vdop><extensions><gom:speed>0.624</gom:speed><gom:course>67.88</gom:course><gom:rel_alt>6.497</gom:rel_alt></extensions></trkpt>
   <trkpt lat="59.3532694711" lon="34.6790120598"><ele>171.597</ele><time>2026-08-13T23:50:35.998Z</time><hdop>4.687</hdop><vdop>3.375</vdop><extensions><gom:speed>0.0</gom:speed><gom:course>85.425</gom:course><gom:rel_alt>6.098</gom:rel_alt></extensions></trkpt>
   <trkpt lat="59.3532451636" lon="34.6791869901"><ele>170.561</ele><time>2026-08-13T23:50:55.997Z</time><hdop>4.687</hdop><vdop>3.375</vdop><extensions><gom:speed>0.69</gom:speed><gom:course>63.837</gom:course><gom:rel_alt>5.11</gom:rel_alt></extensions></trkpt>
   <trkpt lat="59.3531983507" lon="34.6793396246"><ele>170.511</ele><time>2026-08-13T23:51:35.999Z</time><hdop>4.687</hdop><vdop>3.375</vdop><extensions><gom:speed>0.0</gom:speed><gom:course>98.46</gom:course><gom:rel_alt>3.897</gom:rel_alt></extensions></trkpt>
   <trkpt lat="59.3531519568" lon="34.6794996351"><ele>169.792</ele><time>2026-08-13T23:52:02.998Z</time><hdop>4.687</hdop><vdop>3.375</vdop><extensions><gom:speed>0.485</gom:speed><gom:course>136.369</gom:course><gom:rel_alt>4.306</gom:rel_alt></extensions></trkpt>
   <trkpt lat="59.3531512025" lon="34.6796894852"><ele>170.142</ele><time>2026-08-13T23:52:17.997Z</time><hdop>4.687</hdop><vdop>3.375</vdop><extensions><gom:speed>0.53</gom:speed><gom:course>96.725</gom:course><gom:rel_alt>4.336</gom:rel_alt></extensions></trkpt>
   <trkpt lat="59.3531963809" lon="34.6798531838"><ele>170.694</ele><time>2026-08-13T23:52:33.997Z</time><hdop>4.687</hdop><vdop>3.375</vdop><extensions><gom:speed>0.703</gom:speed><gom:course>70.934</gom:course><gom:rel_alt>4.343</gom:rel_alt></extensions></trkpt>
   <trkpt lat="59.3532189282" lon="34.6800240908"><ele>171.524</ele><time>2026-08-13T23:52:50.997Z</time><hdop>4.687</hdop><vdop>3.375</vdop><extensions><gom:speed>0.0</gom:speed><gom:course>77.081</gom:course><gom:rel_alt>4.423</gom:rel_alt></extensions></trkpt>
   <trkpt lat="59.3532487678" lon="34.6801983506"><ele>169.398</ele><time>2026-08-13T23:53:34.999Z</time><hdop>4.687</hdop><vdop>3.375</vdop><extensions><gom:speed>0.0</gom:speed><gom:course>49.038</gom:course><gom:rel_alt>4.148</gom:rel_alt></extensions></trkpt>
   <trkpt lat="59.3532673756" lon="34.6803881169"><ele>172.985</ele><time>2026-08-13T23:53:53.998Z</time><hdop>4.687</hdop><vdop>3.375</vdop><extensions><gom:speed>0.659</gom:speed><gom:course>123.702</gom:course><gom:rel_alt>3.81</gom:rel_alt></extensions></trkpt>
   <trkpt lat="59.3532152821" lon="34.6805345487"><ele>170.994</ele><time>2026-08-13T23:54:19.998Z</time><hdop>4.687</hdop><vdop>3.375</vdop><extensions><gom:speed>0.373</gom:speed><gom:course>151.157</gom:course><gom:rel_alt>4.209</gom:rel_alt></extensions></trkpt>
   <trkpt lat="59.353178737" lon="34.6806984987"><ele>169.012</ele><time>2026-08-13T23:54:37.997Z</time><hdop>4.687</hdop><vdop>3.375</vdop><extensions><gom:speed>0.498</gom:speed><gom:course>122.005</gom:course><gom:rel_alt>4.507</gom:rel_alt></extensions></trkpt>
   <trkpt lat="59.3531462991" lon="34.6808653824"><ele>169.73</ele><time>2026-08-13T23:54:54.997Z</time><hdop>4.687</hdop><vdop>3.375</vdop><extensions><gom:speed>0.0</gom:speed><gom:course>85.051</gom:course><gom:rel_alt>4.896</gom:rel_alt></extensions></trkpt>
   <trkpt lat="59.3531193512" lon="34.681039726"><ele>168.779</ele><time>2026-08-13T23:55:13.996Z</time><hdop>4.687</hdop><vdop>3.375</vdop><extensions><gom:speed>0.441</gom:speed><gom:course>123.823</gom:course><gom:rel_alt>5.015</gom:rel_alt></extensions></trkpt>
   <trkpt lat="59.3530843149" lon="34.6812149078"><ele>171.402</ele><time>2026-08-13T23:55:42.999Z</time><hdop>4.687</hdop><vdop>3.375</vdop><extensions><gom:speed>0.432</gom:speed><gom:course>142.005</gom:course><gom:rel_alt>5.073</gom:rel_alt></extensions></trkpt>
   <trkpt lat="59.3530393041" lon="34.6813788578"><ele>170.387</ele><time>2026-08-13T23:56:02.998Z</time><hdop>4.687</hdop><vdop>3.375</vdop><extensions><gom:speed>0.533</gom:speed><gom:course>73.796</gom:course><gom:rel_alt>5.028</gom:rel_alt></extensions></trkpt>
   <trkpt lat="59.3529704048" lon="34.6814961206"><ele>169.036</ele><time>2026-08-13T23:58:19.998Z</time><hdop>4.687</hdop><vdop>3.375</vdop><extensions><gom:speed>0.0</gom:speed><gom:course>169.867</gom:course><gom:rel_alt>5.004</gom:rel_alt></extensions></trkpt>
   <trkpt lat="59.3529591312" lon="34.6816800196"><ele>170.878</ele><time>2026-08-13T23:58:38.998Z</time><hdop>4.687</hdop><vdop>3.375</vdop><extensions><gom:speed>0.378</gom:speed><gom:course>87.166</gom:course><gom:rel_alt>5.038</gom:rel_alt></extensions></trkpt>
   <trkpt lat="59.352987462" lon="34.6818478253"><ele>170.119</ele><time>2026-08-13T23:58:58.997Z</time><hdop>4.687</hdop><vdop>3.375</vdop><extensions><gom:speed>0.0</gom:speed><gom:course>82.107</gom:course><gom:rel_alt>5.052</gom:rel_alt></extensions></trkpt>
   <trkpt lat="59.3529719555" lon="34.6820221689"><ele>170.716</ele><time>2026-08-13T23:59:13.997Z</time><hdop>4.687</hdop><vdop>3.375</vdop><extensions><gom:speed>0.0</gom:speed><gom:course>76.086</gom:course><gom:rel_alt>5.126</gom:rel_alt></extensions></trkpt>
   <trkpt lat="59.3529476899" lon="34.6821935788"><ele>170.549</ele><time>2026-08-13T23:59:37.999Z</time><hdop>4.687</hdop><vdop>3.375</vdop><extensions><gom:speed>0.0</gom:speed><gom:course>97.417</gom:course><gom:rel_alt>4.357</gom:rel_alt></extensions></trkpt>
   <trkpt lat="59.3529471031" lon="34.682375969"><ele>170.366</ele><time>2026-08-14T00:00:03.999Z</time><hdop>4.687</hdop><vdop>3.375</vdop><extensions><gom:speed>0.582</gom:speed><gom:course>100.092</gom:course><gom:rel_alt>4.148</gom:rel_alt></extensions></trkpt>
   <trkpt lat="59.3529549821" lon="34.6825534139"><ele>170.81</ele><time>2026-08-14T00:01:34.996Z</time><hdop>4.687</hdop><vdop>3.375</vdop><extensions><gom:speed>0.0</gom:speed><gom:course>91.083</gom:course><gom:rel_alt>4.735</gom:rel_alt></extensions></trkpt>
   <trkpt lat="59.3529065766" lon="34.6827121671"><ele>170.438</ele><time>2026-08-14T00:02:08.999Z</time><hdop>4.687</hdop><vdop>3.375</vdop><extensions><gom:speed>0.0</gom:speed><gom:course>91.083</gom:course><gom:rel_alt>4.587</gom:rel_alt></extensions></trkpt>
   <trkpt lat="59.3528609372" lon="34.6828645501"><ele>170.73</ele><time>2026-08-14T00:02:30.999Z</time><hdop>4.687</hdop><vdop>3.375</vdop><extensions><gom:speed>0.0</gom:speed><gom:course>148.641</gom:course><gom:rel_alt>4.853</gom:rel_alt></extensions></trkpt>
   <trkpt lat="59.3528731328" lon="34.6830393966"><ele>170.238</ele><time>2026-08-14T00:02:52.998Z</time><hdop>4.687</hdop><vdop>3.375</vdop><extensions><gom:speed>0.0</gom:speed><gom:course>78.493</gom:course><gom:rel_alt>4.275</gom:rel_alt></extensions></trkpt>
   <trkpt lat="59.3528885555" lon="34.6832170092"><ele>170.643</ele><time>2026-08-14T00:03:12.997Z</time><hdop>4.687</hdop><vdop>3.375</vdop><extensions><gom:speed>0.567</gom:speed><gom:course>130.777</gom:course><gom:rel_alt>4.423</gom:rel_alt></extensions></trkpt>
   <trkpt lat="59.3529173474" lon="34.6833918557"><ele>169.003</ele><time>2026-08-14T00:03:47.000Z</time><hdop>4.687</hdop><vdop>3.375</vdop><extensions><gom:speed>0.0</gom:speed><gom:course>89.792</gom:course><gom:rel_alt>4.386</gom:rel_alt></extensions></trkpt>
   <trkpt lat="59.3529284953" lon="34.6835724857"><ele>167.875</ele><time>2026-08-14T00:04:05.000Z</time><hdop>4.687</hdop><vdop>3.375</vdop><extensions><gom:speed>0.464</gom:speed><gom:course>92.297</gom:course><gom:rel_alt>4.534</gom:rel_alt></extensions></trkpt>
   <trkpt lat="59.3528965183" lon="34.6837387826"><ele>168.92</ele><time>2026-08-14T00:04:25.999Z</time><hdop>4.687</hdop><vdop>3.375</vdop><extensions><gom:speed>0.0</gom:speed><gom:course>116.61</gom:course><gom:rel_alt>4.383</gom:rel_alt></extensions></trkpt>
   <trkpt lat="59.3528640804" lon="34.6839112822"><ele>169.455</ele><time>2026-08-14T00:04:50.998Z</time><hdop>4.687</hdop><vdop>3.375</vdop><extensions><gom:speed>0.0</gom:speed><gom:course>146.735</gom:course><gom:rel_alt>4.679</gom:rel_alt></extensions></trkpt>
   <trkpt lat="59.3528864181" lon="34.6840857096"><ele>170.25</ele><time>2026-08-14T00:05:09.998Z</time><hdop>4.687</hdop><vdop>3.375</vdop><extensions><gom:speed>0.45</gom:speed><gom:course>100.57</gom:course><gom:rel_alt>5.007</gom:rel_alt></extensions></trkpt>
   <trkpt lat="59.3529113962" lon="34.6842669264"><ele>172.501</ele><time>2026-08-14T00:05:25.997Z</time><hdop>4.687</hdop><vdop>3.375</vdop><extensions><gom:speed>0.0</gom:speed><gom:course>92.489</gom:course><gom:rel_alt>4.88</gom:rel_alt></extensions></trkpt>
   <trkpt lat="59.3529015894" lon="34.6844501548"><ele>171.798</ele><time>2026-08-14T00:05:43.997Z</time><hdop>4.687</hdop><vdop>3.375</vdop><extensions><gom:speed>0.0</gom:speed><gom:course>84.167</gom:course><gom:rel_alt>4.547</gom:rel_alt></extensions></trkpt>
   <trkpt lat="59.3529247234" lon="34.6846249174"><ele>169.986</ele><time>2026-08-14T00:06:09.000Z</time><hdop>4.687</hdop><vdop>3.375</vdop><extensions><gom:speed>0.411</gom:speed><gom:course>83.804</gom:course><gom:rel_alt>4.008</gom:rel_alt></extensions></trkpt>
   <trkpt lat="59.352921203" lon="34.684801608"><ele>170.833</ele><time>2026-08-14T00:06:34.999Z</time><hdop>4.687</hdop><vdop>3.375</vdop><extensions><gom:speed>0.0</gom:speed><gom:course>120.598</gom:course><gom:rel_alt>3.831</gom:rel_alt></extensions></trkpt>
   <trkpt lat="59.3528846999" lon="34.684962792"><ele>169.313</ele><time>2026-08-14T00:06:55.998Z</time><hdop>4.687</hdop><vdop>3.375</vdop><extensions><gom:speed>0.0</gom:speed><gom:course>255.468</gom:course><gom:rel_alt>3.543</gom:rel_alt></extensions></trkpt>
   <trkpt lat="59.3528681875" lon="34.6851430867"><ele>169.843</ele><time>2026-08-14T00:07:17.998Z</time><hdop>4.687</hdop><vdop>3.375</vdop><extensions><gom:speed>0.0</gom:speed><gom:course>290.537</gom:course><gom:rel_alt>3.464</gom:rel_alt></extensions></trkpt>
   <trkpt lat="59.352812364" lon="34.6852859143"><ele>171.087</ele><time>2026-08-14T00:10:25.999Z</time><hdop>4.687</hdop><vdop>3.375</vdop><extensions><gom:speed>0.0</gom:speed><gom:course>156.639</gom:course><gom:rel_alt>3.514</gom:rel_alt></extensions></trkpt>
   <trkpt lat="59.3527258209" lon="34.6853526343"><ele>168.022</ele><time>2026-08-14T00:10:44.999Z</time><hdop>4.687</hdop><vdop>3.375</vdop><extensions><gom:speed>0.0</gom:speed><gom:course>147.724</gom:course><gom:rel_alt>3.464</gom:rel_alt></extensions></trkpt>
   <trkpt lat="59.3526515572" lon="34.6854785305"><ele>167.973</ele><time>2026-08-14T00:11:00.999Z</time><hdop>4.687</hdop><vdop>3.375</vdop><extensions><gom:speed>0.566</gom:speed><gom:course>154.607</gom:course><gom:rel_alt>3.411</gom:rel_alt></extensions></trkpt>
   <trkpt lat="59.3525939316" lon="34.6856194303"><ele>168.044</ele><time>2026-08-14T00:11:25.998Z</time><hdop>4.687</hdop><vdop>3.375</vdop><extensions><gom:speed>0.397</gom:speed><gom:course>133.672</gom:course><gom:rel_alt>3.506</gom:rel_alt></extensions></trkpt>
   <trkpt lat="59.3525266669" lon="34.6857377827"><ele>168.113</ele><time>2026-08-14T00:11:44.997Z</time><hdop>4.687</hdop><vdop>3.375</vdop><extensions><gom:speed>0.0</gom:speed><gom:course>125.526</gom:course><gom:rel_alt>3.522</gom:rel_alt></extensions></trkpt>
   <trkpt lat="59.3525369766" lon="34.6859137189"><ele>167.844</ele><time>2026-08-14T00:12:01.997Z</time><hdop>4.687</hdop><vdop>3.375</vdop><extensions><gom:speed>0.517</gom:speed><gom:course>86.502</gom:course><gom:rel_alt>3.619</gom:rel_alt></extensions></trkpt>
   <trkpt lat="59.3525614099" lon="34.6860900741"><ele>170.482</ele><time>2026-08-14T00:12:30.000Z</time><hdop>4.687</hdop><vdop>3.375</vdop><extensions><gom:speed>0.284</gom:speed><gom:course>83.414</gom:course><gom:rel_alt>3.849</gom:rel_alt></extensions></trkpt>
   <trkpt lat="59.3525697498" lon="34.6862716261"><ele>169.489</ele><time>2026-08-14T00:12:49.998Z</time><hdop>4.687</hdop><vdop>3.375</vdop><extensions><gom:speed>0.0</gom:speed><gom:course>84.711</gom:course><gom:rel_alt>4.341</gom:rel_alt></extensions></trkpt>
   <trkpt lat="59.3526073846" lon="34.686432894"><ele>168.364</ele><time>2026-08-14T00:13:05.998Z</time><hdop>4.687</hdop><vdop>3.375</vdop><extensions><gom:speed>0.38</gom:speed><gom:course>57.816</gom:course><gom:rel_alt>4.185</gom:rel_alt></extensions></trkpt>
   <trkpt lat="59.3526661417" lon="34.6865727879"><ele>171.272</ele><time>2026-08-14T00:13:21.997Z</time><hdop>4.687</hdop><vdop>3.375</vdop><extensions><gom:speed>0.65</gom:speed><gom:course>85.573</gom:course><gom:rel_alt>4.145</gom:rel_alt></extensions></trkpt>
   <trkpt lat="59.3527053271" lon="34.6867384143"><ele>168.367</ele><time>2026-08-14T00:13:42.997Z</time><hdop>4.687</hdop><vdop>3.375</vdop><extensions><gom:speed>0.0</gom:speed><gom:course>73.823</gom:course><gom:rel_alt>4.428</gom:rel_alt></extensions></trkpt>
   <trkpt lat="59.3526953527" lon="34.6869306952"><ele>168.241</ele><time>2026-08-14T00:14:00.996Z</time><hdop>4.687</hdop><vdop>3.375</vdop><extensions><gom:speed>0.709</gom:speed><gom:course>129.865</gom:course></extensions></trkpt>
   <trkpt lat="59.3526826122" lon="34.6871161867"><ele>168.352</ele><time>2026-08-14T00:14:15.999Z</time><hdop>4.687</hdop><vdop>3.375</vdop><extensions><gom:speed>0.537</gom:speed><gom:course>78.229</gom:course><gom:rel_alt>4.206</gom:rel_alt></extensions></trkpt>
   <trkpt lat="59.3526156827" lon="34.6872414123"><ele>168.907</ele><time>2026-08-14T00:14:33.999Z</time><hdop>4.687</hdop><vdop>3.375</vdop><extensions><gom:speed>0.0</gom:speed><gom:course>161.864</gom:course></extensions></trkpt>
   <trkpt lat="59.3525239008" lon="34.6872720063"><ele>165.883</ele><time>2026-08-14T00:15:05.998Z</time><hdop>4.687</hdop><vdop>3.375</vdop><extensions><gom:speed>0.0</gom:speed><gom:course>161.556</gom:course></extensions></trkpt>
   <trkpt lat="59.3525286785" lon="34.6874507923"><ele>165.64</ele><time>2026-08-14T00:15:28.997Z</time><hdop>4.625</hdop><vdop>3.437</vdop><extensions><gom:speed>0.0</gom:speed><gom:course>176.487</gom:course><gom:rel_alt>3.868</gom:rel_alt></extensions></trkpt>
   <trkpt lat="59.3524905828" lon="34.687616754"><ele>166.274</ele><time>2026-08-14T00:18:33.999Z</time><hdop>4.687</hdop><vdop>3.375</vdop><extensions><gom:speed>0.0</gom:speed><gom:course>100.85</gom:course><gom:rel_alt>4.317</gom:rel_alt></extensions></trkpt>
   <trkpt lat="59.3524772555" lon="34.6878133096"><ele>168.398</ele><time>2026-08-14T00:18:48.999Z</time><hdop>4.687</hdop><vdop>3.375</vdop><extensions><gom:speed>0.82</gom:speed><gom:course>124.575</gom:course><gom:rel_alt>4.684</gom:rel_alt></extensions></trkpt>
   <trkpt lat="59.3524307779" lon="34.6879680395"><ele>168.401</ele><time>2026-08-14T00:19:03.999Z</time><hdop>4.687</hdop><vdop>3.375</vdop><extensions><gom:speed>0.359</gom:speed><gom:course>144.725</gom:course><gom:rel_alt>5.118</gom:rel_alt></extensions></trkpt>
   <trkpt lat="59.3523872339" lon="34.6881233562"><ele>168.82</ele><time>2026-08-14T00:19:31.998Z</time><hdop>4.687</hdop><vdop>3.375</vdop><extensions><gom:speed>0.478</gom:speed><gom:course>136.93</gom:course><gom:rel_alt>5.633</gom:rel_alt></extensions></trkpt>
   <trkpt lat="59.3523902095" lon="34.6883054111"><ele>168.362</ele><time>2026-08-14T00:19:47.997Z</time><hdop>4.687</hdop><vdop>3.375</vdop><extensions><gom:speed>0.0</gom:speed><gom:course>73.137</gom:course><gom:rel_alt>5.107</gom:rel_alt></extensions></trkpt>
   <trkpt lat="59.3523993038" lon="34.6884895615"><ele>168.925</ele><time>2026-08-14T00:20:13.997Z</time><hdop>4.687</hdop><vdop>3.375</vdop><extensions><gom:speed>0.0</gom:speed><gom:course>182.936</gom:course><gom:rel_alt>4.769</gom:rel_alt></extensions></trkpt>
   <trkpt lat="59.3524484637" lon="34.6886382565"><ele>169.965</ele><time>2026-08-14T00:20:32.999Z</time><hdop>4.687</hdop><vdop>3.375</vdop><extensions><gom:speed>0.0</gom:speed><gom:course>70.176</gom:course><gom:rel_alt>4.687</gom:rel_alt></extensions></trkpt>
   <trkpt lat="59.3524373996" lon="34.6888185512"><ele>170.645</ele><time>2026-08-14T00:20:56.999Z</time><hdop>4.687</hdop><vdop>3.375</vdop><extensions><gom:speed>0.0</gom:speed><gom:course>85.919</gom:course><gom:rel_alt>4.584</gom:rel_alt></extensions></trkpt>
   <trkpt lat="59.3524181212" lon="34.6889976725"><ele>171.407</ele><time>2026-08-14T00:21:12.999Z</time><hdop>4.687</hdop><vdop>3.375</vdop><extensions><gom:speed>0.0</gom:speed><gom:course>92.627</gom:course><gom:rel_alt>5.112</gom:rel_alt></extensions></trkpt>
   <trkpt lat="59.3523266747" lon="34.6890530769"><ele>169.577</ele><time>2026-08-14T00:21:27.998Z</time><hdop>4.687</hdop><vdop>3.375</vdop><extensions><gom:speed>0.585</gom:speed><gom:course>152.195</gom:course><gom:rel_alt>5.313</gom:rel_alt></extensions></trkpt>
   <trkpt lat="59.3522912192" lon="34.68921929"><ele>170.872</ele><time>2026-08-14T00:21:42.998Z</time><hdop>4.687</hdop><vdop>3.375</vdop><extensions><gom:speed>0.0</gom:speed><gom:course>104.668</gom:course><gom:rel_alt>5.353</gom:rel_alt></extensions></trkpt>
   <trkpt lat="59.3522845975" lon="34.6894025184"><ele>170.466</ele><time>2026-08-14T00:22:01.997Z</time><hdop>4.687</hdop><vdop>3.375</vdop><extensions><gom:speed>0.0</gom:speed><gom:course>94.016</gom:course><gom:rel_alt>5.141</gom:rel_alt></extensions></trkpt>
   <trkpt lat="59.3522711445" lon="34.6895823941"><ele>170.036</ele><time>2026-08-14T00:22:16.997Z</time><hdop>4.687</hdop><vdop>3.375</vdop><extensions><gom:speed>0.634</gom:speed><gom:course>71.044</gom:course><gom:rel_alt>5.332</gom:rel_alt></extensions></trkpt>
   <trkpt lat="59.3522587393" lon="34.6897596713"><ele>172.664</ele><time>2026-08-14T00:22:41.000Z</time><hdop>4.687</hdop><vdop>3.375</vdop><extensions><gom:speed>0.0</gom:speed><gom:course>100.603</gom:course></extensions></trkpt>
   <trkpt lat="59.3522192606" lon="34.6899242919"><ele>172.431</ele><time>2026-08-14T00:23:03.999Z</time><hdop>4.687</hdop><vdop>3.375</vdop><extensions><gom:speed>0.426</gom:speed><gom:course>101.806</gom:course><gom:rel_alt>6.394</gom:rel_alt></extensions></trkpt>
   <trkpt lat="59.3522214818" lon="34.6901056763"><ele>172.785</ele><time>2026-08-14T00:23:19.999Z</time><hdop>4.687</hdop><vdop>3.375</vdop><extensions><gom:speed>0.573</gom:speed><gom:course>78.789</gom:course><gom:rel_alt>6.418</gom:rel_alt></extensions></trkpt>
   <trkpt lat="59.3522236611" lon="34.6902838756"><ele>172.839</ele><time>2026-08-14T00:23:34.998Z</time><hdop>4.687</hdop><vdop>3.375</vdop><extensions><gom:speed>0.398</gom:speed><gom:course>105.124</gom:course><gom:rel_alt>6.206</gom:rel_alt></extensions></trkpt>
   <trkpt lat="59.3522101243" lon="34.6904730551"><ele>173.22</ele><time>2026-08-14T00:23:48.998Z</time><hdop>4.687</hdop><vdop>3.375</vdop><extensions><gom:speed>0.523</gom:speed><gom:course>104.086</gom:course><gom:rel_alt>6.447</gom:rel_alt></extensions></trkpt>
   <trkpt lat="59.3521816258" lon="34.6906418666"><ele>173.442</ele><time>2026-08-14T00:24:18.997Z</time><hdop>4.687</hdop><vdop>3.375</vdop><extensions><gom:speed>0.0</gom:speed><gom:course>104.305</gom:course></extensions></trkpt>
   <trkpt lat="59.3521875351" lon="34.6908236701"><ele>168.461</ele><time>2026-08-14T00:26:33.997Z</time><hdop>4.687</hdop><vdop>3.375</vdop><extensions><gom:speed>0.0</gom:speed><gom:course>208.424</gom:course><gom:rel_alt>6.478</gom:rel_alt></extensions></trkpt>
   <trkpt lat="59.3521127266" lon="34.6909357362"><ele>168.005</ele><time>2026-08-14T00:27:08.000Z</time><hdop>4.687</hdop><vdop>3.375</vdop><extensions><gom:speed>0.478</gom:speed><gom:course>169.444</gom:course><gom:rel_alt>6.114</gom:rel_alt></extensions></trkpt>
   <trkpt lat="59.3520498204" lon="34.6910717745"><ele>167.608</ele><time>2026-08-14T00:27:26.999Z</time><hdop>4.687</hdop><vdop>3.375</vdop><extensions><gom:speed>0.0</gom:speed><gom:course>132.76</gom:course><gom:rel_alt>6.048</gom:rel_alt></extensions></trkpt>
   <trkpt lat="59.3519527999" lon="34.6911401708"><ele>167.147</ele><time>2026-08-14T00:27:42.999Z</time><hdop>4.625</hdop><vdop>3.437</vdop><extensions><gom:speed>1.153</gom:speed><gom:course>157.568</gom:course><gom:rel_alt>6.177</gom:rel_alt></extensions></trkpt>
   <trkpt lat="59.3519587091" lon="34.6913161908"><ele>168.045</ele><time>2026-08-14T00:28:02.998Z</time><hdop>4.687</hdop><vdop>3.375</vdop><extensions><gom:speed>0.0</gom:speed><gom:course>135.172</gom:course><gom:rel_alt>5.781</gom:rel_alt></extensions></trkpt>
   <trkpt lat="59.3519478126" lon="34.69149439"><ele>171.718</ele><time>2026-08-14T00:28:29.997Z</time><hdop>4.687</hdop><vdop>3.375</vdop><extensions><gom:speed>0.0</gom:speed><gom:course>68.539</gom:course><gom:rel_alt>5.599</gom:rel_alt></extensions></trkpt>
   <trkpt lat="59.3519778618" lon="34.6916617766"><ele>171.875</ele><time>2026-08-14T00:28:58.000Z</time><hdop>4.625</hdop><vdop>3.437</vdop><extensions><gom:speed>0.337</gom:speed><gom:course>52.823</gom:course><gom:rel_alt>5.281</gom:rel_alt></extensions></trkpt>
   <trkpt lat="59.3520337271" lon="34.6918202784"><ele>170.842</ele><time>2026-08-14T00:29:17.000Z</time><hdop>4.687</hdop><vdop>3.375</vdop><extensions><gom:speed>0.542</gom:speed><gom:course>68.511</gom:course><gom:rel_alt>5.023</gom:rel_alt></extensions></trkpt>
   <trkpt lat="59.3520441207" lon="34.6920071948"><ele>169.877</ele><time>2026-08-14T00:29:33.999Z</time><hdop>4.687</hdop><vdop>3.375</vdop><extensions><gom:speed>0.415</gom:speed><gom:course>102.575</gom:course><gom:rel_alt>5.03</gom:rel_alt></extensions></trkpt>
   <trkpt lat="59.3519980202" lon="34.6921792753"><ele>169.394</ele><time>2026-08-14T00:29:50.999Z</time><hdop>4.687</hdop><vdop>3.375</vdop><extensions><gom:speed>0.797</gom:speed><gom:course>123.499</gom:course><gom:rel_alt>4.721</gom:rel_alt></extensions></trkpt>
   <trkpt lat="59.3519938712" lon="34.692358229"><ele>170.777</ele><time>2026-08-14T00:30:10.998Z</time><hdop>4.687</hdop><vdop>3.375</vdop><extensions><gom:speed>0.0</gom:speed><gom:course>116.478</gom:course><gom:rel_alt>4.058</gom:rel_alt></extensions></trkpt>
   <trkpt lat="59.351904562" lon="34.6923884876"><ele>171.495</ele><time>2026-08-14T00:31:38.999Z</time><hdop>4.687</hdop><vdop>3.375</vdop><extensions><gom:speed>0.513</gom:speed><gom:course>203.145</gom:course><gom:rel_alt>3.847</gom:rel_alt></extensions></trkpt>
   <trkpt lat="59.3518099722" lon="34.6923790999"><ele>170.899</ele><time>2026-08-14T00:31:57.999Z</time><hdop>4.687</hdop><vdop>3.437</vdop><extensions><gom:speed>0.0</gom:speed><gom:course>168.571</gom:course><gom:rel_alt>3.781</gom:rel_alt></extensions></trkpt>
   <trkpt lat="59.351722549" lon="34.6923099492"><ele>170.675</ele><time>2026-08-14T00:32:20.998Z</time><hdop>4.687</hdop><vdop>3.375</vdop><extensions><gom:speed>0.0</gom:speed><gom:course>205.106</gom:course><gom:rel_alt>3.176</gom:rel_alt></extensions></trkpt>
   <trkpt lat="59.3516312701" lon="34.6923120447"><ele>169.653</ele><time>2026-08-14T00:32:37.997Z</time><hdop>4.625</hdop><vdop>3.437</vdop><extensions><gom:speed>0.0</gom:speed><gom:course>197.196</gom:course><gom:rel_alt>3.123</gom:rel_alt></extensions></trkpt>
   <trkpt lat="59.351545146" lon="34.6922376972"><ele>168.892</ele><time>2026-08-14T00:32:56.997Z</time><hdop>4.625</hdop><vdop>3.437</vdop><extensions><gom:speed>0.0</gom:speed><gom:course>228.2</gom:course><gom:rel_alt>3.572</gom:rel_alt></extensions></trkpt>
   <trkpt lat="59.3515421704" lon="34.6920537982"><ele>168.223</ele><time>2026-08-14T00:33:14.000Z</time><hdop>4.687</hdop><vdop>3.437</vdop><extensions><gom:speed>0.568</gom:speed><gom:course>247.778</gom:course><gom:rel_alt>4.172</gom:rel_alt></extensions></trkpt>
   <trkpt lat="59.3515646758" lon="34.6918828912"><ele>171.77</ele><time>2026-08-14T00:33:40.999Z</time><hdop>4.687</hdop><vdop>3.437</vdop><extensions><gom:speed>0.0</gom:speed><gom:course>318.427</gom:course><gom:rel_alt>3.915</gom:rel_alt></extensions></trkpt>
   <trkpt lat="59.3515975748" lon="34.6917077094"><ele>174.708</ele><time>2026-08-14T00:34:01.999Z</time><hdop>4.625</hdop><vdop>3.437</vdop><extensions><gom:speed>0.0</gom:speed><gom:course>286.978</gom:course><gom:rel_alt>4.676</gom:rel_alt></extensions></trkpt>
   <trkpt lat="59.3516513028" lon="34.6915466931"><ele>174.303</ele><time>2026-08-14T00:34:29.997Z</time><hdop>4.625</hdop><vdop>3.437</vdop><extensions><gom:speed>0.545</gom:speed><gom:course>336.944</gom:course><gom:rel_alt>5.469</gom:rel_alt></extensions></trkpt>
   <trkpt lat="59.3517103114" lon="34.6913949806"><ele>170.799</ele><time>2026-08-14T00:34:46.997Z</time><hdop>4.625</hdop><vdop>3.437</vdop><extensions><gom:speed>0.482</gom:speed><gom:course>316.235</gom:course><gom:rel_alt>6.132</gom:rel_alt></extensions></trkpt>
   <trkpt lat="59.3517243092" lon="34.6912180387"><ele>172.688</ele><time>2026-08-14T00:35:09.996Z</time><hdop>4.625</hdop><vdop>3.437</vdop><extensions><gom:speed>0.45</gom:speed><gom:course>268.054</gom:course><gom:rel_alt>6.441</gom:rel_alt></extensions></trkpt>
   <trkpt lat="59.3516779573" lon="34.6910564356"><ele>168.478</ele><time>2026-08-14T00:56:11.000Z</time><hdop>4.687</hdop><vdop>3.375</vdop><extensions><gom:speed>0.0</gom:speed><gom:course>25.301</gom:course><gom:rel_alt>4.943</gom:rel_alt></extensions></trkpt>
   <trkpt lat="59.3516811424" lon="34.6908739615"><ele>166.989</ele><time>2026-08-14T00:56:27.000Z</time><hdop>4.625</hdop><vdop>3.437</vdop><extensions><gom:speed>0.571</gom:speed><gom:course>306.797</gom:course><gom:rel_alt>5.567</gom:rel_alt></extensions></trkpt>
   <trkpt lat="59.3517122392" lon="34.6907027193"><ele>169.13</ele><time>2026-08-14T00:56:41.999Z</time><hdop>4.625</hdop><vdop>3.437</vdop><extensions><gom:speed>0.342</gom:speed><gom:course>271.866</gom:course></extensions></trkpt>
   <trkpt lat="59.3517603514" lon="34.6905345783"><ele>170.139</ele><time>2026-08-14T00:56:54.999Z</time><hdop>4.687</hdop><vdop>3.375</vdop><extensions><gom:speed>0.472</gom:speed><gom:course>333.813</gom:course><gom:rel_alt>6.642</gom:rel_alt></extensions></trkpt>
   <trkpt lat="59.351782312" lon="34.6903593965"><ele>168.106</ele><time>2026-08-14T00:57:10.997Z</time><hdop>4.687</hdop><vdop>3.375</vdop><extensions><gom:speed>0.536</gom:speed><gom:course>273.272</gom:course><gom:rel_alt>6.626</gom:rel_alt></extensions></trkpt>
   <trkpt lat="59.3518282029" lon="34.69020584"><ele>166.832</ele><time>2026-08-14T00:57:23.997Z</time><hdop>4.687</hdop><vdop>3.375</vdop><extensions><gom:speed>0.526</gom:speed><gom:course>270.97</gom:course><gom:rel_alt>6.883</gom:rel_alt></extensions></trkpt>
   <trkpt lat="59.351827239" lon="34.6900206"><ele>166.012</ele><time>2026-08-14T00:57:39.997Z</time><hdop>4.687</hdop><vdop>3.375</vdop><extensions><gom:speed>0.0</gom:speed><gom:course>244.24</gom:course><gom:rel_alt>6.835</gom:rel_alt></extensions></trkpt>
   <trkpt lat="59.3518151271" lon="34.6898250502"><ele>165.401</ele><time>2026-08-14T00:57:51.996Z</time><hdop>4.687</hdop><vdop>3.375</vdop><extensions><gom:speed>0.563</gom:speed><gom:course>271.185</gom:course><gom:rel_alt>6.439</gom:rel_alt></extensions></trkpt>
   <trkpt lat="59.3518253111" lon="34.6896402292"><ele>166.403</ele><time>2026-08-14T00:58:00.996Z</time><hdop>4.625</hdop><vdop>3.437</vdop><extensions><gom:speed>0.547</gom:speed><gom:course>274.321</gom:course><gom:rel_alt>6.072</gom:rel_alt></extensions></trkpt>
   <trkpt lat="59.351842494" lon="34.6894507982"><ele>165.304</ele><time>2026-08-14T00:58:10.996Z</time><hdop>4.687</hdop><vdop>3.375</vdop><extensions><gom:speed>0.502</gom:speed><gom:course>274.135</gom:course><gom:rel_alt>5.91</gom:rel_alt></extensions></trkpt>
   <trkpt lat="59.3518506245" lon="34.689256338"><ele>166.796</ele><time>2026-08-14T00:58:22.999Z</time><hdop>4.687</hdop><vdop>3.375</vdop><extensions><gom:speed>0.324</gom:speed><gom:course>260.462</gom:course><gom:rel_alt>5.53</gom:rel_alt></extensions></trkpt>
   <trkpt lat="59.3518571204" lon="34.6890676614"><ele>164.365</ele><time>2026-08-14T00:58:34.999Z</time><hdop>4.687</hdop><vdop>3.375</vdop><extensions><gom:speed>0.732</gom:speed></extensions></trkpt>
   <trkpt lat="59.3518916539" lon="34.6889048848"><ele>165.147</ele><time>2026-08-14T00:58:44.999Z</time><hdop>4.687</hdop><vdop>3.437</vdop><extensions><gom:speed>0.362</gom:speed><gom:course>272.662</gom:course><gom:rel_alt>5.181</gom:rel_alt></extensions></trkpt>
   <trkpt lat="59.3518973955" lon="34.6887209021"><ele>165.686</ele><time>2026-08-14T00:58:57.998Z</time><hdop>4.687</hdop><vdop>3.375</vdop><extensions><gom:speed>0.0</gom:speed><gom:course>237.918</gom:course><gom:rel_alt>5.023</gom:rel_alt></extensions></trkpt>
   <trkpt lat="59.351926313" lon="34.6885379251"><ele>160.06</ele><time>2026-08-14T00:59:08.998Z</time><hdop>4.687</hdop><vdop>3.375</vdop><extensions><gom:speed>0.739</gom:speed><gom:course>292.147</gom:course><gom:rel_alt>4.795</gom:rel_alt></extensions></trkpt>
   <trkpt lat="59.3519481898" lon="34.6883547805"><ele>161.204</ele><time>2026-08-14T00:59:20.997Z</time><hdop>4.625</hdop><vdop>3.437</vdop><extensions><gom:speed>0.0</gom:speed><gom:course>290.23</gom:course><gom:rel_alt>4.375</gom:rel_alt></extensions></trkpt>
   <trkpt lat="59.3519408137" lon="34.6881676126"><ele>164.277</ele><time>2026-08-14T00:59:31.997Z</time><hdop>4.625</hdop><vdop>3.437</vdop><extensions><gom:speed>0.361</gom:speed><gom:course>243.114</gom:course><gom:rel_alt>3.646</gom:rel_alt></extensions></trkpt>
   <trkpt lat="59.3519343597" lon="34.6879830431"><ele>166.015</ele><time>2026-08-14T00:59:58.996Z</time><hdop>4.687</hdop><vdop>3.375</vdop><extensions><gom:speed>0.0</gom:speed><gom:course>260.555</gom:course><gom:rel_alt>3.255</gom:rel_alt></extensions></trkpt>
   <trkpt lat="59.3519613075" lon="34.6878042571"><ele>166.362</ele><time>2026-08-14T01:00:11.996Z</time><hdop>4.687</hdop><vdop>3.437</vdop><extensions><gom:speed>0.519</gom:speed><gom:course>317.504</gom:course><gom:rel_alt>3.186</gom:rel_alt></extensions></trkpt>
   <trkpt lat="59.3520059411" lon="34.6876374573"><ele>166.199</ele><time>2026-08-14T01:00:28.999Z</time><hdop>4.687</hdop><vdop>3.437</vdop><extensions><gom:speed>0.531</gom:speed><gom:course>290.823</gom:course><gom:rel_alt>3.199</gom:rel_alt></extensions></trkpt>
   <trkpt lat="59.3520698531" lon="34.6875133213"><ele>167.082</ele><time>2026-08-14T01:00:42.999Z</time><hdop>4.625</hdop><vdop>3.437</vdop><extensions><gom:speed>0.453</gom:speed><gom:course>309.566</gom:course></extensions></trkpt>
   <trkpt lat="59.3521331365" lon="34.6873711642"><ele>163.554</ele><time>2026-08-14T01:00:56.998Z</time><hdop>4.687</hdop><vdop>3.375</vdop><extensions><gom:speed>0.0</gom:speed><gom:course>302.414</gom:course><gom:rel_alt>3.511</gom:rel_alt></extensions></trkpt>
   <trkpt lat="59.3521636885" lon="34.6872021012"><ele>160.102</ele><time>2026-08-14T01:01:08.998Z</time><hdop>4.687</hdop><vdop>3.437</vdop><extensions><gom:speed>0.0</gom:speed><gom:course>287.939</gom:course><gom:rel_alt>3.477</gom:rel_alt></extensions></trkpt>
   <trkpt lat="59.3521625151" lon="34.6870255783"><ele>159.682</ele><time>2026-08-14T01:01:18.998Z</time><hdop>4.687</hdop><vdop>3.375</vdop><extensions><gom:speed>0.45</gom:speed><gom:course>267.059</gom:course><gom:rel_alt>3.485</gom:rel_alt></extensions></trkpt>
   <trkpt lat="59.3521701426" lon="34.686826592"><ele>158.321</ele><time>2026-08-14T01:01:43.997Z</time><hdop>4.687</hdop><vdop>3.375</vdop><extensions><gom:speed>0.758</gom:speed><gom:course>273.777</gom:course><gom:rel_alt>3.324</gom:rel_alt></extensions></trkpt>
   <trkpt lat="59.3522018681" lon="34.686642693"><ele>158.741</ele><time>2026-08-14T01:01:55.997Z</time><hdop>4.687</hdop><vdop>3.375</vdop><extensions><gom:speed>0.599</gom:speed><gom:course>273.239</gom:course><gom:rel_alt>3.036</gom:rel_alt></extensions></trkpt>
   <trkpt lat="59.352200527" lon="34.6864456345"><ele>161.016</ele><time>2026-08-14T01:02:08.996Z</time><hdop>4.687</hdop><vdop>3.375</vdop><extensions><gom:speed>0.575</gom:speed><gom:course>264.318</gom:course><gom:rel_alt>2.888</gom:rel_alt></extensions></trkpt>
   <trkpt lat="59.3522027063" lon="34.6862602268"><ele>162.146</ele><time>2026-08-14T01:02:20.996Z</time><hdop>4.687</hdop><vdop>3.375</vdop><extensions><gom:speed>0.424</gom:speed><gom:course>262.879</gom:course><gom:rel_alt>2.893</gom:rel_alt></extensions></trkpt>
   <trkpt lat="59.3522062686" lon="34.6860794291"><ele>162.821</ele><time>2026-08-14T01:02:34.999Z</time><hdop>4.687</hdop><vdop>3.375</vdop><extensions><gom:speed>0.545</gom:speed><gom:course>254.59</gom:course><gom:rel_alt>2.755</gom:rel_alt></extensions></trkpt>
   <trkpt lat="59.3521839308" lon="34.6858936023"><ele>163.519</ele><time>2026-08-14T01:02:46.999Z</time><hdop>4.687</hdop><vdop>3.375</vdop><extensions><gom:speed>0.871</gom:speed><gom:course>271.174</gom:course><gom:rel_alt>2.869</gom:rel_alt></extensions></trkpt>
   <trkpt lat="59.3521879122" lon="34.6857155707"><ele>165.056</ele><time>2026-08-14T01:02:58.999Z</time><hdop>4.687</hdop><vdop>3.375</vdop><extensions><gom:speed>0.642</gom:speed><gom:course>258.852</gom:course><gom:rel_alt>2.858</gom:rel_alt></extensions></trkpt>
   <trkpt lat="59.3521491459" lon="34.6855392154"><ele>162.775</ele><time>2026-08-14T01:03:08.998Z</time><hdop>4.687</hdop><vdop>3.375</vdop><extensions><gom:speed>0.728</gom:speed><gom:course>237.94</gom:course><gom:rel_alt>2.75</gom:rel_alt></extensions></trkpt>
   <trkpt lat="59.3521271015" lon="34.6853670512"><ele>162.622</ele><time>2026-08-14T01:03:18.998Z</time><hdop>4.687</hdop><vdop>3.375</vdop><extensions><gom:speed>0.343</gom:speed><gom:course>266.686</gom:course><gom:rel_alt>2.753</gom:rel_alt></extensions></trkpt>
   <trkpt lat="59.3521355673" lon="34.6851852477"><ele>163.044</ele><time>2026-08-14T01:05:32.998Z</time><hdop>4.687</hdop><vdop>3.375</vdop><extensions><gom:speed>0.0</gom:speed><gom:course>331.424</gom:course></extensions></trkpt>
   <trkpt lat="59.3521764709" lon="34.6850223035"><ele>162.137</ele><time>2026-08-14T01:05:48.997Z</time><hdop>4.687</hdop><vdop>3.375</vdop><extensions><gom:speed>0.564</gom:speed><gom:course>271.756</gom:course></extensions></trkpt>
   <trkpt lat="59.3522045922" lon="34.6848398294"><ele>161.184</ele><time>2026-08-14T01:06:01.997Z</time><hdop>4.687</hdop><vdop>3.375</vdop><extensions><gom:speed>0.708</gom:speed><gom:course>268.954</gom:course><gom:rel_alt>2.962</gom:rel_alt></extensions></trkpt>
   <trkpt lat="59.3522446577" lon="34.6846770529"><ele>162.039</ele><time>2026-08-14T01:06:15.997Z</time><hdop>4.687</hdop><vdop>3.375</vdop><extensions><gom:speed>0.0</gom:speed><gom:course>309.819</gom:course><gom:rel_alt>2.872</gom:rel_alt></extensions></trkpt>
   <trkpt lat="59.3522867349" lon="34.684520898"><ele>164.42</ele><time>2026-08-14T01:06:28.996Z</time><hdop>4.687</hdop><vdop>3.375</vdop><extensions><gom:speed>0.723</gom:speed><gom:course>297.365</gom:course><gom:rel_alt>2.938</gom:rel_alt></extensions></trkpt>
   <trkpt lat="59.3523592803" lon="34.6843997795"><ele>163.033</ele><time>2026-08-14T01:06:46.000Z</time><hdop>4.687</hdop><vdop>3.375</vdop><extensions><gom:speed>0.576</gom:speed><gom:course>278.672</gom:course><gom:rel_alt>2.792</gom:rel_alt></extensions></trkpt>
   <trkpt lat="59.3524046683" lon="34.6842427865"><ele>162.663</ele><time>2026-08-14T01:06:57.999Z</time><hdop>4.687</hdop><vdop>3.375</vdop><extensions><gom:speed>0.546</gom:speed><gom:course>282.418</gom:course><gom:rel_alt>2.898</gom:rel_alt></extensions></trkpt>
   <trkpt lat="59.3524804826" lon="34.6841426227"><ele>161.159</ele><time>2026-08-14T01:07:19.999Z</time><hdop>4.687</hdop><vdop>3.375</vdop><extensions><gom:speed>0.735</gom:speed><gom:course>255.359</gom:course><gom:rel_alt>3.199</gom:rel_alt></extensions></trkpt>
   <trkpt lat="59.3525174049" lon="34.6839785889"><ele>163.44</ele><time>2026-08-14T01:07:33.998Z</time><hdop>4.687</hdop><vdop>3.375</vdop><extensions><gom:speed>0.0</gom:speed><gom:rel_alt>3.572</gom:rel_alt></extensions></trkpt>
   <trkpt lat="59.3525678639" lon="34.6838298939"><ele>164.917</ele><time>2026-08-14T01:07:50.998Z</time><hdop>4.687</hdop><vdop>3.375</vdop><extensions><gom:speed>0.371</gom:speed><gom:course>271.146</gom:course><gom:rel_alt>3.897</gom:rel_alt></extensions></trkpt>
   <trkpt lat="59.3525889863" lon="34.6836451568"><ele>162.929</ele><time>2026-08-14T01:08:02.997Z</time><hdop>4.687</hdop><vdop>3.375</vdop><extensions><gom:speed>0.0</gom:speed><gom:course>300.672</gom:course><gom:rel_alt>3.754</gom:rel_alt></extensions></trkpt>
   <trkpt lat="59.3526496713" lon="34.6834869903"><ele>164.157</ele><time>2026-08-14T01:08:12.997Z</time><hdop>4.687</hdop><vdop>3.375</vdop><extensions><gom:speed>0.805</gom:speed><gom:course>327.282</gom:course></extensions></trkpt>
   <trkpt lat="59.3526430496" lon="34.6832995709"><ele>161.173</ele><time>2026-08-14T01:08:28.997Z</time><hdop>4.687</hdop><vdop>3.375</vdop><extensions><gom:speed>0.0</gom:speed></extensions></trkpt>
   <trkpt lat="59.3526824445" lon="34.6831404824"><ele>162.195</ele><time>2026-08-14T01:08:43.996Z</time><hdop>4.687</hdop><vdop>3.375</vdop><extensions><gom:speed>0.406</gom:speed><gom:course>300.414</gom:course><gom:rel_alt>1.21</gom:rel_alt></extensions></trkpt>
   <trkpt lat="59.35267159" lon="34.6829605229"><ele>161.552</ele><time>2026-08-14T01:09:01.999Z</time><hdop>4.625</hdop><vdop>3.437</vdop><extensions><gom:speed>0.241</gom:speed><gom:course>284.907</gom:course><gom:rel_alt>1.997</gom:rel_alt></extensions></trkpt>
   <trkpt lat="59.3527378489" lon="34.6828152646"><ele>165.026</ele><time>2026-08-14T01:09:27.999Z</time><hdop>4.687</hdop><vdop>3.437</vdop><extensions><gom:speed>0.0</gom:speed><gom:rel_alt>3.543</gom:rel_alt></extensions></trkpt>
   <trkpt lat="59.3527699516" lon="34.6826474589"><ele>160.257</ele><time>2026-08-14T01:09:39.998Z</time><hdop>4.687</hdop><vdop>3.375</vdop><extensions><gom:speed>0.353</gom:speed><gom:course>285.94</gom:course><gom:rel_alt>4.24</gom:rel_alt></extensions></trkpt>
   <trkpt lat="59.3527977795" lon="34.6824625541"><ele>163.219</ele><time>2026-08-14T01:09:51.998Z</time><hdop>4.687</hdop><vdop>3.375</vdop><extensions><gom:speed>0.523</gom:speed><gom:course>299.695</gom:course><gom:rel_alt>3.944</gom:rel_alt></extensions></trkpt>
   <trkpt lat="59.3528041079" lon="34.6822739612"><ele>161.127</ele><time>2026-08-14T01:10:18.997Z</time><hdop>4.687</hdop><vdop>3.375</vdop><extensions><gom:speed>0.437</gom:speed><gom:course>256.842</gom:course><gom:rel_alt>3.619</gom:rel_alt></extensions></trkpt>
   <trkpt lat="59.3527840332" lon="34.6820966002"><ele>163.843</ele><time>2026-08-14T01:10:30.997Z</time><hdop>4.687</hdop><vdop>3.375</vdop><extensions><gom:speed>0.428</gom:speed><gom:course>287.516</gom:course><gom:rel_alt>4.024</gom:rel_alt></extensions></trkpt>
   <trkpt lat="59.3527860449" lon="34.6819126174"><ele>166.702</ele><time>2026-08-14T01:10:44.996Z</time><hdop>4.687</hdop><vdop>3.375</vdop><extensions><gom:speed>0.0</gom:speed><gom:course>251.063</gom:course><gom:rel_alt>3.95</gom:rel_alt></extensions></trkpt>
   <trkpt lat="59.352773933" lon="34.6817288023"><ele>164.36</ele><time>2026-08-14T01:11:09.000Z</time><hdop>4.687</hdop><vdop>3.375</vdop><extensions><gom:speed>0.0</gom:speed><gom:rel_alt>4.219</gom:rel_alt></extensions></trkpt>
   <trkpt lat="59.3527738073" lon="34.6815383654"><ele>162.606</ele><time>2026-08-14T01:11:21.999Z</time><hdop>4.687</hdop><vdop>3.375</vdop><extensions><gom:speed>0.279</gom:speed><gom:course>266.592</gom:course><gom:rel_alt>4.18</gom:rel_alt></extensions></trkpt>
   <trkpt lat="59.3528237634" lon="34.6813762594"><ele>164.254</ele><time>2026-08-14T01:11:45.998Z</time><hdop>4.687</hdop><vdop>3.375</vdop><extensions><gom:speed>0.0</gom:speed><gom:rel_alt>4.497</gom:rel_alt></extensions></trkpt>
   <trkpt lat="59.3528186505" lon="34.6811985631"><ele>164.573</ele><time>2026-08-14T01:13:47.999Z</time><hdop>4.687</hdop><vdop>3.375</vdop><extensions><gom:speed>0.241</gom:speed><gom:course>269.965</gom:course><gom:rel_alt>4.705</gom:rel_alt></extensions></trkpt>
   <trkpt lat="59.3528124479" lon="34.681015167"><ele>164.637</ele><time>2026-08-14T01:14:03.998Z</time><hdop>4.687</hdop><vdop>3.375</vdop><extensions><gom:speed>0.0</gom:speed><gom:rel_alt>4.468</gom:rel_alt></extensions></trkpt>
   <trkpt lat="59.3527867573" lon="34.6808426675"><ele>162.454</ele><time>2026-08-14T01:14:51.997Z</time><hdop>4.687</hdop><vdop>3.375</vdop><extensions><gom:speed>0.724</gom:speed><gom:course>322.777</gom:course><gom:rel_alt>4.898</gom:rel_alt></extensions></trkpt>
   <trkpt lat="59.3528027668" lon="34.6806639653"><ele>162.278</ele><time>2026-08-14T01:15:13.000Z</time><hdop>4.687</hdop><vdop>3.375</vdop><extensions><gom:speed>0.37</gom:speed><gom:course>297.415</gom:course><gom:rel_alt>4.859</gom:rel_alt></extensions></trkpt>
   <trkpt lat="59.3528349114" lon="34.6804938965"><ele>163.196</ele><time>2026-08-14T01:15:34.999Z</time><hdop>4.687</hdop><vdop>3.375</vdop><extensions><gom:speed>0.0</gom:speed><gom:course>301.601</gom:course><gom:rel_alt>4.801</gom:rel_alt></extensions></trkpt>
   <trkpt lat="59.3528200335" lon="34.6803090755"><ele>161.107</ele><time>2026-08-14T01:15:58.998Z</time><hdop>4.687</hdop><vdop>3.375</vdop><extensions><gom:speed>0.459</gom:speed><gom:course>222.701</gom:course><gom:rel_alt>4.729</gom:rel_alt></extensions></trkpt>
   <trkpt lat="59.3528035211" lon="34.6801278588"><ele>160.096</ele><time>2026-08-14T01:16:11.998Z</time><hdop>4.687</hdop><vdop>3.375</vdop><extensions><gom:speed>0.291</gom:speed><gom:course>238.676</gom:course><gom:rel_alt>4.705</gom:rel_alt></extensions></trkpt>
   <trkpt lat="59.3527726757" lon="34.6799613942"><ele>160.461</ele><time>2026-08-14T01:16:25.998Z</time><hdop>4.687</hdop><vdop>3.375</vdop><extensions><gom:speed>0.627</gom:speed><gom:course>302.694</gom:course><gom:rel_alt>4.888</gom:rel_alt></extensions></trkpt>
   <trkpt lat="59.3527782497" lon="34.6797662635"><ele>160.936</ele><time>2026-08-14T01:16:39.997Z</time><hdop>4.687</hdop><vdop>3.375</vdop><extensions><gom:speed>0.435</gom:speed><gom:course>284.912</gom:course><gom:rel_alt>4.695</gom:rel_alt></extensions></trkpt>
   <trkpt lat="59.3527849971" lon="34.6795841247"><ele>158.109</ele><time>2026-08-14T01:16:50.997Z</time><hdop>4.687</hdop><vdop>3.375</vdop><extensions><gom:speed>0.528</gom:speed><gom:course>264.406</gom:course><gom:rel_alt>4.465</gom:rel_alt></extensions></trkpt>
   <trkpt lat="59.3528084245" lon="34.6794091106"><ele>160.485</ele><time>2026-08-14T01:17:02.996Z</time><hdop>4.687</hdop><vdop>3.375</vdop><extensions><gom:speed>0.0</gom:speed><gom:course>291.878</gom:course><gom:rel_alt>3.479</gom:rel_alt></extensions></trkpt>
   <trkpt lat="59.3528076702" lon="34.6792211045"><ele>160.411</ele><time>2026-08-14T01:17:15.000Z</time><hdop>4.687</hdop><vdop>3.375</vdop><extensions><gom:speed>0.548</gom:speed><gom:course>226.75</gom:course><gom:rel_alt>3.482</gom:rel_alt></extensions></trkpt>
   <trkpt lat="59.3528836521" lon="34.6791092899"><ele>161.237</ele><time>2026-08-14T01:17:34.999Z</time><hdop>4.687</hdop><vdop>3.375</vdop><extensions><gom:speed>0.324</gom:speed><gom:course>296.267</gom:course></extensions></trkpt>
   <trkpt lat="59.3529499111" lon="34.6789887581"><ele>165.818</ele><time>2026-08-14T01:17:58.999Z</time><hdop>4.687</hdop><vdop>3.375</vdop><extensions><gom:speed>0.805</gom:speed><gom:course>339.032</gom:course><gom:rel_alt>5.255</gom:rel_alt></extensions></trkpt>
   <trkpt lat="59.352973087" lon="34.6788136602"><ele>163.483</ele><time>2026-08-14T01:18:15.998Z</time><hdop>4.687</hdop><vdop>3.375</vdop><extensions><gom:speed>0.468</gom:speed><gom:course>290.993</gom:course><gom:rel_alt>6.159</gom:rel_alt></extensions></trkpt>
   <trkpt lat="59.3529878811" lon="34.6786285877"><ele>165.711</ele><time>2026-08-14T01:18:30.998Z</time><hdop>4.687</hdop><vdop>3.375</vdop><extensions><gom:speed>0.539</gom:speed><gom:course>305.248</gom:course><gom:rel_alt>6.529</gom:rel_alt></extensions></trkpt>
   <trkpt lat="59.3530432436" lon="34.6784860954"><ele>157.923</ele><time>2026-08-14T01:19:08.997Z</time><hdop>4.687</hdop><vdop>3.375</vdop><extensions><gom:speed>0.436</gom:speed><gom:course>252.574</gom:course><gom:rel_alt>6.759</gom:rel_alt></extensions></trkpt>
   <trkpt lat="59.3530802077" lon="34.6783109136"><ele>161.707</ele><time>2026-08-14T01:19:26.000Z</time><hdop>4.687</hdop><vdop>3.375</vdop><extensions><gom:speed>0.509</gom:speed><gom:course>295.009</gom:course><gom:rel_alt>6.597</gom:rel_alt></extensions></trkpt>
   <trkpt lat="59.3530623124" lon="34.6781381626"><ele>161.723</ele><time>2026-08-14T01:19:43.999Z</time><hdop>4.687</hdop><vdop>3.375</vdop><extensions><gom:speed>0.45</gom:speed><gom:course>212.78</gom:course><gom:rel_alt>6.51</gom:rel_alt></extensions></trkpt>
   <trkpt lat="59.3530171339" lon="34.6779834327"><ele>166.114</ele><time>2026-08-14T01:19:59.999Z</time><hdop>4.687</hdop><vdop>3.375</vdop><extensions><gom:speed>0.714</gom:speed><gom:rel_alt>6.661</gom:rel_alt></extensions></trkpt>
   <trkpt lat="59.352989306" lon="34.6778154593"><ele>164.22</ele><time>2026-08-14T01:20:13.998Z</time><hdop>4.687</hdop><vdop>3.375</vdop><extensions><gom:speed>0.0</gom:speed><gom:course>59.497</gom:course><gom:rel_alt>6.854</gom:rel_alt></extensions></trkpt>
   <trkpt lat="59.3529430798" lon="34.6776578795"><ele>164.303</ele><time>2026-08-14T01:20:24.998Z</time><hdop>4.687</hdop><vdop>3.375</vdop><extensions><gom:speed>0.679</gom:speed><gom:course>260.495</gom:course><gom:rel_alt>6.629</gom:rel_alt></extensions></trkpt>
   <trkpt lat="59.3529393918" lon="34.6774809376"><ele>163.887</ele><time>2026-08-14T01:20:34.998Z</time><hdop>4.687</hdop><vdop>3.375</vdop><extensions><gom:speed>0.505</gom:speed><gom:course>281.089</gom:course><gom:rel_alt>6.584</gom:rel_alt></extensions></trkpt>
   <trkpt lat="59.3529424093" lon="34.6773007266"><ele>164.906</ele><time>2026-08-14T01:20:47.996Z</time><hdop>4.687</hdop><vdop>3.312</vdop><extensions><gom:speed>0.0</gom:speed><gom:rel_alt>6.381</gom:rel_alt></extensions></trkpt>
   <trkpt lat="59.3529359971" lon="34.6771242038"><ele>164.354</ele><time>2026-08-14T01:21:04.996Z</time><hdop>4.687</hdop><vdop>3.375</vdop><extensions><gom:speed>0.0</gom:speed><gom:course>300.068</gom:course><gom:rel_alt>6.082</gom:rel_alt></extensions></trkpt>
   <trkpt lat="59.3529503721" lon="34.6769482676"><ele>160.718</ele><time>2026-08-14T01:21:22.999Z</time><hdop>4.687</hdop><vdop>3.375</vdop><extensions><gom:speed>1.089</gom:speed><gom:rel_alt>5.67</gom:rel_alt></extensions></trkpt>
   <trkpt lat="59.3529620648" lon="34.6767709904"><ele>162.395</ele><time>2026-08-14T01:21:37.999Z</time><hdop>4.687</hdop><vdop>3.375</vdop><extensions><gom:speed>0.0</gom:speed><gom:course>240.813</gom:course><gom:rel_alt>5.427</gom:rel_alt></extensions></trkpt>
   <trkpt lat="59.3529424093" lon="34.6765919529"><ele>162.265</ele><time>2026-08-14T01:21:47.999Z</time><hdop>4.687</hdop><vdop>3.375</vdop><extensions><gom:speed>0.387</gom:speed><gom:course>272.91</gom:course><gom:rel_alt>5.363</gom:rel_alt></extensions></trkpt>
   <trkpt lat="59.3529599274" lon="34.6764175255"><ele>162.989</ele><time>2026-08-14T01:22:01.998Z</time><hdop>4.687</hdop><vdop>3.375</vdop><extensions><gom:speed>0.0</gom:speed><gom:rel_alt>5.961</gom:rel_alt></extensions></trkpt>
   <trkpt lat="59.3530048125" lon="34.6762614545"><ele>158.353</ele><time>2026-08-14T01:22:19.998Z</time><hdop>4.687</hdop><vdop>3.375</vdop><extensions><gom:speed>0.351</gom:speed><gom:course>279.381</gom:course><gom:rel_alt>6.439</gom:rel_alt></extensions></trkpt>
   <trkpt lat="59.353076855" lon="34.6761495561"><ele>156.966</ele><time>2026-08-14T01:22:32.997Z</time><hdop>4.687</hdop><vdop>3.437</vdop><extensions><gom:speed>0.749</gom:speed><gom:course>293.696</gom:course><gom:rel_alt>6.241</gom:rel_alt></extensions></trkpt>
   <trkpt lat="59.3531235003" lon="34.6759823371"><ele>155.595</ele><time>2026-08-14T01:22:44.997Z</time><hdop>4.687</hdop><vdop>3.375</vdop><extensions><gom:speed>0.465</gom:speed><gom:course>307.149</gom:course><gom:rel_alt>5.247</gom:rel_alt></extensions></trkpt>
   <trkpt lat="59.3531931539" lon="34.6758648228"><ele>160.329</ele><time>2026-08-14T01:23:01.996Z</time><hdop>4.687</hdop><vdop>3.375</vdop><extensions><gom:speed>0.572</gom:speed><gom:course>340.581</gom:course><gom:rel_alt>5.522</gom:rel_alt></extensions></trkpt>
   <trkpt lat="59.3532701417" lon="34.6757377532"><ele>162.152</ele><time>2026-08-14T01:23:16.996Z</time><hdop>4.687</hdop><vdop>3.375</vdop><extensions><gom:speed>0.684</gom:speed><gom:course>309.05</gom:course><gom:rel_alt>5.879</gom:rel_alt></extensions></trkpt>
   <trkpt lat="59.3533113387" lon="34.6755642478"><ele>159.929</ele><time>2026-08-14T01:23:29.999Z</time><hdop>4.687</hdop><vdop>3.375</vdop><extensions><gom:speed>0.773</gom:speed><gom:course>317.273</gom:course><gom:rel_alt>5.522</gom:rel_alt></extensions></trkpt>
   <trkpt lat="59.3533493926" lon="34.6753838692"><ele>161.678</ele><time>2026-08-14T01:23:43.999Z</time><hdop>4.687</hdop><vdop>3.375</vdop><extensions><gom:speed>0.664</gom:speed><gom:rel_alt>5.498</gom:rel_alt></extensions></trkpt>
   <trkpt lat="59.3533560981" lon="34.6752021495"><ele>160.997</ele><time>2026-08-14T01:23:53.999Z</time><hdop>4.687</hdop><vdop>3.375</vdop><extensions><gom:speed>0.7</gom:speed><gom:course>276.579</gom:course><gom:rel_alt>5.688</gom:rel_alt></extensions></trkpt>
   <trkpt lat="59.3533388733" lon="34.6750086114"><ele>161.421</ele><time>2026-08-14T01:24:07.998Z</time><hdop>4.687</hdop><vdop>3.375</vdop><extensions><gom:speed>0.705</gom:speed><gom:rel_alt>5.07</gom:rel_alt></extensions></trkpt>
   <trkpt lat="59.3533271805" lon="34.6748262212"><ele>159.166</ele><time>2026-08-14T01:24:17.998Z</time><hdop>4.687</hdop><vdop>3.375</vdop><extensions><gom:speed>0.562</gom:speed><gom:course>282.495</gom:course><gom:rel_alt>4.169</gom:rel_alt></extensions></trkpt>
   <trkpt lat="59.3533371969" lon="34.6746480219"><ele>161.71</ele><time>2026-08-14T01:24:30.997Z</time><hdop>4.687</hdop><vdop>3.312</vdop><extensions><gom:speed>0.0</gom:speed><gom:course>286.45</gom:course></extensions></trkpt>
   <trkpt lat="59.3533415136" lon="34.6744682301"><ele>162.687</ele><time>2026-08-14T01:24:44.997Z</time><hdop>4.687</hdop><vdop>3.312</vdop><extensions><gom:speed>0.567</gom:speed><gom:rel_alt>3.231</gom:rel_alt></extensions></trkpt>
   <trkpt lat="59.3532851034" lon="34.6743213792"><ele>167.036</ele><time>2026-08-14T01:25:40.999Z</time><hdop>4.687</hdop><vdop>3.375</vdop><extensions><gom:speed>0.771</gom:speed><gom:course>248.986</gom:course><gom:rel_alt>3.63</gom:rel_alt></extensions></trkpt>
   <trkpt lat="59.3533494345" lon="34.6741896156"><ele>160.409</ele><time>2026-08-14T01:25:58.999Z</time><hdop>4.687</hdop><vdop>3.375</vdop><extensions><gom:speed>0.31</gom:speed><gom:course>317.597</gom:course><gom:rel_alt>3.662</gom:rel_alt></extensions></trkpt>
   <trkpt lat="59.3534148971" lon="34.6740508951"><ele>158.737</ele><time>2026-08-14T01:26:12.998Z</time><hdop>4.687</hdop><vdop>3.375</vdop><extensions><gom:speed>0.0</gom:speed><gom:course>341.119</gom:course><gom:rel_alt>3.379</gom:rel_alt></extensions></trkpt>
   <trkpt lat="59.3534659848" lon="34.6739057206"><ele>159.138</ele><time>2026-08-14T01:26:24.998Z</time><hdop>4.687</hdop><vdop>3.375</vdop><extensions><gom:speed>0.0</gom:speed><gom:course>281.688</gom:course><gom:rel_alt>3.881</gom:rel_alt></extensions></trkpt>
   <trkpt lat="59.3534716845" lon="34.6737140264"><ele>156.717</ele><time>2026-08-14T01:26:37.998Z</time><hdop>4.687</hdop><vdop>3.375</vdop><extensions><gom:speed>0.558</gom:speed><gom:course>258.825</gom:course><gom:rel_alt>3.429</gom:rel_alt></extensions></trkpt>
   <trkpt lat="59.3535119596" lon="34.6735551056"><ele>156.451</ele><time>2026-08-14T01:26:53.997Z</time><hdop>4.687</hdop><vdop>3.375</vdop><extensions><gom:speed>0.495</gom:speed><gom:course>329.243</gom:course><gom:rel_alt>3.191</gom:rel_alt></extensions></trkpt>
   <trkpt lat="59.353559024" lon="34.6733999565"><ele>160.802</ele><time>2026-08-14T01:27:04.997Z</time><hdop>4.687</hdop><vdop>3.375</vdop><extensions><gom:speed>0.339</gom:speed><gom:course>295.663</gom:course><gom:rel_alt>2.991</gom:rel_alt></extensions></trkpt>
   <trkpt lat="59.3535624186" lon="34.6732205838"><ele>162.047</ele><time>2026-08-14T01:27:30.996Z</time><hdop>4.687</hdop><vdop>3.375</vdop><extensions><gom:speed>0.0</gom:speed><gom:course>62.447</gom:course><gom:rel_alt>2.745</gom:rel_alt></extensions></trkpt>
   <trkpt lat="59.3535471636" lon="34.673045402"><ele>161.63</ele><time>2026-08-14T01:28:12.999Z</time><hdop>4.687</hdop><vdop>3.375</vdop><extensions><gom:speed>0.444</gom:speed><gom:course>268.323</gom:course><gom:rel_alt>3.279</gom:rel_alt></extensions></trkpt>
   <trkpt lat="59.3535069723" lon="34.6728677895"><ele>163.36</ele><time>2026-08-14T01:28:27.998Z</time><hdop>4.687</hdop><vdop>3.375</vdop><extensions><gom:speed>0.634</gom:speed><gom:course>231.216</gom:course><gom:rel_alt>4.576</gom:rel_alt></extensions></trkpt>
   <trkpt lat="59.3534721455" lon="34.6727019955"><ele>160.645</ele><time>2026-08-14T01:28:43.998Z</time><hdop>4.687</hdop><vdop>3.375</vdop><extensions><gom:speed>0.649</gom:speed><gom:rel_alt>4.737</gom:rel_alt></extensions></trkpt>
   <trkpt lat="59.3534553817" lon="34.6725288253"><ele>160.39</ele><time>2026-08-14T01:29:10.997Z</time><hdop>4.687</hdop><vdop>3.375</vdop><extensions><gom:speed>0.0</gom:speed><gom:course>321.124</gom:course><gom:rel_alt>4.41</gom:rel_alt></extensions></trkpt>
   <trkpt lat="59.3534172022" lon="34.6723673899"><ele>160.457</ele><time>2026-08-14T01:29:22.996Z</time><hdop>4.687</hdop><vdop>3.375</vdop><extensions><gom:speed>0.492</gom:speed><gom:rel_alt>4.848</gom:rel_alt></extensions></trkpt>
   <trkpt lat="59.35336909" lon="34.6722101454"><ele>154.698</ele><time>2026-08-14T01:29:36.996Z</time><hdop>4.687</hdop><vdop>3.375</vdop><extensions><gom:speed>0.503</gom:speed><gom:rel_alt>5.472</gom:rel_alt></extensions></trkpt>
   <trkpt lat="59.3533084051" lon="34.6720793039"><ele>159.406</ele><time>2026-08-14T01:29:47.999Z</time><hdop>4.687</hdop><vdop>3.375</vdop><extensions><gom:speed>0.0</gom:speed><gom:rel_alt>5.942</gom:rel_alt></extensions></trkpt>
   <trkpt lat="59.3532370751" lon="34.6719544973"><ele>159.271</ele><time>2026-08-14T01:29:59.999Z</time><hdop>4.687</hdop><vdop>3.375</vdop><extensions><gom:speed>0.0</gom:speed><gom:rel_alt>6.209</gom:rel_alt></extensions></trkpt>
   <trkpt lat="59.3532378713" lon="34.6717730291"><ele>163.005</ele><time>2026-08-14T01:30:15.999Z</time><hdop>4.687</hdop><vdop>3.375</vdop><extensions><gom:speed>0.0</gom:speed><gom:course>298.151</gom:course><gom:rel_alt>6.825</gom:rel_alt></extensions></trkpt>
   <trkpt lat="59.3532312496" lon="34.6715949137"><ele>162.787</ele><time>2026-08-14T01:30:27.998Z</time><hdop>4.687</hdop><vdop>3.375</vdop><extensions><gom:speed>0.0</gom:speed><gom:rel_alt>7.393</gom:rel_alt></extensions></trkpt>
   <trkpt lat="59.3532122646" lon="34.6714211568"><ele>161.44</ele><time>2026-08-14T01:30:39.998Z</time><hdop>4.687</hdop><vdop>3.375</vdop><extensions><gom:speed>0.0</gom:speed></extensions></trkpt>
   <trkpt lat="59.3531991889" lon="34.6712437958"><ele>166.943</ele><time>2026-08-14T01:31:14.997Z</time><hdop>4.687</hdop><vdop>3.375</vdop><extensions><gom:speed>0.248</gom:speed><gom:course>280.611</gom:course><gom:rel_alt>7.895</gom:rel_alt></extensions></trkpt>
   <trkpt lat="59.353199608" lon="34.6710652612"><ele>166.39</ele><time>2026-08-14T01:31:32.996Z</time><hdop>4.687</hdop><vdop>3.375</vdop><extensions><gom:speed>0.0</gom:speed><gom:rel_alt>8.175</gom:rel_alt></extensions></trkpt>
   <trkpt lat="59.3532393382" lon="34.6708952762"><ele>164.111</ele><time>2026-08-14T01:31:49.999Z</time><hdop>4.687</hdop><vdop>3.312</vdop><extensions><gom:speed>0.0</gom:speed><gom:course>292.455</gom:course><gom:rel_alt>8.14</gom:rel_alt></extensions></trkpt>
   <trkpt lat="59.3532892105" lon="34.6707361877"><ele>165.031</ele><time>2026-08-14T01:32:07.999Z</time><hdop>4.687</hdop><vdop>3.375</vdop><extensions><gom:speed>0.507</gom:speed><gom:course>328.139</gom:course><gom:rel_alt>7.797</gom:rel_alt></extensions></trkpt>
   <trkpt lat="59.3533660726" lon="34.6706090342"><ele>160.975</ele><time>2026-08-14T01:32:23.999Z</time><hdop>4.687</hdop><vdop>3.312</vdop><extensions><gom:speed>0.71</gom:speed><gom:course>342.251</gom:course><gom:rel_alt>6.957</gom:rel_alt></extensions></trkpt>
   <trkpt lat="59.353425165" lon="34.6704709843"><ele>160.654</ele><time>2026-08-14T01:32:36.998Z</time><hdop>4.687</hdop><vdop>3.312</vdop><extensions><gom:speed>0.462</gom:speed><gom:course>314.417</gom:course><gom:rel_alt>6.109</gom:rel_alt></extensions></trkpt>
   <trkpt lat="59.3534840898" lon="34.6703329343"><ele>160.879</ele><time>2026-08-14T01:32:51.998Z</time><hdop>4.687</hdop><vdop>3.375</vdop><extensions><gom:speed>0.693</gom:speed><gom:course>308.484</gom:course><gom:rel_alt>5.292</gom:rel_alt></extensions></trkpt>
   <trkpt lat="59.3535210959" lon="34.6701699902"><ele>160.775</ele><time>2026-08-14T01:33:08.997Z</time><hdop>4.687</hdop><vdop>3.375</vdop><extensions><gom:speed>0.0</gom:speed><gom:course>154.931</gom:course><gom:rel_alt>4.713</gom:rel_alt></extensions></trkpt>
   <trkpt lat="59.3535553359" lon="34.6699942216"><ele>162.283</ele><time>2026-08-14T01:33:26.997Z</time><hdop>4.687</hdop><vdop>3.375</vdop><extensions><gom:speed>0.0</gom:speed><gom:course>227.354</gom:course><gom:rel_alt>4.351</gom:rel_alt></extensions></trkpt>
   <trkpt lat="59.3535833734" lon="34.6698162738"><ele>163.721</ele><time>2026-08-14T01:33:37.996Z</time><hdop>4.687</hdop><vdop>3.312</vdop><extensions><gom:speed>0.0</gom:speed><gom:course>258.325</gom:course><gom:rel_alt>4.444</gom:rel_alt></extensions></trkpt>
   <trkpt lat="59.3536006401" lon="34.6696430199"><ele>159.952</ele><time>2026-08-14T01:33:50.996Z</time><hdop>4.687</hdop><vdop>3.375</vdop><extensions><gom:speed>0.0</gom:speed><gom:course>306.226</gom:course><gom:rel_alt>4.46</gom:rel_alt></extensions></trkpt>
   <trkpt lat="59.3536825313" lon="34.6695268467"><ele>165.401</ele><time>2026-08-14T01:34:17.999Z</time><hdop>4.687</hdop><vdop>3.375</vdop><extensions><gom:speed>0.768</gom:speed><gom:course>342.015</gom:course><gom:rel_alt>4.544</gom:rel_alt></extensions></trkpt>
   <trkpt lat="59.3537456051" lon="34.6693761401"><ele>163.472</ele><time>2026-08-14T01:34:35.999Z</time><hdop>4.687</hdop><vdop>3.312</vdop><extensions><gom:speed>0.0</gom:speed><gom:course>311.642</gom:course><gom:rel_alt>4.476</gom:rel_alt></extensions></trkpt>
   <trkpt lat="59.3537486226" lon="34.6691929117"><ele>172.457</ele><time>2026-08-14T01:46:50.999Z</time><hdop>4.687</hdop><vdop>3.375</vdop><extensions><gom:speed>0.0</gom:speed><gom:course>338.894</gom:course><gom:rel_alt>4.999</gom:rel_alt></extensions></trkpt>
   <trkpt lat="59.353753987" lon="34.6690101024"><ele>169.768</ele><time>2026-08-14T01:47:09.998Z</time><hdop>4.687</hdop><vdop>3.375</vdop><extensions><gom:speed>0.0</gom:speed><gom:course>301.793</gom:course></extensions></trkpt>
   <trkpt lat="59.3537324455" lon="34.6688355073"><ele>167.975</ele><time>2026-08-14T01:47:29.998Z</time><hdop>4.687</hdop><vdop>3.375</vdop><extensions><gom:speed>0.0</gom:speed><gom:rel_alt>4.885</gom:rel_alt></extensions></trkpt>
   <trkpt lat="59.3537695355" lon="34.6686664444"><ele>170.038</ele><time>2026-08-14T01:48:04.997Z</time><hdop>4.687</hdop><vdop>3.375</vdop><extensions><gom:speed>0.721</gom:speed><gom:course>311.719</gom:course><gom:rel_alt>4.782</gom:rel_alt></extensions></trkpt>
   <trkpt lat="59.3538459784" lon="34.668571645"><ele>168.785</ele><time>2026-08-14T01:48:26.996Z</time><hdop>4.687</hdop><vdop>3.375</vdop><extensions><gom:speed>0.0</gom:speed><gom:rel_alt>4.721</gom:rel_alt></extensions></trkpt>
   <trkpt lat="59.3539390175" lon="34.6685912587"><ele>165.795</ele><time>2026-08-14T01:48:58.999Z</time><hdop>4.75</hdop><vdop>3.312</vdop><extensions><gom:speed>0.0</gom:speed><gom:course>345.684</gom:course><gom:rel_alt>5.02</gom:rel_alt></extensions></trkpt>
   <trkpt lat="59.354017556" lon="34.6685036678"><ele>166.943</ele><time>2026-08-14T01:49:09.999Z</time><hdop>4.687</hdop><vdop>3.312</vdop><extensions><gom:speed>0.45</gom:speed><gom:course>309.962</gom:course><gom:rel_alt>5.118</gom:rel_alt></extensions></trkpt>
   <trkpt lat="59.3540611419" lon="34.6683383767"><ele>163.941</ele><time>2026-08-14T01:49:22.998Z</time><hdop>4.687</hdop><vdop>3.375</vdop><extensions><gom:speed>0.9</gom:speed><gom:rel_alt>5.517</gom:rel_alt></extensions></trkpt>
   <trkpt lat="59.3541073262" lon="34.668177947"><ele>166.032</ele><time>2026-08-14T01:49:32.998Z</time><hdop>4.687</hdop><vdop>3.375</vdop><extensions><gom:speed>0.686</gom:speed><gom:course>305.935</gom:course></extensions></trkpt>
   <trkpt lat="59.3541674663" lon="34.6680409867"><ele>165.224</ele><time>2026-08-14T01:49:45.997Z</time><hdop>4.687</hdop><vdop>3.375</vdop><extensions><gom:speed>0.41</gom:speed><gom:course>338.532</gom:course><gom:rel_alt>6.98</gom:rel_alt></extensions></trkpt>
   <trkpt lat="59.3542570689" lon="34.6679754403"><ele>162.61</ele><time>2026-08-14T01:50:02.997Z</time><hdop>4.687</hdop><vdop>3.375</vdop><extensions><gom:speed>0.504</gom:speed><gom:rel_alt>6.658</gom:rel_alt></extensions></trkpt>
   <trkpt lat="59.3543511976" lon="34.6680254802"><ele>164.886</ele><time>2026-08-14T01:50:15.996Z</time><hdop>4.75</hdop><vdop>3.312</vdop><extensions><gom:speed>0.428</gom:speed><gom:course>8.607</gom:course><gom:rel_alt>6.526</gom:rel_alt></extensions></trkpt>
   <trkpt lat="59.3544395429" lon="34.6679818943"><ele>164.736</ele><time>2026-08-14T01:50:27.996Z</time><hdop>4.75</hdop><vdop>3.312</vdop><extensions><gom:speed>0.519</gom:speed><gom:course>326.458</gom:course><gom:rel_alt>6.201</gom:rel_alt></extensions></trkpt>
   <trkpt lat="59.3545201768" lon="34.6678767853"><ele>162.709</ele><time>2026-08-14T01:50:40.996Z</time><hdop>4.687</hdop><vdop>3.312</vdop><extensions><gom:speed>0.0</gom:speed><gom:course>312.51</gom:course><gom:rel_alt>6.019</gom:rel_alt></extensions></trkpt>
   <trkpt lat="59.354609025" lon="34.6678105682"><ele>160.533</ele><time>2026-08-14T01:51:06.999Z</time><hdop>4.75</hdop><vdop>3.312</vdop><extensions><gom:speed>0.0</gom:speed><gom:course>338.85</gom:course><gom:rel_alt>5.34</gom:rel_alt></extensions></trkpt>
   <trkpt lat="59.3547127091" lon="34.6677915413"><ele>165.782</ele><time>2026-08-14T01:51:23.998Z</time><hdop>4.75</hdop><vdop>3.312</vdop><extensions><gom:speed>0.887</gom:speed></extensions></trkpt>
   <trkpt lat="59.3548133758" lon="34.6677964866"><ele>166.363</ele><time>2026-08-14T01:51:38.998Z</time><hdop>4.75</hdop><vdop>3.312</vdop><extensions><gom:speed>0.654</gom:speed><gom:course>2.807</gom:course><gom:rel_alt>5.017</gom:rel_alt></extensions></trkpt>
   <trkpt lat="59.3549029364" lon="34.667844012"><ele>164.665</ele><time>2026-08-14T01:51:50.998Z</time><hdop>4.75</hdop><vdop>3.312</vdop><extensions><gom:speed>0.755</gom:speed><gom:course>15.139</gom:course><gom:rel_alt>4.962</gom:rel_alt></extensions></trkpt>
   <trkpt lat="59.3549883899" lon="34.6679256518"><ele>165.654</ele><time>2026-08-14T01:52:04.997Z</time><hdop>4.75</hdop><vdop>3.312</vdop><extensions><gom:speed>0.349</gom:speed><gom:course>359.989</gom:course><gom:rel_alt>5.07</gom:rel_alt></extensions></trkpt>
   <trkpt lat="59.3550819739" lon="34.6679218799"><ele>162.534</ele><time>2026-08-14T01:52:21.997Z</time><hdop>4.75</hdop><vdop>3.312</vdop><extensions><gom:speed>0.531</gom:speed><gom:course>321.975</gom:course><gom:rel_alt>5.178</gom:rel_alt></extensions></trkpt>
   <trkpt lat="59.3551626078" lon="34.6678357139"><ele>163.839</ele><time>2026-08-14T01:52:31.996Z</time><hdop>4.75</hdop><vdop>3.312</vdop><extensions><gom:speed>0.0</gom:speed><gom:course>332.731</gom:course><gom:rel_alt>5.215</gom:rel_alt></extensions></trkpt>
   <trkpt lat="59.3552224965" lon="34.6676959876"><ele>161.431</ele><time>2026-08-14T01:52:47.999Z</time><hdop>4.75</hdop><vdop>3.25</vdop><extensions><gom:speed>0.0</gom:speed><gom:course>350.606</gom:course><gom:rel_alt>5.075</gom:rel_alt></extensions></trkpt>
   <trkpt lat="59.3553007834" lon="34.6675750367"><ele>163.256</ele><time>2026-08-14T01:52:59.999Z</time><hdop>4.75</hdop><vdop>3.312</vdop><extensions><gom:speed>0.774</gom:speed><gom:course>344.278</gom:course></extensions></trkpt>
   <trkpt lat="59.3553656175" lon="34.6674405072"><ele>165.191</ele><time>2026-08-14T01:53:11.999Z</time><hdop>4.75</hdop><vdop>3.312</vdop><extensions><gom:speed>0.692</gom:speed><gom:course>312.67</gom:course><gom:rel_alt>5.11</gom:rel_alt></extensions></trkpt>
   <trkpt lat="59.3554397135" lon="34.6673256751"><ele>165.367</ele><time>2026-08-14T01:53:21.999Z</time><hdop>4.687</hdop><vdop>3.312</vdop><extensions><gom:speed>0.715</gom:speed><gom:course>305.485</gom:course><gom:rel_alt>5.186</gom:rel_alt></extensions></trkpt>
   <trkpt lat="59.3555312439" lon="34.6672467176"><ele>162.945</ele><time>2026-08-14T01:53:40.998Z</time><hdop>4.75</hdop><vdop>3.312</vdop><extensions><gom:speed>0.0</gom:speed><gom:rel_alt>4.986</gom:rel_alt></extensions></trkpt>
   <trkpt lat="59.3555510671" lon="34.6670645788"><ele>163.748</ele><time>2026-08-14T01:56:12.997Z</time><hdop>4.687</hdop><vdop>3.375</vdop><extensions><gom:speed>0.0</gom:speed><gom:rel_alt>5.215</gom:rel_alt></extensions></trkpt>
   <trkpt lat="59.3556348023" lon="34.6671302091"><ele>165.384</ele><time>2026-08-14T01:57:19.999Z</time><hdop>4.687</hdop><vdop>3.312</vdop><extensions><gom:speed>0.463</gom:speed><gom:course>8.272</gom:course><gom:rel_alt>5.554</gom:rel_alt></extensions></trkpt>
   <trkpt lat="59.3557034082" lon="34.6672628109"><ele>165.764</ele><time>2026-08-14T01:57:40.999Z</time><hdop>4.75</hdop><vdop>3.312</vdop><extensions><gom:speed>0.0</gom:speed><gom:course>5.515</gom:course><gom:rel_alt>5.26</gom:rel_alt></extensions></trkpt>
   <trkpt lat="59.3557950224" lon="34.6672920637"><ele>162.792</ele><time>2026-08-14T01:58:00.998Z</time><hdop>4.75</hdop><vdop>3.312</vdop><extensions><gom:speed>0.428</gom:speed><gom:course>12.925</gom:course><gom:rel_alt>4.975</gom:rel_alt></extensions></trkpt>
   <trkpt lat="59.3558714653" lon="34.6673900481"><ele>162.682</ele><time>2026-08-14T01:58:24.997Z</time><hdop>4.687</hdop><vdop>3.312</vdop><extensions><gom:speed>0.0</gom:speed><gom:course>19.182</gom:course><gom:rel_alt>5.205</gom:rel_alt></extensions></trkpt>
   <trkpt lat="59.3559534403" lon="34.6674944867"><ele>163.478</ele><time>2026-08-14T02:01:27.000Z</time><hdop>4.687</hdop><vdop>3.375</vdop><extensions><gom:speed>0.0</gom:speed><gom:rel_alt>6.056</gom:rel_alt></extensions></trkpt>
   <trkpt lat="59.3560336971" lon="34.6675764617"><ele>156.685</ele><time>2026-08-14T02:02:22.998Z</time><hdop>4.687</hdop><vdop>3.375</vdop><extensions><gom:speed>0.744</gom:speed><gom:course>18.72</gom:course><gom:rel_alt>6.885</gom:rel_alt></extensions></trkpt>
   <trkpt lat="59.3561299213" lon="34.6675667387"><ele>160.334</ele><time>2026-08-14T02:02:44.997Z</time><hdop>4.687</hdop><vdop>3.312</vdop><extensions><gom:speed>0.924</gom:speed><gom:course>357.632</gom:course><gom:rel_alt>6.222</gom:rel_alt></extensions></trkpt>
   <trkpt lat="59.3562201944" lon="34.6674920559"><ele>163.287</ele><time>2026-08-14T02:03:00.997Z</time><hdop>4.687</hdop><vdop>3.375</vdop><extensions><gom:speed>0.803</gom:speed><gom:course>333.374</gom:course><gom:rel_alt>6.233</gom:rel_alt></extensions></trkpt>
   <trkpt lat="59.3562999063" lon="34.6674011123"><ele>163.676</ele><time>2026-08-14T02:03:11.996Z</time><hdop>4.687</hdop><vdop>3.375</vdop><extensions><gom:speed>0.817</gom:speed><gom:course>321.486</gom:course><gom:rel_alt>6.531</gom:rel_alt></extensions></trkpt>
   <trkpt lat="59.3563863237" lon="34.6673150301"><ele>162.835</ele><time>2026-08-14T02:03:23.000Z</time><hdop>4.687</hdop><vdop>3.375</vdop><extensions><gom:speed>0.755</gom:speed><gom:course>328.639</gom:course></extensions></trkpt>
   <trkpt lat="59.3564531275" lon="34.6671966776"><ele>163.279</ele><time>2026-08-14T02:03:35.000Z</time><hdop>4.687</hdop><vdop>3.375</vdop><extensions><gom:speed>0.797</gom:speed><gom:course>280.249</gom:course><gom:rel_alt>6.367</gom:rel_alt></extensions></trkpt>
   <trkpt lat="59.3564859846" lon="34.6670308836"><ele>163.182</ele><time>2026-08-14T02:03:49.999Z</time><hdop>4.687</hdop><vdop>3.375</vdop><extensions><gom:speed>1.088</gom:speed><gom:course>276.628</gom:course><gom:rel_alt>6.449</gom:rel_alt></extensions></trkpt>
   <trkpt lat="59.3565178777" lon="34.6668518461"><ele>164.826</ele><time>2026-08-14T02:04:01.999Z</time><hdop>4.687</hdop><vdop>3.375</vdop><extensions><gom:speed>0.753</gom:speed><gom:course>282.995</gom:course><gom:rel_alt>6.489</gom:rel_alt></extensions></trkpt>
   <trkpt lat="59.3565845557" lon="34.6667311467"><ele>167.559</ele><time>2026-08-14T02:04:18.998Z</time><hdop>4.687</hdop><vdop>3.375</vdop><extensions><gom:speed>0.0</gom:speed><gom:course>266.197</gom:course><gom:rel_alt>6.397</gom:rel_alt></extensions></trkpt>
   <trkpt lat="59.3565771797" lon="34.6665529475"><ele>165.029</ele><time>2026-08-14T02:04:36.998Z</time><hdop>4.687</hdop><vdop>3.375</vdop><extensions><gom:speed>0.797</gom:speed><gom:course>272.327</gom:course><gom:rel_alt>6.341</gom:rel_alt></extensions></trkpt>
   <trkpt lat="59.356623322" lon="34.6664005645"><ele>165.753</ele><time>2026-08-14T02:04:49.997Z</time><hdop>4.687</hdop><vdop>3.375</vdop><extensions><gom:speed>0.396</gom:speed><gom:course>319.322</gom:course><gom:rel_alt>6.256</gom:rel_alt></extensions></trkpt>
   <trkpt lat="59.3566148982" lon="34.6662172523"><ele>164.842</ele><time>2026-08-14T02:05:02.997Z</time><hdop>4.687</hdop><vdop>3.375</vdop><extensions><gom:speed>0.0</gom:speed><gom:rel_alt>6.243</gom:rel_alt></extensions></trkpt>
   <trkpt lat="59.3566710989" lon="34.6660757657"><ele>165.266</ele><time>2026-08-14T02:05:22.000Z</time><hdop>4.687</hdop><vdop>3.312</vdop><extensions><gom:speed>0.0</gom:speed><gom:course>321.92</gom:course><gom:rel_alt>6.153</gom:rel_alt></extensions></trkpt>
   <trkpt lat="59.3567159421" lon="34.6659038529"><ele>163.915</ele><time>2026-08-14T02:05:34.000Z</time><hdop>4.687</hdop><vdop>3.375</vdop><extensions><gom:speed>0.852</gom:speed><gom:course>317.487</gom:course><gom:rel_alt>6.246</gom:rel_alt></extensions></trkpt>
   <trkpt lat="59.3567744478" lon="34.665744932"><ele>165.526</ele><time>2026-08-14T02:05:51.999Z</time><hdop>4.687</hdop><vdop>3.312</vdop><extensions><gom:speed>0.621</gom:speed><gom:course>303.886</gom:course><gom:rel_alt>6.005</gom:rel_alt></extensions></trkpt>
   <trkpt lat="59.3567414231" lon="34.6655793894"><ele>164.11</ele><time>2026-08-14T02:06:07.999Z</time><hdop>4.687</hdop><vdop>3.375</vdop><extensions><gom:speed>0.592</gom:speed><gom:course>206.194</gom:course><gom:rel_alt>6.024</gom:rel_alt></extensions></trkpt>
   <trkpt lat="59.3567052971" lon="34.6654071413"><ele>165.297</ele><time>2026-08-14T02:07:59.999Z</time><hdop>4.687</hdop><vdop>3.375</vdop><extensions><gom:speed>0.0</gom:speed><gom:rel_alt>6.534</gom:rel_alt></extensions></trkpt>
   <trkpt lat="59.3566716018" lon="34.6652357314"><ele>163.611</ele><time>2026-08-14T02:08:18.999Z</time><hdop>4.687</hdop><vdop>3.375</vdop><extensions><gom:speed>0.0</gom:speed><gom:course>238.742</gom:course><gom:rel_alt>6.386</gom:rel_alt></extensions></trkpt>
   <trkpt lat="59.3566657764" lon="34.6650494855"><ele>164.767</ele><time>2026-08-14T02:08:33.998Z</time><hdop>4.687</hdop><vdop>3.375</vdop><extensions><gom:speed>0.0</gom:speed><gom:course>297.701</gom:course><gom:rel_alt>6.584</gom:rel_alt></extensions></trkpt>
   <trkpt lat="59.3566630942" lon="34.6648717053"><ele>173.086</ele><time>2026-08-14T02:11:03.997Z</time><hdop>4.687</hdop><vdop>3.375</vdop><extensions><gom:speed>0.348</gom:speed><gom:course>223.278</gom:course><gom:rel_alt>6.449</gom:rel_alt></extensions></trkpt>
   <trkpt lat="59.3566299437" lon="34.6646948472"><ele>171.671</ele><time>2026-08-14T02:11:15.996Z</time><hdop>4.687</hdop><vdop>3.375</vdop><extensions><gom:speed>0.6</gom:speed><gom:course>276.546</gom:course><gom:rel_alt>6.434</gom:rel_alt></extensions></trkpt>
   <trkpt lat="59.3566482163" lon="34.6645200007"><ele>163.543</ele><time>2026-08-14T02:11:30.996Z</time><hdop>4.625</hdop><vdop>3.437</vdop><extensions><gom:speed>0.0</gom:speed><gom:rel_alt>6.502</gom:rel_alt></extensions></trkpt>
   <trkpt lat="59.3566800675" lon="34.6643306535"><ele>168.791</ele><time>2026-08-14T02:11:44.999Z</time><hdop>4.625</hdop><vdop>3.437</vdop><extensions><gom:speed>0.929</gom:speed><gom:course>296.503</gom:course><gom:rel_alt>6.523</gom:rel_alt></extensions></trkpt>
   <trkpt lat="59.3567077697" lon="34.6641561423"><ele>168.096</ele><time>2026-08-14T02:11:55.999Z</time><hdop>4.687</hdop><vdop>3.375</vdop><extensions><gom:speed>0.58</gom:speed><gom:course>310.066</gom:course></extensions></trkpt>
   <trkpt lat="59.3567591927" lon="34.6639970537"><ele>169.171</ele><time>2026-08-14T02:12:06.999Z</time><hdop>4.687</hdop><vdop>3.375</vdop><extensions><gom:speed>0.41</gom:speed><gom:course>313.367</gom:course><gom:rel_alt>6.523</gom:rel_alt></extensions></trkpt>
   <trkpt lat="59.3567926784" lon="34.6638099697"><ele>168.805</ele><time>2026-08-14T02:12:18.998Z</time><hdop>4.687</hdop><vdop>3.375</vdop><extensions><gom:speed>0.566</gom:speed><gom:course>305.023</gom:course><gom:rel_alt>6.563</gom:rel_alt></extensions></trkpt>
   <trkpt lat="59.3568759526" lon="34.6637359575"><ele>167.867</ele><time>2026-08-14T02:13:12.997Z</time><hdop>4.687</hdop><vdop>3.375</vdop><extensions><gom:speed>0.0</gom:speed><gom:rel_alt>6.685</gom:rel_alt></extensions></trkpt>
   <trkpt lat="59.3569167306" lon="34.6635755278"><ele>163.599</ele><time>2026-08-14T02:13:36.996Z</time><hdop>4.687</hdop><vdop>3.375</vdop><extensions><gom:speed>0.322</gom:speed><gom:course>271.921</gom:course><gom:rel_alt>6.592</gom:rel_alt></extensions></trkpt>
   <trkpt lat="59.3569820256" lon="34.6634278387"><ele>165.147</ele><time>2026-08-14T02:14:46.998Z</time><hdop>4.687</hdop><vdop>3.375</vdop><extensions><gom:speed>0.0</gom:speed><gom:rel_alt>6.42</gom:rel_alt></extensions></trkpt>
   <trkpt lat="59.3569945984" lon="34.6632462867"><ele>168.11</ele><time>2026-08-14T02:16:16.999Z</time><hdop>4.687</hdop><vdop>3.375</vdop><extensions><gom:speed>0.567</gom:speed><gom:course>310.967</gom:course><gom:rel_alt>6.452</gom:rel_alt></extensions></trkpt>
   <trkpt lat="59.3569958557" lon="34.6630693447"><ele>166.008</ele><time>2026-08-14T02:16:30.998Z</time><hdop>4.687</hdop><vdop>3.375</vdop><extensions><gom:speed>0.0</gom:speed><gom:course>305.215</gom:course><gom:rel_alt>6.534</gom:rel_alt></extensions></trkpt>
   <trkpt lat="59.3569990408" lon="34.6628893014"><ele>165.104</ele><time>2026-08-14T02:16:44.998Z</time><hdop>4.687</hdop><vdop>3.375</vdop><extensions><gom:speed>0.63</gom:speed><gom:rel_alt>6.685</gom:rel_alt></extensions></trkpt>
   <trkpt lat="59.3569993761" lon="34.6626971044"><ele>164.902</ele><time>2026-08-14T02:16:59.997Z</time><hdop>4.687</hdop><vdop>3.375</vdop><extensions><gom:speed>0.469</gom:speed><gom:course>265.746</gom:course></extensions></trkpt>
   <trkpt lat="59.3569793853" lon="34.6625235152"><ele>165.503</ele><time>2026-08-14T02:17:17.997Z</time><hdop>4.687</hdop><vdop>3.375</vdop><extensions><gom:speed>0.0</gom:speed><gom:rel_alt>6.6</gom:rel_alt></extensions></trkpt>
   <trkpt lat="59.3569712129" lon="34.6623436395"><ele>164.909</ele><time>2026-08-14T02:17:29.997Z</time><hdop>4.687</hdop><vdop>3.375</vdop><extensions><gom:speed>0.584</gom:speed><gom:rel_alt>6.724</gom:rel_alt></extensions></trkpt>
   <trkpt lat="59.3569587239" lon="34.6621630933"><ele>163.252</ele><time>2026-08-14T02:17:42.996Z</time><hdop>4.687</hdop><vdop>3.375</vdop><extensions><gom:speed>0.43</gom:speed><gom:course>233.644</gom:course><gom:rel_alt>6.611</gom:rel_alt></extensions></trkpt>
   <trkpt lat="59.356943385" lon="34.661974249"><ele>161.877</ele><time>2026-08-14T02:17:54.996Z</time><hdop>4.687</hdop><vdop>3.437</vdop><extensions><gom:speed>0.427</gom:speed><gom:course>322.025</gom:course><gom:rel_alt>6.589</gom:rel_alt></extensions></trkpt>
   <trkpt lat="59.35696237" lon="34.6618009113"><ele>161.903</ele><time>2026-08-14T02:18:04.999Z</time><hdop>4.687</hdop><vdop>3.375</vdop><extensions><gom:speed>0.655</gom:speed><gom:course>280.787</gom:course><gom:rel_alt>6.677</gom:rel_alt></extensions></trkpt>
   <trkpt lat="59.3569998371" lon="34.6616402302"><ele>165.864</ele><time>2026-08-14T02:18:14.999Z</time><hdop>4.687</hdop><vdop>3.437</vdop><extensions><gom:speed>0.532</gom:speed><gom:course>308.297</gom:course><gom:rel_alt>6.65</gom:rel_alt></extensions></trkpt>
   <trkpt lat="59.3570152598" lon="34.6614535652"><ele>166.343</ele><time>2026-08-14T02:18:28.999Z</time><hdop>4.687</hdop><vdop>3.375</vdop><extensions><gom:speed>0.0</gom:speed><gom:rel_alt>6.856</gom:rel_alt></extensions></trkpt>
   <trkpt lat="59.3570757772" lon="34.6613182813"><ele>166.486</ele><time>2026-08-14T02:18:49.998Z</time><hdop>4.687</hdop><vdop>3.375</vdop><extensions><gom:speed>0.0</gom:speed><gom:course>347.376</gom:course><gom:rel_alt>6.323</gom:rel_alt></extensions></trkpt>
   <trkpt lat="59.357078166" lon="34.6611297723"><ele>164.901</ele><time>2026-08-14T02:19:13.997Z</time><hdop>4.687</hdop><vdop>3.375</vdop><extensions><gom:speed>0.0</gom:speed><gom:course>257.149</gom:course><gom:rel_alt>6.315</gom:rel_alt></extensions></trkpt>
   <trkpt lat="59.3570838238" lon="34.6609477174"><ele>165.659</ele><time>2026-08-14T02:19:35.997Z</time><hdop>4.687</hdop><vdop>3.375</vdop><extensions><gom:speed>0.0</gom:speed><gom:rel_alt>6.225</gom:rel_alt></extensions></trkpt>
   <trkpt lat="59.3570589715" lon="34.6607757207"><ele>165.084</ele><time>2026-08-14T02:19:49.996Z</time><hdop>4.625</hdop><vdop>3.437</vdop><extensions><gom:speed>0.411</gom:speed><gom:course>256.606</gom:course><gom:rel_alt>6.436</gom:rel_alt></extensions></trkpt>
   <trkpt lat="59.3570683173" lon="34.6605948392"><ele>164.09</ele><time>2026-08-14T02:20:10.999Z</time><hdop>4.625</hdop><vdop>3.437</vdop><extensions><gom:speed>0.0</gom:speed><gom:course>304.21</gom:course><gom:rel_alt>6.632</gom:rel_alt></extensions></trkpt>
   <trkpt lat="59.3571183991" lon="34.6604356669"><ele>164.744</ele><time>2026-08-14T02:20:23.999Z</time><hdop>4.625</hdop><vdop>3.437</vdop><extensions><gom:speed>0.491</gom:speed><gom:course>299.458</gom:course><gom:rel_alt>6.558</gom:rel_alt></extensions></trkpt>
   <trkpt lat="59.3571470653" lon="34.660260988"><ele>167.592</ele><time>2026-08-14T02:20:36.999Z</time><hdop>4.687</hdop><vdop>3.437</vdop><extensions><gom:speed>0.0</gom:speed><gom:rel_alt>6.531</gom:rel_alt></extensions></trkpt>
   <trkpt lat="59.3571683553" lon="34.6600889076"><ele>165.925</ele><time>2026-08-14T02:21:06.998Z</time><hdop>4.625</hdop><vdop>3.437</vdop><extensions><gom:speed>0.0</gom:speed><gom:course>256.963</gom:course><gom:rel_alt>6.457</gom:rel_alt></extensions></trkpt>
   <trkpt lat="59.3572217061" lon="34.6599364407"><ele>170.608</ele><time>2026-08-14T02:21:25.997Z</time><hdop>4.687</hdop><vdop>3.437</vdop><extensions><gom:speed>0.418</gom:speed><gom:course>306.045</gom:course><gom:rel_alt>6.172</gom:rel_alt></extensions></trkpt>
   <trkpt lat="59.3571639548" lon="34.6597880811"><ele>165.931</ele><time>2026-08-14T02:21:39.997Z</time><hdop>4.625</hdop><vdop>3.437</vdop><extensions><gom:speed>0.936</gom:speed><gom:course>219.482</gom:course><gom:rel_alt>6.198</gom:rel_alt></extensions></trkpt>
   <trkpt lat="59.3571210814" lon="34.6596289087"><ele>161.688</ele><time>2026-08-14T02:21:51.996Z</time><hdop>4.625</hdop><vdop>3.437</vdop><extensions><gom:speed>0.847</gom:speed><gom:course>233.924</gom:course><gom:rel_alt>6.156</gom:rel_alt></extensions></trkpt>
   <trkpt lat="59.3570924991" lon="34.6594544813"><ele>164.555</ele><time>2026-08-14T02:22:02.996Z</time><hdop>4.625</hdop><vdop>3.437</vdop><extensions><gom:speed>0.0</gom:speed><gom:course>231.342</gom:course><gom:rel_alt>6.204</gom:rel_alt></extensions></trkpt>
   <trkpt lat="59.3570834047" lon="34.6592696603"><ele>166.043</ele><time>2026-08-14T02:22:14.000Z</time><hdop>4.625</hdop><vdop>3.437</vdop><extensions><gom:speed>0.546</gom:speed><gom:rel_alt>6.286</gom:rel_alt></extensions></trkpt>
   <trkpt lat="59.3570947203" lon="34.6590789721"><ele>165.481</ele><time>2026-08-14T02:22:24.999Z</time><hdop>4.687</hdop><vdop>3.375</vdop><extensions><gom:speed>0.429</gom:speed><gom:course>275.338</gom:course><gom:rel_alt>6.531</gom:rel_alt></extensions></trkpt>
   <trkpt lat="59.3571106878" lon="34.6588962466"><ele>164.638</ele><time>2026-08-14T02:22:35.999Z</time><hdop>4.687</hdop><vdop>3.375</vdop><extensions><gom:speed>0.0</gom:speed><gom:course>292.136</gom:course></extensions></trkpt>
   <trkpt lat="59.3571077122" lon="34.6587167062"><ele>163.155</ele><time>2026-08-14T02:22:47.999Z</time><hdop>4.687</hdop><vdop>3.375</vdop><extensions><gom:speed>0.542</gom:speed><gom:course>321.058</gom:course><gom:rel_alt>6.367</gom:rel_alt></extensions></trkpt>
   <trkpt lat="59.3571274097" lon="34.6585390098"><ele>162.33</ele><time>2026-08-14T02:22:57.998Z</time><hdop>4.687</hdop><vdop>3.375</vdop><extensions><gom:speed>1.268</gom:speed><gom:rel_alt>6.41</gom:rel_alt></extensions></trkpt>
   <trkpt lat="59.357153184" lon="34.6583595533"><ele>164.117</ele><time>2026-08-14T02:23:07.998Z</time><hdop>4.687</hdop><vdop>3.375</vdop><extensions><gom:speed>0.489</gom:speed><gom:course>280.056</gom:course></extensions></trkpt>
   <trkpt lat="59.3571982368" lon="34.6581971958"><ele>164.92</ele><time>2026-08-14T02:23:18.998Z</time><hdop>4.687</hdop><vdop>3.375</vdop><extensions><gom:speed>0.0</gom:speed><gom:course>326.254</gom:course><gom:rel_alt>6.296</gom:rel_alt></extensions></trkpt>
   <trkpt lat="59.3572593828" lon="34.6580412086"><ele>165.558</ele><time>2026-08-14T02:23:32.997Z</time><hdop>4.687</hdop><vdop>3.375</vdop><extensions><gom:speed>0.609</gom:speed><gom:course>325.502</gom:course><gom:rel_alt>6.09</gom:rel_alt></extensions></trkpt>
   <trkpt lat="59.3573219956" lon="34.657909026"><ele>163.664</ele><time>2026-08-14T02:23:47.997Z</time><hdop>4.687</hdop><vdop>3.375</vdop><extensions><gom:speed>0.0</gom:speed><gom:course>19.885</gom:course><gom:rel_alt>6.048</gom:rel_alt></extensions></trkpt>
   <trkpt lat="59.357320864" lon="34.657722361"><ele>163.149</ele><time>2026-08-14T02:24:05.996Z</time><hdop>4.687</hdop><vdop>3.375</vdop><extensions><gom:speed>0.371</gom:speed><gom:course>313.746</gom:course><gom:rel_alt>6.061</gom:rel_alt></extensions></trkpt>
   <trkpt lat="59.3573051899" lon="34.6575277332"><ele>164.208</ele><time>2026-08-14T02:24:22.000Z</time><hdop>4.687</hdop><vdop>3.375</vdop><extensions><gom:speed>0.528</gom:speed><gom:course>281.347</gom:course><gom:rel_alt>6.246</gom:rel_alt></extensions></trkpt>
   <trkpt lat="59.3572434991" lon="34.6573823072"><ele>164.22</ele><time>2026-08-14T02:24:35.999Z</time><hdop>4.687</hdop><vdop>3.375</vdop><extensions><gom:speed>0.0</gom:speed><gom:rel_alt>6.283</gom:rel_alt></extensions></trkpt>
   <trkpt lat="59.3572234663" lon="34.6572067902"><ele>165.133</ele><time>2026-08-14T02:24:48.999Z</time><hdop>4.687</hdop><vdop>3.375</vdop><extensions><gom:speed>0.575</gom:speed><gom:course>193.972</gom:course><gom:rel_alt>6.293</gom:rel_alt></extensions></trkpt>
   <trkpt lat="59.3572236759" lon="34.6570135035"><ele>165.834</ele><time>2026-08-14T02:24:59.999Z</time><hdop>4.687</hdop><vdop>3.375</vdop><extensions><gom:speed>0.356</gom:speed><gom:course>290.312</gom:course></extensions></trkpt>
   <trkpt lat="59.357210181" lon="34.6568342984"><ele>164.428</ele><time>2026-08-14T02:25:14.998Z</time><hdop>4.687</hdop><vdop>3.375</vdop><extensions><gom:speed>1.179</gom:speed><gom:rel_alt>6.41</gom:rel_alt></extensions></trkpt>
   <trkpt lat="59.357185622" lon="34.6566592842"><ele>165.878</ele><time>2026-08-14T02:25:27.998Z</time><hdop>4.687</hdop><vdop>3.375</vdop><extensions><gom:speed>0.0</gom:speed><gom:course>161.907</gom:course><gom:rel_alt>6.301</gom:rel_alt></extensions></trkpt>
   <trkpt lat="59.3571417847" lon="34.6564937417"><ele>166.56</ele><time>2026-08-14T02:25:42.997Z</time><hdop>4.625</hdop><vdop>3.437</vdop><extensions><gom:speed>0.402</gom:speed><gom:course>246.427</gom:course><gom:rel_alt>6.381</gom:rel_alt></extensions></trkpt>
   <trkpt lat="59.3571435449" lon="34.6563044783"><ele>167.007</ele><time>2026-08-14T02:26:03.997Z</time><hdop>4.625</hdop><vdop>3.437</vdop><extensions><gom:speed>0.0</gom:speed><gom:course>222.267</gom:course></extensions></trkpt>
   <trkpt lat="59.3570818121" lon="34.6561716251"><ele>166.824</ele><time>2026-08-14T02:26:15.996Z</time><hdop>4.625</hdop><vdop>3.437</vdop><extensions><gom:speed>0.504</gom:speed><gom:course>199.811</gom:course><gom:rel_alt>6.457</gom:rel_alt></extensions></trkpt>
   <trkpt lat="59.357063833" lon="34.6559840381"><ele>162.117</ele><time>2026-08-14T02:26:29.000Z</time><hdop>4.625</hdop><vdop>3.437</vdop><extensions><gom:speed>0.556</gom:speed><gom:rel_alt>6.56</gom:rel_alt></extensions></trkpt>
   <trkpt lat="59.3570488294" lon="34.6558100298"><ele>165.652</ele><time>2026-08-14T02:26:38.000Z</time><hdop>4.625</hdop><vdop>3.437</vdop><extensions><gom:speed>0.575</gom:speed><gom:course>258.622</gom:course><gom:rel_alt>6.476</gom:rel_alt></extensions></trkpt>
   <trkpt lat="59.357008219" lon="34.6556466665"><ele>166.446</ele><time>2026-08-14T02:26:47.999Z</time><hdop>4.625</hdop><vdop>3.437</vdop><extensions><gom:speed>0.681</gom:speed><gom:course>215.857</gom:course><gom:rel_alt>6.494</gom:rel_alt></extensions></trkpt>
   <trkpt lat="59.3570076742" lon="34.6554676291"><ele>162.587</ele><time>2026-08-14T02:26:58.999Z</time><hdop>4.625</hdop><vdop>3.437</vdop><extensions><gom:speed>0.53</gom:speed><gom:course>287.675</gom:course><gom:rel_alt>6.558</gom:rel_alt></extensions></trkpt>
   <trkpt lat="59.3570259887" lon="34.6552900165"><ele>165.046</ele><time>2026-08-14T02:27:08.999Z</time><hdop>4.625</hdop><vdop>3.437</vdop><extensions><gom:speed>0.0</gom:speed><gom:rel_alt>6.523</gom:rel_alt></extensions></trkpt>
   <trkpt lat="59.3569749429" lon="34.6551383879"><ele>164.691</ele><time>2026-08-14T02:27:20.998Z</time><hdop>4.625</hdop><vdop>3.437</vdop><extensions><gom:speed>0.527</gom:speed><gom:course>197.432</gom:course><gom:rel_alt>6.74</gom:rel_alt></extensions></trkpt>
   <trkpt lat="59.3569715901" lon="34.654960021"><ele>164.286</ele><time>2026-08-14T02:27:33.998Z</time><hdop>4.687</hdop><vdop>3.375</vdop><extensions><gom:speed>0.458</gom:speed><gom:course>240.917</gom:course><gom:rel_alt>6.682</gom:rel_alt></extensions></trkpt>
   <trkpt lat="59.3569633339" lon="34.6547824923"><ele>163.415</ele><time>2026-08-14T02:27:51.997Z</time><hdop>4.625</hdop><vdop>3.437</vdop><extensions><gom:speed>0.0</gom:speed><gom:course>330.451</gom:course><gom:rel_alt>6.825</gom:rel_alt></extensions></trkpt>
   <trkpt lat="59.3570047825" lon="34.6546072267"><ele>166.508</ele><time>2026-08-14T02:28:02.997Z</time><hdop>4.625</hdop><vdop>3.437</vdop><extensions><gom:speed>0.462</gom:speed><gom:course>288.049</gom:course><gom:rel_alt>6.698</gom:rel_alt></extensions></trkpt>
   <trkpt lat="59.3570682754" lon="34.6544693444"><ele>165.327</ele><time>2026-08-14T02:28:16.996Z</time><hdop>4.625</hdop><vdop>3.437</vdop><extensions><gom:speed>0.422</gom:speed><gom:course>28.537</gom:course><gom:rel_alt>6.618</gom:rel_alt></extensions></trkpt>
   <trkpt lat="59.3571549023" lon="34.6543911412"><ele>166.432</ele><time>2026-08-14T02:28:34.000Z</time><hdop>4.687</hdop><vdop>3.375</vdop><extensions><gom:speed>0.0</gom:speed><gom:rel_alt>7.06</gom:rel_alt></extensions></trkpt>
   <trkpt lat="59.3571814311" lon="34.6542192284"><ele>163.862</ele><time>2026-08-14T02:28:48.000Z</time><hdop>4.625</hdop><vdop>3.437</vdop><extensions><gom:speed>0.312</gom:speed><gom:course>263.686</gom:course><gom:rel_alt>6.65</gom:rel_alt></extensions></trkpt>
   <trkpt lat="59.3571759828" lon="34.6540327311"><ele>162.952</ele><time>2026-08-14T02:29:03.999Z</time><hdop>4.625</hdop><vdop>3.437</vdop><extensions><gom:speed>0.528</gom:speed><gom:course>299.151</gom:course><gom:rel_alt>6.41</gom:rel_alt></extensions></trkpt>
   <trkpt lat="59.3571872565" lon="34.653846569"><ele>162.108</ele><time>2026-08-14T02:29:14.999Z</time><hdop>4.625</hdop><vdop>3.437</vdop><extensions><gom:speed>0.544</gom:speed><gom:course>278.359</gom:course></extensions></trkpt>
   <trkpt lat="59.3571720852" lon="34.6536654361"><ele>164.757</ele><time>2026-08-14T02:29:24.998Z</time><hdop>4.625</hdop><vdop>3.437</vdop><extensions><gom:speed>0.879</gom:speed><gom:rel_alt>6.658</gom:rel_alt></extensions></trkpt>
   <trkpt lat="59.3571423295" lon="34.6534848061"><ele>167.127</ele><time>2026-08-14T02:29:38.998Z</time><hdop>4.625</hdop><vdop>3.437</vdop><extensions><gom:speed>0.646</gom:speed><gom:rel_alt>6.547</gom:rel_alt></extensions></trkpt>
   <trkpt lat="59.3571714147" lon="34.6533062715"><ele>164.551</ele><time>2026-08-14T02:29:51.998Z</time><hdop>4.625</hdop><vdop>3.437</vdop><extensions><gom:speed>0.487</gom:speed><gom:course>256.737</gom:course><gom:rel_alt>6.336</gom:rel_alt></extensions></trkpt>
   <trkpt lat="59.3571283736" lon="34.6531441655"><ele>165.387</ele><time>2026-08-14T02:30:02.997Z</time><hdop>4.625</hdop><vdop>3.437</vdop><extensions><gom:speed>0.534</gom:speed><gom:course>243.422</gom:course></extensions></trkpt>
   <trkpt lat="59.3571398987" lon="34.6529482804"><ele>164.97</ele><time>2026-08-14T02:30:15.997Z</time><hdop>4.625</hdop><vdop>3.437</vdop><extensions><gom:speed>0.0</gom:speed><gom:course>257.232</gom:course><gom:rel_alt>6.497</gom:rel_alt></extensions></trkpt>
   <trkpt lat="59.3571340733" lon="34.652755329"><ele>166.127</ele><time>2026-08-14T02:30:27.996Z</time><hdop>4.625</hdop><vdop>3.437</vdop><extensions><gom:speed>0.371</gom:speed><gom:course>283.259</gom:course><gom:rel_alt>6.447</gom:rel_alt></extensions></trkpt>
   <trkpt lat="59.3571505018" lon="34.6525803987"><ele>165.567</ele><time>2026-08-14T02:30:40.000Z</time><hdop>4.625</hdop><vdop>3.437</vdop><extensions><gom:speed>0.0</gom:speed><gom:course>319.849</gom:course><gom:rel_alt>6.404</gom:rel_alt></extensions></trkpt>
   <trkpt lat="59.3571303434" lon="34.6523939014"><ele>163.679</ele><time>2026-08-14T02:30:50.000Z</time><hdop>4.625</hdop><vdop>3.5</vdop><extensions><gom:speed>1.331</gom:speed><gom:rel_alt>6.513</gom:rel_alt></extensions></trkpt>
   <trkpt lat="59.3570785851" lon="34.652235651"><ele>164.894</ele><time>2026-08-14T02:31:01.999Z</time><hdop>4.625</hdop><vdop>3.437</vdop><extensions><gom:speed>0.653</gom:speed><gom:course>263.461</gom:course><gom:rel_alt>6.798</gom:rel_alt></extensions></trkpt>
   <trkpt lat="59.3570336581" lon="34.6520761434"><ele>164.701</ele><time>2026-08-14T02:31:14.999Z</time><hdop>4.625</hdop><vdop>3.437</vdop><extensions><gom:speed>0.0</gom:speed><gom:course>201.975</gom:course><gom:rel_alt>6.597</gom:rel_alt></extensions></trkpt>
   <trkpt lat="59.3569439717" lon="34.6520986907"><ele>167.271</ele><time>2026-08-14T02:41:09.999Z</time><hdop>4.625</hdop><vdop>3.437</vdop><extensions><gom:speed>0.0</gom:speed><gom:course>71.796</gom:course><gom:rel_alt>6.571</gom:rel_alt></extensions></trkpt>
   <trkpt lat="59.3569037805" lon="34.65226482"><ele>167.252</ele><time>2026-08-14T02:41:21.999Z</time><hdop>4.687</hdop><vdop>3.375</vdop><extensions><gom:speed>0.0</gom:speed><gom:rel_alt>6.663</gom:rel_alt></extensions></trkpt>
   <trkpt lat="59.3568705882" lon="34.6524401695"><ele>166.611</ele><time>2026-08-14T02:41:34.999Z</time><hdop>4.687</hdop><vdop>3.437</vdop><extensions><gom:speed>0.858</gom:speed><gom:course>95.631</gom:course><gom:rel_alt>6.64</gom:rel_alt></extensions></trkpt>
   <trkpt lat="59.3568579734" lon="34.6526363898"><ele>166.036</ele><time>2026-08-14T02:41:47.998Z</time><hdop>4.687</hdop><vdop>3.375</vdop><extensions><gom:speed>0.735</gom:speed><gom:course>71.329</gom:course><gom:rel_alt>6.632</gom:rel_alt></extensions></trkpt>
   <trkpt lat="59.3568265832" lon="34.6528080512"><ele>167.248</ele><time>2026-08-14T02:42:04.998Z</time><hdop>4.625</hdop><vdop>3.437</vdop><extensions><gom:speed>0.442</gom:speed><gom:course>59.958</gom:course><gom:rel_alt>6.851</gom:rel_alt></extensions></trkpt>
   <trkpt lat="59.3567991325" lon="34.6529849932"><ele>165.764</ele><time>2026-08-14T02:42:16.997Z</time><hdop>4.625</hdop><vdop>3.437</vdop><extensions><gom:speed>0.521</gom:speed><gom:rel_alt>6.951</gom:rel_alt></extensions></trkpt>
   <trkpt lat="59.3567358072" lon="34.653125893"><ele>166.1</ele><time>2026-08-14T02:42:27.997Z</time><hdop>4.625</hdop><vdop>3.437</vdop><extensions><gom:speed>0.0</gom:speed><gom:course>86.743</gom:course><gom:rel_alt>7.02</gom:rel_alt></extensions></trkpt>
   <trkpt lat="59.3567189176" lon="34.6533021644"><ele>166.814</ele><time>2026-08-14T02:42:37.997Z</time><hdop>4.625</hdop><vdop>3.437</vdop><extensions><gom:speed>0.516</gom:speed><gom:course>96.983</gom:course><gom:rel_alt>6.98</gom:rel_alt></extensions></trkpt>
   <trkpt lat="59.3567032016" lon="34.6534787711"><ele>166.098</ele><time>2026-08-14T02:42:45.996Z</time><hdop>4.625</hdop><vdop>3.437</vdop><extensions><gom:speed>0.432</gom:speed><gom:course>83.321</gom:course><gom:rel_alt>6.928</gom:rel_alt></extensions></trkpt>
   <trkpt lat="59.3566764214" lon="34.6536516059"><ele>166.407</ele><time>2026-08-14T02:42:53.996Z</time><hdop>4.687</hdop><vdop>3.375</vdop><extensions><gom:speed>0.392</gom:speed><gom:course>82.854</gom:course><gom:rel_alt>6.856</gom:rel_alt></extensions></trkpt>
   <trkpt lat="59.3566480906" lon="34.6538239379"><ele>166.031</ele><time>2026-08-14T02:43:00.996Z</time><hdop>4.687</hdop><vdop>3.375</vdop><extensions><gom:speed>0.559</gom:speed><gom:course>105.124</gom:course><gom:rel_alt>6.793</gom:rel_alt></extensions></trkpt>
   <trkpt lat="59.3566272615" lon="34.6540113572"><ele>164.494</ele><time>2026-08-14T02:43:08.999Z</time><hdop>4.687</hdop><vdop>3.375</vdop><extensions><gom:speed>0.66</gom:speed><gom:course>85.183</gom:course><gom:rel_alt>6.827</gom:rel_alt></extensions></trkpt>
   <trkpt lat="59.3565949493" lon="34.6541992795"><ele>166.038</ele><time>2026-08-14T02:43:15.999Z</time><hdop>4.687</hdop><vdop>3.375</vdop><extensions><gom:speed>0.878</gom:speed><gom:course>101.476</gom:course><gom:rel_alt>6.901</gom:rel_alt></extensions></trkpt>
   <trkpt lat="59.356561296" lon="34.6543779817"><ele>162.36</ele><time>2026-08-14T02:43:24.999Z</time><hdop>4.687</hdop><vdop>3.375</vdop><extensions><gom:speed>0.841</gom:speed><gom:rel_alt>7.171</gom:rel_alt></extensions></trkpt>
   <trkpt lat="59.3565304506" lon="34.6545483019"><ele>163.347</ele><time>2026-08-14T02:43:31.999Z</time><hdop>4.687</hdop><vdop>3.375</vdop><extensions><gom:speed>0.84</gom:speed><gom:course>107.936</gom:course><gom:rel_alt>7.091</gom:rel_alt></extensions></trkpt>
   <trkpt lat="59.3564918519" lon="34.654735386"><ele>162.602</ele><time>2026-08-14T02:43:38.999Z</time><hdop>4.687</hdop><vdop>3.375</vdop><extensions><gom:speed>1.472</gom:speed><gom:course>93.088</gom:course><gom:rel_alt>7.152</gom:rel_alt></extensions></trkpt>
   <trkpt lat="59.3564515349" lon="34.6549064607"><ele>161.302</ele><time>2026-08-14T02:43:45.998Z</time><hdop>4.687</hdop><vdop>3.375</vdop><extensions><gom:speed>1.439</gom:speed><gom:course>102.97</gom:course><gom:rel_alt>7.041</gom:rel_alt></extensions></trkpt>
   <trkpt lat="59.3564251319" lon="34.6550994959"><ele>166.711</ele><time>2026-08-14T02:43:55.998Z</time><hdop>4.687</hdop><vdop>3.375</vdop><extensions><gom:speed>0.831</gom:speed><gom:course>72.428</gom:course><gom:rel_alt>7.115</gom:rel_alt></extensions></trkpt>
   <trkpt lat="59.3564077395" lon="34.6552882563"><ele>165.653</ele><time>2026-08-14T02:44:04.998Z</time><hdop>4.687</hdop><vdop>3.375</vdop><extensions><gom:speed>0.71</gom:speed><gom:course>95.186</gom:course><gom:rel_alt>6.999</gom:rel_alt></extensions></trkpt>
   <trkpt lat="59.3563978908" lon="34.6554812916"><ele>165.727</ele><time>2026-08-14T02:44:13.998Z</time><hdop>4.687</hdop><vdop>3.375</vdop><extensions><gom:speed>0.55</gom:speed><gom:course>85.018</gom:course><gom:rel_alt>6.98</gom:rel_alt></extensions></trkpt>
   <trkpt lat="59.3563826357" lon="34.6556595747"><ele>166.216</ele><time>2026-08-14T02:44:21.997Z</time><hdop>4.687</hdop><vdop>3.375</vdop><extensions><gom:speed>0.471</gom:speed><gom:course>90.166</gom:course><gom:rel_alt>7.017</gom:rel_alt></extensions></trkpt>
   <trkpt lat="59.3563657881" lon="34.655843306"><ele>167.824</ele><time>2026-08-14T02:44:41.997Z</time><hdop>4.687</hdop><vdop>3.375</vdop><extensions><gom:speed>0.66</gom:speed><gom:course>111.957</gom:course></extensions></trkpt>
   <trkpt lat="59.3563322185" lon="34.6560140453"><ele>162.746</ele><time>2026-08-14T02:44:51.996Z</time><hdop>4.687</hdop><vdop>3.375</vdop><extensions><gom:speed>0.964</gom:speed><gom:rel_alt>6.959</gom:rel_alt></extensions></trkpt>
   <trkpt lat="59.3562754731" lon="34.6561531849"><ele>162.724</ele><time>2026-08-14T02:44:58.996Z</time><hdop>4.687</hdop><vdop>3.375</vdop><extensions><gom:speed>0.504</gom:speed><gom:course>123.993</gom:course><gom:rel_alt>6.912</gom:rel_alt></extensions></trkpt>
   <trkpt lat="59.3562214098" lon="34.6563239243"><ele>163.776</ele><time>2026-08-14T02:45:07.996Z</time><hdop>4.625</hdop><vdop>3.437</vdop><extensions><gom:speed>0.81</gom:speed><gom:course>120.131</gom:course><gom:rel_alt>6.901</gom:rel_alt></extensions></trkpt>
   <trkpt lat="59.3561610182" lon="34.6564573642"><ele>168.143</ele><time>2026-08-14T02:45:21.999Z</time><hdop>4.687</hdop><vdop>3.375</vdop><extensions><gom:speed>0.0</gom:speed><gom:course>121.104</gom:course><gom:rel_alt>6.907</gom:rel_alt></extensions></trkpt>
   <trkpt lat="59.3561142471" lon="34.656614944"><ele>165.599</ele><time>2026-08-14T02:45:34.999Z</time><hdop>4.687</hdop><vdop>3.375</vdop><extensions><gom:speed>0.429</gom:speed><gom:course>119.434</gom:course><gom:rel_alt>7.076</gom:rel_alt></extensions></trkpt>
   <trkpt lat="59.3560774506" lon="34.656782582"><ele>165.957</ele><time>2026-08-14T02:45:43.999Z</time><hdop>4.687</hdop><vdop>3.375</vdop><extensions><gom:speed>0.669</gom:speed><gom:course>86.875</gom:course><gom:rel_alt>6.973</gom:rel_alt></extensions></trkpt>
   <trkpt lat="59.3560390196" lon="34.6569600269"><ele>168.498</ele><time>2026-08-14T02:45:52.999Z</time><hdop>4.687</hdop><vdop>3.375</vdop><extensions><gom:speed>0.599</gom:speed><gom:course>101.993</gom:course><gom:rel_alt>7.052</gom:rel_alt></extensions></trkpt>
   <trkpt lat="59.3560002952" lon="34.6571342029"><ele>165.549</ele><time>2026-08-14T02:46:02.998Z</time><hdop>4.625</hdop><vdop>3.437</vdop><extensions><gom:speed>0.688</gom:speed><gom:rel_alt>7.065</gom:rel_alt></extensions></trkpt>
   <trkpt lat="59.3560025164" lon="34.6573113125"><ele>165.373</ele><time>2026-08-14T02:48:50.997Z</time><hdop>4.687</hdop><vdop>3.375</vdop><extensions><gom:speed>0.0</gom:speed><gom:rel_alt>7.213</gom:rel_alt></extensions></trkpt>
   <trkpt lat="59.3559484112" lon="34.6574574929"><ele>165.017</ele><time>2026-08-14T02:50:34.998Z</time><hdop>4.687</hdop><vdop>3.375</vdop><extensions><gom:speed>0.0</gom:speed><gom:course>84.804</gom:course><gom:rel_alt>7.004</gom:rel_alt></extensions></trkpt>
   <trkpt lat="59.3559373052" lon="34.6576349378"><ele>166.09</ele><time>2026-08-14T02:50:46.997Z</time><hdop>4.687</hdop><vdop>3.375</vdop><extensions><gom:speed>0.0</gom:speed><gom:rel_alt>6.883</gom:rel_alt></extensions></trkpt>
   <trkpt lat="59.3559223435" lon="34.6578163222"><ele>166.334</ele><time>2026-08-14T02:50:57.997Z</time><hdop>4.687</hdop><vdop>3.375</vdop><extensions><gom:speed>0.0</gom:speed><gom:course>54.981</gom:course><gom:rel_alt>7.113</gom:rel_alt></extensions></trkpt>
   <trkpt lat="59.3559069627" lon="34.6579955272"><ele>166.557</ele><time>2026-08-14T02:51:08.997Z</time><hdop>4.687</hdop><vdop>3.375</vdop><extensions><gom:speed>0.475</gom:speed><gom:course>78.872</gom:course><gom:rel_alt>7.652</gom:rel_alt></extensions></trkpt>
   <trkpt lat="59.3559010115" lon="34.6581720501"><ele>164.809</ele><time>2026-08-14T02:51:21.996Z</time><hdop>4.687</hdop><vdop>3.375</vdop><extensions><gom:speed>0.428</gom:speed><gom:course>119.675</gom:course></extensions></trkpt>
   <trkpt lat="59.3558981617" lon="34.6583487406"><ele>163.582</ele><time>2026-08-14T02:51:39.000Z</time><hdop>4.687</hdop><vdop>3.375</vdop><extensions><gom:speed>0.0</gom:speed><gom:rel_alt>6.957</gom:rel_alt></extensions></trkpt>
   <trkpt lat="59.355850762" lon="34.6585154567"><ele>164.873</ele><time>2026-08-14T02:51:50.999Z</time><hdop>4.625</hdop><vdop>3.437</vdop><extensions><gom:speed>0.568</gom:speed><gom:course>64.21</gom:course><gom:rel_alt>6.951</gom:rel_alt></extensions></trkpt>
   <trkpt lat="59.3558326152" lon="34.6586990204"><ele>166.686</ele><time>2026-08-14T02:52:00.999Z</time><hdop>4.687</hdop><vdop>3.375</vdop><extensions><gom:speed>0.6</gom:speed><gom:course>96.527</gom:course><gom:rel_alt>7.287</gom:rel_alt></extensions></trkpt>
   <trkpt lat="59.3557951062" lon="34.6588702627"><ele>164.982</ele><time>2026-08-14T02:52:12.999Z</time><hdop>4.687</hdop><vdop>3.375</vdop><extensions><gom:speed>1.01</gom:speed><gom:rel_alt>7.43</gom:rel_alt></extensions></trkpt>
   <trkpt lat="59.355722016" lon="34.6589938119"><ele>166.614</ele><time>2026-08-14T02:52:27.998Z</time><hdop>4.625</hdop><vdop>3.437</vdop><extensions><gom:speed>0.384</gom:speed><gom:course>163.045</gom:course><gom:rel_alt>8.381</gom:rel_alt></extensions></trkpt>
   <trkpt lat="59.3556627559" lon="34.6591342926"><ele>169.044</ele><time>2026-08-14T02:52:39.998Z</time><hdop>4.687</hdop><vdop>3.437</vdop><extensions><gom:speed>0.63</gom:speed><gom:rel_alt>8.608</gom:rel_alt></extensions></trkpt>
   <trkpt lat="59.3555995564" lon="34.6592712529"><ele>167.281</ele><time>2026-08-14T02:52:50.998Z</time><hdop>4.625</hdop><vdop>3.437</vdop><extensions><gom:speed>0.296</gom:speed><gom:course>169.219</gom:course><gom:rel_alt>8.082</gom:rel_alt></extensions></trkpt>
   <trkpt lat="59.3555427271" lon="34.6594081294"><ele>164.921</ele><time>2026-08-14T02:53:02.997Z</time><hdop>4.625</hdop><vdop>3.437</vdop><extensions><gom:speed>1.026</gom:speed><gom:rel_alt>7.06</gom:rel_alt></extensions></trkpt>
   <trkpt lat="59.3555324173" lon="34.6596033439"><ele>166.098</ele><time>2026-08-14T02:53:15.997Z</time><hdop>4.687</hdop><vdop>3.375</vdop><extensions><gom:speed>0.51</gom:speed><gom:course>76.795</gom:course><gom:rel_alt>6.851</gom:rel_alt></extensions></trkpt>
   <trkpt lat="59.3555088642" lon="34.659794116"><ele>164.709</ele><time>2026-08-14T02:53:27.996Z</time><hdop>4.687</hdop><vdop>3.375</vdop><extensions><gom:speed>0.413</gom:speed><gom:course>105.783</gom:course><gom:rel_alt>7.073</gom:rel_alt></extensions></trkpt>
   <trkpt lat="59.3555020748" lon="34.6599718962"><ele>163.03</ele><time>2026-08-14T02:53:37.000Z</time><hdop>4.687</hdop><vdop>3.375</vdop><extensions><gom:speed>0.456</gom:speed><gom:course>83.524</gom:course><gom:rel_alt>7.52</gom:rel_alt></extensions></trkpt>
   <trkpt lat="59.3554958303" lon="34.6601658534"><ele>166.555</ele><time>2026-08-14T02:53:46.000Z</time><hdop>4.687</hdop><vdop>3.375</vdop><extensions><gom:speed>0.0</gom:speed><gom:course>56.19</gom:course><gom:rel_alt>7.004</gom:rel_alt></extensions></trkpt>
   <trkpt lat="59.3554975067" lon="34.6603448071"><ele>167.095</ele><time>2026-08-14T02:53:54.000Z</time><hdop>4.687</hdop><vdop>3.375</vdop><extensions><gom:speed>0.564</gom:speed><gom:course>129.129</gom:course><gom:rel_alt>6.856</gom:rel_alt></extensions></trkpt>
   <trkpt lat="59.3554685891" lon="34.6605242636"><ele>166.272</ele><time>2026-08-14T02:54:02.999Z</time><hdop>4.687</hdop><vdop>3.375</vdop><extensions><gom:speed>0.416</gom:speed><gom:course>106.003</gom:course><gom:rel_alt>7.382</gom:rel_alt></extensions></trkpt>
   <trkpt lat="59.3555100377" lon="34.6607009541"><ele>167.149</ele><time>2026-08-14T02:54:12.999Z</time><hdop>4.687</hdop><vdop>3.375</vdop><extensions><gom:speed>0.547</gom:speed><gom:course>42.572</gom:course><gom:rel_alt>7.126</gom:rel_alt></extensions></trkpt>
   <trkpt lat="59.3555484687" lon="34.6608797401"><ele>167.54</ele><time>2026-08-14T02:54:21.999Z</time><hdop>4.687</hdop><vdop>3.375</vdop><extensions><gom:speed>0.73</gom:speed><gom:course>70.247</gom:course><gom:rel_alt>6.951</gom:rel_alt></extensions></trkpt>
   <trkpt lat="59.3555736563" lon="34.6610636391"><ele>165.838</ele><time>2026-08-14T02:54:31.998Z</time><hdop>4.687</hdop><vdop>3.375</vdop><extensions><gom:speed>0.64</gom:speed><gom:rel_alt>6.965</gom:rel_alt></extensions></trkpt>
   <trkpt lat="59.3555926832" lon="34.6612659782"><ele>170.24</ele><time>2026-08-14T02:54:41.998Z</time><hdop>4.687</hdop><vdop>3.375</vdop><extensions><gom:speed>0.876</gom:speed><gom:course>61.925</gom:course><gom:rel_alt>6.899</gom:rel_alt></extensions></trkpt>
   <trkpt lat="59.3555944015" lon="34.6614457701"><ele>167.559</ele><time>2026-08-14T02:54:49.998Z</time><hdop>4.687</hdop><vdop>3.375</vdop><extensions><gom:speed>0.529</gom:speed><gom:course>82.173</gom:course><gom:rel_alt>6.848</gom:rel_alt></extensions></trkpt>
   <trkpt lat="59.3556074354" lon="34.6616258133"><ele>168.283</ele><time>2026-08-14T02:54:58.998Z</time><hdop>4.687</hdop><vdop>3.375</vdop><extensions><gom:speed>0.581</gom:speed><gom:course>74.664</gom:course><gom:rel_alt>6.885</gom:rel_alt></extensions></trkpt>
   <trkpt lat="59.3555737401" lon="34.6617933676"><ele>165.47</ele><time>2026-08-14T02:55:07.997Z</time><hdop>4.687</hdop><vdop>3.437</vdop><extensions><gom:speed>0.825</gom:speed><gom:rel_alt>6.909</gom:rel_alt></extensions></trkpt>
   <trkpt lat="59.3555262147" lon="34.6619461697"><ele>163.902</ele><time>2026-08-14T02:55:19.997Z</time><hdop>4.687</hdop><vdop>3.375</vdop><extensions><gom:speed>0.705</gom:speed><gom:rel_alt>6.991</gom:rel_alt></extensions></trkpt>
   <trkpt lat="59.3554861073" lon="34.6621073537"><ele>161.22</ele><time>2026-08-14T02:55:29.997Z</time><hdop>4.625</hdop><vdop>3.437</vdop><extensions><gom:speed>0.749</gom:speed><gom:rel_alt>7.115</gom:rel_alt></extensions></trkpt>
   <trkpt lat="59.3554185073" lon="34.6622377761"><ele>163.448</ele><time>2026-08-14T02:55:40.000Z</time><hdop>4.687</hdop><vdop>3.437</vdop><extensions><gom:speed>0.587</gom:speed><gom:course>157.084</gom:course><gom:rel_alt>7.076</gom:rel_alt></extensions></trkpt>
   <trkpt lat="59.3553447884" lon="34.6623674441"><ele>163.547</ele><time>2026-08-14T02:55:50.000Z</time><hdop>4.687</hdop><vdop>3.437</vdop><extensions><gom:speed>0.598</gom:speed><gom:course>143.489</gom:course><gom:rel_alt>6.951</gom:rel_alt></extensions></trkpt>
   <trkpt lat="59.3552793258" lon="34.6625096012"><ele>159.843</ele><time>2026-08-14T02:56:00.000Z</time><hdop>4.687</hdop><vdop>3.375</vdop><extensions><gom:speed>0.497</gom:speed><gom:course>125.669</gom:course><gom:rel_alt>6.848</gom:rel_alt></extensions></trkpt>
   <trkpt lat="59.3551997815" lon="34.6626173925"><ele>159.625</ele><time>2026-08-14T02:56:08.999Z</time><hdop>4.625</hdop><vdop>3.437</vdop><extensions><gom:speed>0.636</gom:speed><gom:course>153.739</gom:course></extensions></trkpt>
   <trkpt lat="59.3551223746" lon="34.6627411094"><ele>162.356</ele><time>2026-08-14T02:56:17.999Z</time><hdop>4.687</hdop><vdop>3.437</vdop><extensions><gom:speed>0.687</gom:speed><gom:course>152.849</gom:course><gom:rel_alt>6.946</gom:rel_alt></extensions></trkpt>
   <trkpt lat="59.3550446325" lon="34.6628383394"><ele>162.968</ele><time>2026-08-14T02:56:26.999Z</time><hdop>4.625</hdop><vdop>3.437</vdop><extensions><gom:speed>0.724</gom:speed><gom:course>148.938</gom:course><gom:rel_alt>7.041</gom:rel_alt></extensions></trkpt>
   <trkpt lat="59.3550049442" lon="34.6630138565"><ele>164.215</ele><time>2026-08-14T02:56:37.998Z</time><hdop>4.687</hdop><vdop>3.375</vdop><extensions><gom:speed>0.554</gom:speed><gom:course>98.543</gom:course><gom:rel_alt>6.983</gom:rel_alt></extensions></trkpt>
   <trkpt lat="59.3549955145" lon="34.6631954923"><ele>166.8</ele><time>2026-08-14T02:56:47.998Z</time><hdop>4.687</hdop><vdop>3.375</vdop><extensions><gom:speed>0.497</gom:speed><gom:course>88.655</gom:course><gom:rel_alt>7.11</gom:rel_alt></extensions></trkpt>
   <trkpt lat="59.3549665131" lon="34.6633712608"><ele>167.737</ele><time>2026-08-14T02:57:04.998Z</time><hdop>4.687</hdop><vdop>3.375</vdop><extensions><gom:speed>0.368</gom:speed><gom:course>94.961</gom:course><gom:rel_alt>8.217</gom:rel_alt></extensions></trkpt>
   <trkpt lat="59.3549288365" lon="34.6635435928"><ele>163.838</ele><time>2026-08-14T02:57:18.997Z</time><hdop>4.687</hdop><vdop>3.375</vdop><extensions><gom:speed>0.952</gom:speed><gom:rel_alt>7.652</gom:rel_alt></extensions></trkpt>
   <trkpt lat="59.354875821" lon="34.6636955567"><ele>165.676</ele><time>2026-08-14T02:57:31.997Z</time><hdop>4.625</hdop><vdop>3.437</vdop><extensions><gom:speed>0.553</gom:speed><gom:course>120.28</gom:course><gom:rel_alt>7.176</gom:rel_alt></extensions></trkpt>
   <trkpt lat="59.3548015573" lon="34.6638186868"><ele>164.845</ele><time>2026-08-14T02:57:43.996Z</time><hdop>4.625</hdop><vdop>3.437</vdop><extensions><gom:speed>1.025</gom:speed><gom:course>170.488</gom:course><gom:rel_alt>6.999</gom:rel_alt></extensions></trkpt>
   <trkpt lat="59.3547633777" lon="34.6639826369"><ele>166.42</ele><time>2026-08-14T02:57:58.000Z</time><hdop>4.625</hdop><vdop>3.437</vdop><extensions><gom:speed>0.0</gom:speed><gom:course>155.013</gom:course><gom:rel_alt>6.822</gom:rel_alt></extensions></trkpt>
   <trkpt lat="59.3547664371" lon="34.6641714811"><ele>165.843</ele><time>2026-08-14T02:58:10.000Z</time><hdop>4.687</hdop><vdop>3.375</vdop><extensions><gom:speed>0.0</gom:speed><gom:course>55.284</gom:course><gom:rel_alt>6.56</gom:rel_alt></extensions></trkpt>
   <trkpt lat="59.3547117452" lon="34.6643121295"><ele>168.657</ele><time>2026-08-14T02:58:40.998Z</time><hdop>4.687</hdop><vdop>3.375</vdop><extensions><gom:speed>0.0</gom:speed><gom:course>43.676</gom:course><gom:rel_alt>6.6</gom:rel_alt></extensions></trkpt>
   <trkpt lat="59.3546332068" lon="34.6644230221"><ele>166.089</ele><time>2026-08-14T02:58:58.997Z</time><hdop>4.687</hdop><vdop>3.437</vdop><extensions><gom:speed>0.0</gom:speed><gom:rel_alt>6.711</gom:rel_alt></extensions></trkpt>
   <trkpt lat="59.3545740305" lon="34.6645617426"><ele>163.576</ele><time>2026-08-14T02:59:09.997Z</time><hdop>4.625</hdop><vdop>3.437</vdop><extensions><gom:speed>0.348</gom:speed><gom:course>119.516</gom:course><gom:rel_alt>6.885</gom:rel_alt></extensions></trkpt>
   <trkpt lat="59.354496917" lon="34.6646640018"><ele>164.792</ele><time>2026-08-14T02:59:20.996Z</time><hdop>4.625</hdop><vdop>3.5</vdop><extensions><gom:speed>0.427</gom:speed><gom:course>189.17</gom:course><gom:rel_alt>6.582</gom:rel_alt></extensions></trkpt>
   <trkpt lat="59.354420516" lon="34.6647589687"><ele>165.358</ele><time>2026-08-14T02:59:32.996Z</time><hdop>4.625</hdop><vdop>3.5</vdop><extensions><gom:speed>0.0</gom:speed><gom:course>125.174</gom:course><gom:rel_alt>6.381</gom:rel_alt></extensions></trkpt>
   <trkpt lat="59.3543291532" lon="34.6647914905"><ele>166.971</ele><time>2026-08-14T02:59:55.999Z</time><hdop>4.687</hdop><vdop>3.375</vdop><extensions><gom:speed>0.0</gom:speed><gom:course>149.487</gom:course><gom:rel_alt>6.278</gom:rel_alt></extensions></trkpt>
   <trkpt lat="59.3542858188" lon="34.6649533451"><ele>164.593</ele><time>2026-08-14T03:02:44.998Z</time><hdop>4.625</hdop><vdop>3.437</vdop><extensions><gom:speed>0.374</gom:speed><gom:course>120.401</gom:course><gom:rel_alt>6.288</gom:rel_alt></extensions></trkpt>
   <trkpt lat="59.354278317" lon="34.665134478"><ele>165.552</ele><time>2026-08-14T03:03:00.998Z</time><hdop>4.625</hdop><vdop>3.437</vdop><extensions><gom:speed>0.0</gom:speed><gom:course>93.956</gom:course><gom:rel_alt>6.391</gom:rel_alt></extensions></trkpt>
   <trkpt lat="59.3542245471" lon="34.6652794011"><ele>164.501</ele><time>2026-08-14T03:03:17.997Z</time><hdop>4.625</hdop><vdop>3.437</vdop><extensions><gom:speed>0.0</gom:speed><gom:course>71.774</gom:course><gom:rel_alt>6.378</gom:rel_alt></extensions></trkpt>
   <trkpt lat="59.354196803" lon="34.6654487155"><ele>165.039</ele><time>2026-08-14T03:03:30.997Z</time><hdop>4.625</hdop><vdop>3.437</vdop><extensions><gom:speed>0.438</gom:speed><gom:course>154.7</gom:course><gom:rel_alt>6.592</gom:rel_alt></extensions></trkpt>
   <trkpt lat="59.3541694361" lon="34.6656212151"><ele>167.809</ele><time>2026-08-14T03:03:43.996Z</time><hdop>4.625</hdop><vdop>3.437</vdop><extensions><gom:speed>0.0</gom:speed><gom:course>53.366</gom:course><gom:rel_alt>6.819</gom:rel_alt></extensions></trkpt>
   <trkpt lat="59.3541502834" lon="34.6657944691"><ele>165.461</ele><time>2026-08-14T03:03:52.996Z</time><hdop>4.625</hdop><vdop>3.437</vdop><extensions><gom:speed>0.414</gom:speed><gom:course>108.085</gom:course><gom:rel_alt>6.719</gom:rel_alt></extensions></trkpt>
   <trkpt lat="59.354130544" lon="34.6659835648"><ele>166.405</ele><time>2026-08-14T03:04:06.999Z</time><hdop>4.687</hdop><vdop>3.437</vdop><extensions><gom:speed>0.515</gom:speed><gom:course>131.931</gom:course><gom:rel_alt>5.995</gom:rel_alt></extensions></trkpt>
   <trkpt lat="59.354086539" lon="34.6661512867"><ele>166.511</ele><time>2026-08-14T03:04:18.999Z</time><hdop>4.687</hdop><vdop>3.375</vdop><extensions><gom:speed>0.0</gom:speed><gom:course>162.188</gom:course><gom:rel_alt>6.008</gom:rel_alt></extensions></trkpt>
   <trkpt lat="59.3539937933" lon="34.6661790308"><ele>167.416</ele><time>2026-08-14T03:04:30.999Z</time><hdop>4.687</hdop><vdop>3.437</vdop><extensions><gom:speed>0.737</gom:speed><gom:course>167.593</gom:course><gom:rel_alt>5.908</gom:rel_alt></extensions></trkpt>
   <trkpt lat="59.3539044003" lon="34.6662139833"><ele>165.327</ele><time>2026-08-14T03:04:41.998Z</time><hdop>4.625</hdop><vdop>3.437</vdop><extensions><gom:speed>0.491</gom:speed><gom:course>152.421</gom:course><gom:rel_alt>5.844</gom:rel_alt></extensions></trkpt>
   <trkpt lat="59.3538136662" lon="34.6662083674"><ele>166.411</ele><time>2026-08-14T03:04:52.998Z</time><hdop>4.625</hdop><vdop>3.437</vdop><extensions><gom:speed>0.0</gom:speed><gom:course>129.679</gom:course><gom:rel_alt>5.784</gom:rel_alt></extensions></trkpt>
   <trkpt lat="59.3537210042" lon="34.6662410569"><ele>166.364</ele><time>2026-08-14T03:05:04.998Z</time><hdop>4.687</hdop><vdop>3.437</vdop><extensions><gom:speed>0.0</gom:speed><gom:course>191.835</gom:course><gom:rel_alt>5.657</gom:rel_alt></extensions></trkpt>
   <trkpt lat="59.3536307311" lon="34.6662603352"><ele>164.657</ele><time>2026-08-14T03:05:21.997Z</time><hdop>4.625</hdop><vdop>3.437</vdop><extensions><gom:speed>0.0</gom:speed><gom:course>179.376</gom:course><gom:rel_alt>5.221</gom:rel_alt></extensions></trkpt>
   <trkpt lat="59.3535411286" lon="34.666245164"><ele>164.725</ele><time>2026-08-14T03:05:32.997Z</time><hdop>4.625</hdop><vdop>3.437</vdop><extensions><gom:speed>0.547</gom:speed><gom:course>202.041</gom:course><gom:rel_alt>5.464</gom:rel_alt></extensions></trkpt>
   <trkpt lat="59.3534494306" lon="34.666233094"><ele>165.747</ele><time>2026-08-14T03:05:40.997Z</time><hdop>4.625</hdop><vdop>3.437</vdop><extensions><gom:speed>0.865</gom:speed><gom:course>190.22</gom:course><gom:rel_alt>5.572</gom:rel_alt></extensions></trkpt>
   <trkpt lat="59.3533576487" lon="34.666215073"><ele>168.346</ele><time>2026-08-14T03:05:50.996Z</time><hdop>4.625</hdop><vdop>3.437</vdop><extensions><gom:speed>0.445</gom:speed><gom:course>161.078</gom:course><gom:rel_alt>5.596</gom:rel_alt></extensions></trkpt>
   <trkpt lat="59.3532669985" lon="34.6662284002"><ele>167.054</ele><time>2026-08-14T03:05:59.996Z</time><hdop>4.625</hdop><vdop>3.437</vdop><extensions><gom:speed>0.583</gom:speed><gom:course>194.9</gom:course></extensions></trkpt>
   <trkpt lat="59.353171319" lon="34.6662094571"><ele>165.795</ele><time>2026-08-14T03:06:13.999Z</time><hdop>4.625</hdop><vdop>3.437</vdop><extensions><gom:speed>0.447</gom:speed><gom:course>215.807</gom:course><gom:rel_alt>5.665</gom:rel_alt></extensions></trkpt>
   <trkpt lat="59.3530802916" lon="34.6661744207"><ele>164.643</ele><time>2026-08-14T03:06:26.999Z</time><hdop>4.625</hdop><vdop>3.437</vdop><extensions><gom:speed>0.465</gom:speed><gom:course>179.733</gom:course><gom:rel_alt>5.897</gom:rel_alt></extensions></trkpt>
   <trkpt lat="59.3530211572" lon="34.666318338"><ele>167.673</ele><time>2026-08-14T03:06:39.999Z</time><hdop>4.625</hdop><vdop>3.437</vdop><extensions><gom:speed>0.346</gom:speed><gom:course>126.108</gom:course><gom:rel_alt>6.09</gom:rel_alt></extensions></trkpt>
   <trkpt lat="59.3529577901" lon="34.6664570585"><ele>166.58</ele><time>2026-08-14T03:06:49.998Z</time><hdop>4.625</hdop><vdop>3.5</vdop><extensions><gom:speed>0.848</gom:speed><gom:rel_alt>6.035</gom:rel_alt></extensions></trkpt>
   <trkpt lat="59.3528741806" lon="34.6665318251"><ele>165.881</ele><time>2026-08-14T03:06:59.998Z</time><hdop>4.625</hdop><vdop>3.5</vdop><extensions><gom:speed>0.881</gom:speed><gom:rel_alt>6.214</gom:rel_alt></extensions></trkpt>
   <trkpt lat="59.3527809738" lon="34.6665364351"><ele>165.334</ele><time>2026-08-14T03:07:10.998Z</time><hdop>4.625</hdop><vdop>3.5</vdop><extensions><gom:speed>0.636</gom:speed><gom:course>190.956</gom:course><gom:rel_alt>6.077</gom:rel_alt></extensions></trkpt>
   <trkpt lat="59.3526869289" lon="34.6665175758"><ele>164.315</ele><time>2026-08-14T03:07:24.997Z</time><hdop>4.625</hdop><vdop>3.437</vdop><extensions><gom:speed>0.0</gom:speed><gom:course>195.823</gom:course><gom:rel_alt>6.069</gom:rel_alt></extensions></trkpt>
   <trkpt lat="59.3526857135" lon="34.6666982897"><ele>165.671</ele><time>2026-08-14T03:07:38.997Z</time><hdop>4.687</hdop><vdop>3.375</vdop><extensions><gom:speed>0.534</gom:speed><gom:course>100.938</gom:course><gom:rel_alt>6.069</gom:rel_alt></extensions></trkpt>
   <trkpt lat="59.3526651359" lon="34.666872298"><ele>164.021</ele><time>2026-08-14T03:07:53.996Z</time><hdop>4.625</hdop><vdop>3.437</vdop><extensions><gom:speed>0.0</gom:speed><gom:course>156.612</gom:course><gom:rel_alt>6.069</gom:rel_alt></extensions></trkpt>
   <trkpt lat="59.3525912913" lon="34.6670073304"><ele>165.607</ele><time>2026-08-14T03:08:07.996Z</time><hdop>4.625</hdop><vdop>3.5</vdop><extensions><gom:speed>0.638</gom:speed></extensions></trkpt>
   <trkpt lat="59.3525434726" lon="34.6671567798"><ele>164.788</ele><time>2026-08-14T03:08:16.999Z</time><hdop>4.625</hdop><vdop>3.5</vdop><extensions><gom:speed>0.477</gom:speed><gom:course>84.65</gom:course><gom:rel_alt>6.175</gom:rel_alt></extensions></trkpt>
   <trkpt lat="59.3525731445" lon="34.6673399244"><ele>168.32</ele><time>2026-08-14T03:08:29.999Z</time><hdop>4.625</hdop><vdop>3.437</vdop><extensions><gom:speed>0.581</gom:speed><gom:rel_alt>6.256</gom:rel_alt></extensions></trkpt>
   <trkpt lat="59.3526428819" lon="34.6674756274"><ele>169.608</ele><time>2026-08-14T03:08:40.999Z</time><hdop>4.687</hdop><vdop>3.375</vdop><extensions><gom:speed>1.0</gom:speed><gom:rel_alt>6.375</gom:rel_alt></extensions></trkpt>
   <trkpt lat="59.3526317759" lon="34.6676603645"><ele>168.857</ele><time>2026-08-14T03:08:52.999Z</time><hdop>4.687</hdop><vdop>3.437</vdop><extensions><gom:speed>0.575</gom:speed><gom:course>112.584</gom:course><gom:rel_alt>6.669</gom:rel_alt></extensions></trkpt>
   <trkpt lat="59.3525747371" lon="34.6678067964"><ele>166.134</ele><time>2026-08-14T03:09:06.998Z</time><hdop>4.625</hdop><vdop>3.437</vdop><extensions><gom:speed>0.542</gom:speed><gom:course>99.779</gom:course><gom:rel_alt>6.589</gom:rel_alt></extensions></trkpt>
   <trkpt lat="59.3525546624" lon="34.6679794636"><ele>166.543</ele><time>2026-08-14T03:09:17.998Z</time><hdop>4.625</hdop><vdop>3.437</vdop><extensions><gom:speed>0.6</gom:speed><gom:course>80.585</gom:course><gom:rel_alt>6.375</gom:rel_alt></extensions></trkpt>
   <trkpt lat="59.3525399522" lon="34.6681563217"><ele>165.714</ele><time>2026-08-14T03:09:26.998Z</time><hdop>4.625</hdop><vdop>3.437</vdop><extensions><gom:speed>0.404</gom:speed><gom:course>52.812</gom:course><gom:rel_alt>6.172</gom:rel_alt></extensions></trkpt>
   <trkpt lat="59.3525430116" lon="34.6683406398"><ele>162.896</ele><time>2026-08-14T03:09:39.997Z</time><hdop>4.625</hdop><vdop>3.437</vdop><extensions><gom:speed>0.0</gom:speed><gom:course>56.618</gom:course><gom:rel_alt>6.428</gom:rel_alt></extensions></trkpt>
   <trkpt lat="59.3525486274" lon="34.6685498521"><ele>165.002</ele><time>2026-08-14T03:09:51.997Z</time><hdop>4.625</hdop><vdop>3.437</vdop><extensions><gom:speed>1.199</gom:speed><gom:course>75.191</gom:course><gom:rel_alt>6.468</gom:rel_alt></extensions></trkpt>
   <trkpt lat="59.352534462" lon="34.6687258721"><ele>163.682</ele><time>2026-08-14T03:10:04.996Z</time><hdop>4.687</hdop><vdop>3.375</vdop><extensions><gom:speed>0.502</gom:speed><gom:course>84.348</gom:course><gom:rel_alt>6.175</gom:rel_alt></extensions></trkpt>
   <trkpt lat="59.3525008506" lon="34.6688983716"><ele>165.054</ele><time>2026-08-14T03:10:14.996Z</time><hdop>4.625</hdop><vdop>3.437</vdop><extensions><gom:speed>0.626</gom:speed><gom:course>128.756</gom:course><gom:rel_alt>5.887</gom:rel_alt></extensions></trkpt>
   <trkpt lat="59.3524992999" lon="34.669077912"><ele>162.713</ele><time>2026-08-14T03:10:27.000Z</time><hdop>4.625</hdop><vdop>3.437</vdop><extensions><gom:speed>0.502</gom:speed><gom:course>82.772</gom:course><gom:rel_alt>6.214</gom:rel_alt></extensions></trkpt>
   <trkpt lat="59.3524861404" lon="34.6692584582"><ele>165.46</ele><time>2026-08-14T03:10:34.999Z</time><hdop>4.625</hdop><vdop>3.437</vdop><extensions><gom:speed>1.113</gom:speed><gom:rel_alt>6.587</gom:rel_alt></extensions></trkpt>
   <trkpt lat="59.3524519841" lon="34.6694255933"><ele>164.525</ele><time>2026-08-14T03:10:58.999Z</time><hdop>4.687</hdop><vdop>3.375</vdop><extensions><gom:speed>0.986</gom:speed><gom:rel_alt>6.928</gom:rel_alt></extensions></trkpt>
   <trkpt lat="59.352433041" lon="34.6696129289"><ele>165.716</ele><time>2026-08-14T03:11:17.998Z</time><hdop>4.687</hdop><vdop>3.437</vdop><extensions><gom:speed>0.0</gom:speed><gom:course>21.11</gom:course><gom:rel_alt>7.485</gom:rel_alt></extensions></trkpt>
   <trkpt lat="59.3524209711" lon="34.6698042877"><ele>167.216</ele><time>2026-08-14T03:11:32.998Z</time><hdop>4.625</hdop><vdop>3.437</vdop><extensions><gom:speed>0.592</gom:speed><gom:course>116.737</gom:course><gom:rel_alt>7.998</gom:rel_alt></extensions></trkpt>
   <trkpt lat="59.3523897066" lon="34.6699856721"><ele>167.713</ele><time>2026-08-14T03:11:44.997Z</time><hdop>4.625</hdop><vdop>3.437</vdop><extensions><gom:speed>0.0</gom:speed><gom:rel_alt>8.336</gom:rel_alt></extensions></trkpt>
   <trkpt lat="59.3523624654" lon="34.670162195"><ele>166.739</ele><time>2026-08-14T03:11:53.997Z</time><hdop>4.687</hdop><vdop>3.375</vdop><extensions><gom:speed>0.0</gom:speed><gom:rel_alt>8.508</gom:rel_alt></extensions></trkpt>
   <trkpt lat="59.352338535" lon="34.6703396399"><ele>162.903</ele><time>2026-08-14T03:12:03.997Z</time><hdop>4.625</hdop><vdop>3.437</vdop><extensions><gom:speed>0.568</gom:speed><gom:course>92.704</gom:course><gom:rel_alt>8.685</gom:rel_alt></extensions></trkpt>
   <trkpt lat="59.3523205559" lon="34.6705150731"><ele>166.527</ele><time>2026-08-14T03:12:11.996Z</time><hdop>4.625</hdop><vdop>3.437</vdop><extensions><gom:speed>0.601</gom:speed><gom:course>99.378</gom:course><gom:rel_alt>8.658</gom:rel_alt></extensions></trkpt>
   <trkpt lat="59.3522706416" lon="34.6706659474"><ele>166.502</ele><time>2026-08-14T03:12:21.996Z</time><hdop>4.625</hdop><vdop>3.437</vdop><extensions><gom:speed>0.779</gom:speed><gom:rel_alt>8.672</gom:rel_alt></extensions></trkpt>
   <trkpt lat="59.3522346833" lon="34.6708599046"><ele>165.731</ele><time>2026-08-14T03:12:33.000Z</time><hdop>4.625</hdop><vdop>3.437</vdop><extensions><gom:speed>0.695</gom:speed><gom:course>94.225</gom:course><gom:rel_alt>8.465</gom:rel_alt></extensions></trkpt>
   <trkpt lat="59.3521913488" lon="34.6710298896"><ele>162.295</ele><time>2026-08-14T03:12:43.999Z</time><hdop>4.625</hdop><vdop>3.437</vdop><extensions><gom:speed>0.46</gom:speed><gom:course>120.823</gom:course><gom:rel_alt>8.31</gom:rel_alt></extensions></trkpt>
   <trkpt lat="59.3521495231" lon="34.6712037303"><ele>163.929</ele><time>2026-08-14T03:12:53.999Z</time><hdop>4.625</hdop><vdop>3.437</vdop><extensions><gom:speed>0.679</gom:speed><gom:course>105.278</gom:course><gom:rel_alt>8.011</gom:rel_alt></extensions></trkpt>
   <trkpt lat="59.3521353158" lon="34.6713895571"><ele>164.5</ele><time>2026-08-14T03:13:02.999Z</time><hdop>4.625</hdop><vdop>3.437</vdop><extensions><gom:speed>0.503</gom:speed><gom:course>80.893</gom:course><gom:rel_alt>7.731</gom:rel_alt></extensions></trkpt>
   <trkpt lat="59.3520822584" lon="34.6715402637"><ele>164.1</ele><time>2026-08-14T03:13:12.999Z</time><hdop>4.625</hdop><vdop>3.437</vdop><extensions><gom:speed>0.0</gom:speed><gom:course>133.365</gom:course><gom:rel_alt>7.525</gom:rel_alt></extensions></trkpt>
   <trkpt lat="59.352039804" lon="34.6717072312"><ele>163.898</ele><time>2026-08-14T03:13:22.998Z</time><hdop>4.625</hdop><vdop>3.437</vdop><extensions><gom:speed>0.401</gom:speed><gom:course>98.532</gom:course><gom:rel_alt>7.327</gom:rel_alt></extensions></trkpt>
   <trkpt lat="59.3520090424" lon="34.671873612"><ele>163.319</ele><time>2026-08-14T03:13:31.998Z</time><hdop>4.625</hdop><vdop>3.437</vdop><extensions><gom:speed>0.0</gom:speed><gom:course>107.777</gom:course><gom:rel_alt>6.724</gom:rel_alt></extensions></trkpt>
   <trkpt lat="59.3519787838" lon="34.6720603608"><ele>162.493</ele><time>2026-08-14T03:13:44.998Z</time><hdop>4.625</hdop><vdop>3.437</vdop><extensions><gom:speed>0.711</gom:speed><gom:course>76.29</gom:course><gom:rel_alt>6.383</gom:rel_alt></extensions></trkpt>
   <trkpt lat="59.3519940807" lon="34.6722611074"><ele>167.894</ele><time>2026-08-14T03:16:35.996Z</time><hdop>4.625</hdop><vdop>3.437</vdop><extensions><gom:speed>0.0</gom:speed><gom:course>89.578</gom:course><gom:rel_alt>6.967</gom:rel_alt></extensions></trkpt>
   <trkpt lat="59.3520119342" lon="34.6724440005"><ele>163.151</ele><time>2026-08-14T03:16:56.000Z</time><hdop>4.625</hdop><vdop>3.437</vdop><extensions><gom:speed>0.0</gom:speed></extensions></trkpt>
   <trkpt lat="59.3519810469" lon="34.6726200204"><ele>162.595</ele><time>2026-08-14T03:17:12.999Z</time><hdop>4.625</hdop><vdop>3.437</vdop><extensions><gom:speed>0.428</gom:speed><gom:course>92.572</gom:course><gom:rel_alt>7.152</gom:rel_alt></extensions></trkpt>
   <trkpt lat="59.3519711143" lon="34.6727986388"><ele>162.358</ele><time>2026-08-14T03:17:24.999Z</time><hdop>4.625</hdop><vdop>3.437</vdop><extensions><gom:speed>0.0</gom:speed><gom:course>125.042</gom:course><gom:rel_alt>6.996</gom:rel_alt></extensions></trkpt>
   <trkpt lat="59.3519778618" lon="34.6729774248"><ele>162.76</ele><time>2026-08-14T03:17:38.998Z</time><hdop>4.625</hdop><vdop>3.437</vdop><extensions><gom:speed>0.521</gom:speed><gom:course>78.525</gom:course><gom:rel_alt>6.663</gom:rel_alt></extensions></trkpt>
   <trkpt lat="59.3519478545" lon="34.6731456496"><ele>163.099</ele><time>2026-08-14T03:17:53.998Z</time><hdop>4.625</hdop><vdop>3.437</vdop><extensions><gom:speed>0.542</gom:speed><gom:rel_alt>5.976</gom:rel_alt></extensions></trkpt>
   <trkpt lat="59.3519359941" lon="34.6733370923"><ele>159.515</ele><time>2026-08-14T03:18:09.997Z</time><hdop>4.625</hdop><vdop>3.437</vdop><extensions><gom:speed>0.838</gom:speed><gom:rel_alt>5.202</gom:rel_alt></extensions></trkpt>
   <trkpt lat="59.3519421968" lon="34.6735247631"><ele>162.991</ele><time>2026-08-14T03:18:18.997Z</time><hdop>4.625</hdop><vdop>3.437</vdop><extensions><gom:speed>0.0</gom:speed><gom:course>47.263</gom:course><gom:rel_alt>4.684</gom:rel_alt></extensions></trkpt>
   <trkpt lat="59.3519662947" lon="34.6737124339"><ele>162.246</ele><time>2026-08-14T03:18:27.997Z</time><hdop>4.625</hdop><vdop>3.437</vdop><extensions><gom:speed>0.472</gom:speed><gom:course>42.028</gom:course><gom:rel_alt>4.61</gom:rel_alt></extensions></trkpt>
   <trkpt lat="59.3519946675" lon="34.673895327"><ele>162.803</ele><time>2026-08-14T03:18:35.996Z</time><hdop>4.625</hdop><vdop>3.437</vdop><extensions><gom:speed>0.716</gom:speed><gom:course>68.605</gom:course><gom:rel_alt>4.737</gom:rel_alt></extensions></trkpt>
   <trkpt lat="59.3520445398" lon="34.6740457822"><ele>163.375</ele><time>2026-08-14T03:18:46.000Z</time><hdop>4.687</hdop><vdop>3.375</vdop><extensions><gom:speed>0.474</gom:speed><gom:course>17.474</gom:course><gom:rel_alt>5.155</gom:rel_alt></extensions></trkpt>
   <trkpt lat="59.3520942864" lon="34.6742106542"><ele>164.97</ele><time>2026-08-14T03:18:58.000Z</time><hdop>4.687</hdop><vdop>3.437</vdop><extensions><gom:speed>0.425</gom:speed><gom:course>54.745</gom:course><gom:rel_alt>5.575</gom:rel_alt></extensions></trkpt>
   <trkpt lat="59.3521289456" lon="34.674378879"><ele>165.699</ele><time>2026-08-14T03:19:08.999Z</time><hdop>4.625</hdop><vdop>3.437</vdop><extensions><gom:speed>0.398</gom:speed><gom:course>65.929</gom:course><gom:rel_alt>5.057</gom:rel_alt></extensions></trkpt>
   <trkpt lat="59.3521064821" lon="34.6745626103"><ele>160.964</ele><time>2026-08-14T03:19:22.999Z</time><hdop>4.625</hdop><vdop>3.437</vdop><extensions><gom:speed>0.0</gom:speed><gom:course>68.176</gom:course><gom:rel_alt>4.251</gom:rel_alt></extensions></trkpt>
   <trkpt lat="59.3520756786" lon="34.6747458387"><ele>159.299</ele><time>2026-08-14T03:19:35.999Z</time><hdop>4.625</hdop><vdop>3.437</vdop><extensions><gom:speed>0.0</gom:speed></extensions></trkpt>
   <trkpt lat="59.352089383" lon="34.6749369461"><ele>160.588</ele><time>2026-08-14T03:19:44.998Z</time><hdop>4.625</hdop><vdop>3.437</vdop><extensions><gom:speed>0.496</gom:speed><gom:course>60.414</gom:course><gom:rel_alt>3.926</gom:rel_alt></extensions></trkpt>
   <trkpt lat="59.3521202703" lon="34.675112547"><ele>161.752</ele><time>2026-08-14T03:19:52.998Z</time><hdop>4.625</hdop><vdop>3.437</vdop><extensions><gom:speed>0.639</gom:speed><gom:course>60.178</gom:course><gom:rel_alt>4.095</gom:rel_alt></extensions></trkpt>
   <trkpt lat="59.3521332203" lon="34.6752935961"><ele>161.82</ele><time>2026-08-14T03:20:02.998Z</time><hdop>4.625</hdop><vdop>3.437</vdop><extensions><gom:speed>0.658</gom:speed><gom:course>75.213</gom:course><gom:rel_alt>4.103</gom:rel_alt></extensions></trkpt>
   <trkpt lat="59.3521462961" lon="34.6754696999"><ele>166.504</ele><time>2026-08-14T03:20:13.997Z</time><hdop>4.625</hdop><vdop>3.437</vdop><extensions><gom:speed>0.493</gom:speed><gom:course>48.933</gom:course><gom:rel_alt>4.114</gom:rel_alt></extensions></trkpt>
   <trkpt lat="59.3521447874" lon="34.6756644953"><ele>163.688</ele><time>2026-08-14T03:20:23.997Z</time><hdop>4.625</hdop><vdop>3.437</vdop><extensions><gom:speed>0.381</gom:speed><gom:course>69.929</gom:course></extensions></trkpt>
   <trkpt lat="59.3521358606" lon="34.6758494001"><ele>164.385</ele><time>2026-08-14T03:20:34.997Z</time><hdop>4.625</hdop><vdop>3.437</vdop><extensions><gom:speed>0.0</gom:speed><gom:rel_alt>4.058</gom:rel_alt></extensions></trkpt>
   <trkpt lat="59.352094915" lon="34.6760288566"><ele>164.917</ele><time>2026-08-14T03:20:50.000Z</time><hdop>4.625</hdop><vdop>3.437</vdop><extensions><gom:speed>0.0</gom:speed><gom:rel_alt>4.37</gom:rel_alt></extensions></trkpt>
   <trkpt lat="59.3520194779" lon="34.6761373185"><ele>167.173</ele><time>2026-08-14T03:20:59.000Z</time><hdop>4.562</hdop><vdop>3.562</vdop><extensions><gom:speed>0.73</gom:speed><gom:course>134.117</gom:course><gom:rel_alt>3.929</gom:rel_alt></extensions></trkpt>
   <trkpt lat="59.3519987327" lon="34.6763244026"><ele>164.755</ele><time>2026-08-14T03:21:09.000Z</time><hdop>4.562</hdop><vdop>3.5</vdop><extensions><gom:speed>0.451</gom:speed><gom:course>107.513</gom:course><gom:rel_alt>3.876</gom:rel_alt></extensions></trkpt>
   <trkpt lat="59.3519848187" lon="34.6765172701"><ele>164.651</ele><time>2026-08-14T03:21:19.999Z</time><hdop>4.625</hdop><vdop>3.5</vdop><extensions><gom:speed>1.046</gom:speed><gom:course>118.901</gom:course><gom:rel_alt>3.847</gom:rel_alt></extensions></trkpt>
   <trkpt lat="59.3519762273" lon="34.6766984031"><ele>163.821</ele><time>2026-08-14T03:21:31.999Z</time><hdop>4.625</hdop><vdop>3.5</vdop><extensions><gom:speed>0.446</gom:speed><gom:course>85.458</gom:course><gom:rel_alt>3.752</gom:rel_alt></extensions></trkpt>
   <trkpt lat="59.3520042228" lon="34.676874926"><ele>168.54</ele><time>2026-08-14T03:22:01.998Z</time><hdop>4.687</hdop><vdop>3.375</vdop><extensions><gom:speed>0.0</gom:speed><gom:course>96.455</gom:course><gom:rel_alt>3.643</gom:rel_alt></extensions></trkpt>
   <trkpt lat="59.3519667138" lon="34.677039798"><ele>166.515</ele><time>2026-08-14T03:22:14.998Z</time><hdop>4.625</hdop><vdop>3.437</vdop><extensions><gom:speed>0.416</gom:speed><gom:course>96.263</gom:course><gom:rel_alt>3.717</gom:rel_alt></extensions></trkpt>
   <trkpt lat="59.3519700247" lon="34.6772161532"><ele>166.217</ele><time>2026-08-14T03:22:26.997Z</time><hdop>4.625</hdop><vdop>3.437</vdop><extensions><gom:speed>0.671</gom:speed><gom:rel_alt>3.606</gom:rel_alt></extensions></trkpt>
   <trkpt lat="59.3519551049" lon="34.6774105296"><ele>166.077</ele><time>2026-08-14T03:22:38.997Z</time><hdop>4.625</hdop><vdop>3.437</vdop><extensions><gom:speed>0.541</gom:speed><gom:course>97.016</gom:course><gom:rel_alt>3.778</gom:rel_alt></extensions></trkpt>
   <trkpt lat="59.3519169253" lon="34.677584035"><ele>163.613</ele><time>2026-08-14T03:22:47.997Z</time><hdop>4.625</hdop><vdop>3.437</vdop><extensions><gom:speed>0.675</gom:speed><gom:course>122.955</gom:course><gom:rel_alt>3.614</gom:rel_alt></extensions></trkpt>
   <trkpt lat="59.3518890555" lon="34.6777591329"><ele>161.427</ele><time>2026-08-14T03:22:58.999Z</time><hdop>4.625</hdop><vdop>3.437</vdop><extensions><gom:speed>0.584</gom:speed><gom:course>112.952</gom:course><gom:rel_alt>3.577</gom:rel_alt></extensions></trkpt>
   <trkpt lat="59.3518654604" lon="34.6779361587"><ele>162.424</ele><time>2026-08-14T03:23:08.999Z</time><hdop>4.625</hdop><vdop>3.5</vdop><extensions><gom:speed>0.482</gom:speed><gom:course>100.504</gom:course><gom:rel_alt>3.49</gom:rel_alt></extensions></trkpt>
   <trkpt lat="59.3518642031" lon="34.678125925"><ele>165.902</ele><time>2026-08-14T03:23:19.999Z</time><hdop>4.562</hdop><vdop>3.562</vdop><extensions><gom:speed>0.634</gom:speed><gom:course>88.38</gom:course></extensions></trkpt>
   <trkpt lat="59.3518594255" lon="34.678306555"><ele>165.043</ele><time>2026-08-14T03:23:27.998Z</time><hdop>4.625</hdop><vdop>3.5</vdop><extensions><gom:speed>0.0</gom:speed><gom:course>84.612</gom:course><gom:rel_alt>3.508</gom:rel_alt></extensions></trkpt>
   <trkpt lat="59.3518530971" lon="34.6784969919"><ele>162.255</ele><time>2026-08-14T03:23:38.998Z</time><hdop>4.625</hdop><vdop>3.5</vdop><extensions><gom:speed>0.431</gom:speed><gom:course>88.996</gom:course><gom:rel_alt>3.501</gom:rel_alt></extensions></trkpt>
   <trkpt lat="59.3518624849" lon="34.6786842436"><ele>158.888</ele><time>2026-08-14T03:23:52.998Z</time><hdop>4.625</hdop><vdop>3.437</vdop><extensions><gom:speed>0.468</gom:speed><gom:course>72.752</gom:course><gom:rel_alt>3.532</gom:rel_alt></extensions></trkpt>
   <trkpt lat="59.3518292925" lon="34.678864706"><ele>159.288</ele><time>2026-08-14T03:24:02.997Z</time><hdop>4.625</hdop><vdop>3.5</vdop><extensions><gom:speed>0.854</gom:speed><gom:rel_alt>3.487</gom:rel_alt></extensions></trkpt>
   <trkpt lat="59.3518304241" lon="34.6790645305"><ele>161.226</ele><time>2026-08-14T03:24:12.997Z</time><hdop>4.625</hdop><vdop>3.437</vdop><extensions><gom:speed>0.501</gom:speed><gom:course>72.911</gom:course><gom:rel_alt>3.474</gom:rel_alt></extensions></trkpt>
   <trkpt lat="59.3518095531" lon="34.6792433165"><ele>156.348</ele><time>2026-08-14T03:24:23.997Z</time><hdop>4.625</hdop><vdop>3.437</vdop><extensions><gom:speed>1.42</gom:speed></extensions></trkpt>
   <trkpt lat="59.3518068709" lon="34.6794313226"><ele>160.912</ele><time>2026-08-14T03:24:35.996Z</time><hdop>4.625</hdop><vdop>3.437</vdop><extensions><gom:speed>0.509</gom:speed><gom:course>71.434</gom:course><gom:rel_alt>3.395</gom:rel_alt></extensions></trkpt>
   <trkpt lat="59.3518283705" lon="34.6796133775"><ele>163.363</ele><time>2026-08-14T03:24:45.996Z</time><hdop>4.687</hdop><vdop>3.437</vdop><extensions><gom:speed>0.266</gom:speed><gom:course>16.353</gom:course><gom:rel_alt>3.54</gom:rel_alt></extensions></trkpt>
   <trkpt lat="59.3518630716" lon="34.6797787525"><ele>162.465</ele><time>2026-08-14T03:25:01.999Z</time><hdop>4.687</hdop><vdop>3.375</vdop><extensions><gom:speed>0.442</gom:speed><gom:course>21.753</gom:course><gom:rel_alt>3.294</gom:rel_alt></extensions></trkpt>
   <trkpt lat="59.3518523847" lon="34.6799681835"><ele>160.521</ele><time>2026-08-14T03:25:15.999Z</time><hdop>4.625</hdop><vdop>3.437</vdop><extensions><gom:speed>0.0</gom:speed><gom:rel_alt>3.752</gom:rel_alt></extensions></trkpt>
   <trkpt lat="59.3518243472" lon="34.6801420242"><ele>160.314</ele><time>2026-08-14T03:25:27.999Z</time><hdop>4.625</hdop><vdop>3.437</vdop><extensions><gom:speed>0.388</gom:speed><gom:course>116.973</gom:course><gom:rel_alt>3.265</gom:rel_alt></extensions></trkpt>
   <trkpt lat="59.3517883469" lon="34.6803166192"><ele>160.593</ele><time>2026-08-14T03:25:39.998Z</time><hdop>4.625</hdop><vdop>3.437</vdop><extensions><gom:speed>0.0</gom:speed><gom:rel_alt>3.289</gom:rel_alt></extensions></trkpt>
   <trkpt lat="59.3517250216" lon="34.6804907952"><ele>162.77</ele><time>2026-08-14T03:25:49.998Z</time><hdop>4.625</hdop><vdop>3.5</vdop><extensions><gom:speed>0.706</gom:speed><gom:course>113.721</gom:course><gom:rel_alt>3.368</gom:rel_alt></extensions></trkpt>
   <trkpt lat="59.3517080483" lon="34.6806834951"><ele>160.385</ele><time>2026-08-14T03:26:01.998Z</time><hdop>4.625</hdop><vdop>3.437</vdop><extensions><gom:speed>0.0</gom:speed><gom:rel_alt>3.318</gom:rel_alt></extensions></trkpt>
   <trkpt lat="59.3516515124" lon="34.6808445115"><ele>165.13</ele><time>2026-08-14T03:26:12.997Z</time><hdop>4.625</hdop><vdop>3.437</vdop><extensions><gom:speed>0.373</gom:speed><gom:course>94.615</gom:course><gom:rel_alt>3.461</gom:rel_alt></extensions></trkpt>
   <trkpt lat="59.3516095609" lon="34.6810190227"><ele>166.405</ele><time>2026-08-14T03:26:22.997Z</time><hdop>4.625</hdop><vdop>3.437</vdop><extensions><gom:speed>0.975</gom:speed><gom:rel_alt>3.638</gom:rel_alt></extensions></trkpt>
   <trkpt lat="59.3515600239" lon="34.6811760996"><ele>161.52</ele><time>2026-08-14T03:26:33.997Z</time><hdop>4.625</hdop><vdop>3.437</vdop><extensions><gom:speed>0.891</gom:speed><gom:rel_alt>3.918</gom:rel_alt></extensions></trkpt>
   <trkpt lat="59.3515231854" lon="34.6813437376"><ele>160.826</ele><time>2026-08-14T03:26:42.996Z</time><hdop>4.625</hdop><vdop>3.437</vdop><extensions><gom:speed>0.386</gom:speed><gom:course>101.575</gom:course><gom:rel_alt>3.342</gom:rel_alt></extensions></trkpt>
   <trkpt lat="59.3515290108" lon="34.6815255411"><ele>162.012</ele><time>2026-08-14T03:26:51.996Z</time><hdop>4.625</hdop><vdop>3.437</vdop><extensions><gom:speed>0.449</gom:speed><gom:course>44.654</gom:course><gom:rel_alt>3.656</gom:rel_alt></extensions></trkpt>
   <trkpt lat="59.3515088524" lon="34.681711787"><ele>159.698</ele><time>2026-08-14T03:27:03.996Z</time><hdop>4.625</hdop><vdop>3.437</vdop><extensions><gom:speed>0.368</gom:speed><gom:course>76.905</gom:course><gom:rel_alt>3.54</gom:rel_alt></extensions></trkpt>
   <trkpt lat="59.3514648474" lon="34.6818792574"><ele>155.146</ele><time>2026-08-14T03:27:14.999Z</time><hdop>4.625</hdop><vdop>3.5</vdop><extensions><gom:speed>0.352</gom:speed><gom:course>113.012</gom:course><gom:rel_alt>3.25</gom:rel_alt></extensions></trkpt>
   <trkpt lat="59.3514408332" lon="34.6820572052"><ele>154.406</ele><time>2026-08-14T03:27:25.999Z</time><hdop>4.625</hdop><vdop>3.437</vdop><extensions><gom:speed>0.672</gom:speed><gom:rel_alt>4.069</gom:rel_alt></extensions></trkpt>
   <trkpt lat="59.3514146817" lon="34.6822260168"><ele>158.399</ele><time>2026-08-14T03:27:34.999Z</time><hdop>4.625</hdop><vdop>3.437</vdop><extensions><gom:speed>0.571</gom:speed><gom:course>101.268</gom:course><gom:rel_alt>4.301</gom:rel_alt></extensions></trkpt>
   <trkpt lat="59.3513866861" lon="34.6824006956"><ele>158.607</ele><time>2026-08-14T03:27:43.998Z</time><hdop>4.625</hdop><vdop>3.437</vdop><extensions><gom:speed>0.488</gom:speed><gom:course>89.77</gom:course><gom:rel_alt>4.523</gom:rel_alt></extensions></trkpt>
   <trkpt lat="59.3514104069" lon="34.6825944014"><ele>162.558</ele><time>2026-08-14T03:28:00.998Z</time><hdop>4.687</hdop><vdop>3.375</vdop><extensions><gom:speed>0.0</gom:speed><gom:course>47.093</gom:course><gom:rel_alt>4.943</gom:rel_alt></extensions></trkpt>
   <trkpt lat="59.3514511849" lon="34.6827594411"><ele>165.436</ele><time>2026-08-14T03:30:01.998Z</time><hdop>4.687</hdop><vdop>3.375</vdop><extensions><gom:speed>0.36</gom:speed><gom:course>55.58</gom:course><gom:rel_alt>5.659</gom:rel_alt></extensions></trkpt>
   <trkpt lat="59.3514157294" lon="34.6829332818"><ele>165.134</ele><time>2026-08-14T03:30:17.998Z</time><hdop>4.625</hdop><vdop>3.437</vdop><extensions><gom:speed>0.527</gom:speed><gom:course>133.403</gom:course><gom:rel_alt>5.768</gom:rel_alt></extensions></trkpt>
   <trkpt lat="59.3514225607" lon="34.6831160072"><ele>163.444</ele><time>2026-08-14T03:30:29.997Z</time><hdop>4.687</hdop><vdop>3.375</vdop><extensions><gom:speed>0.44</gom:speed><gom:course>67.775</gom:course><gom:rel_alt>5.395</gom:rel_alt></extensions></trkpt>
   <trkpt lat="59.3514397855" lon="34.6833108027"><ele>162.709</ele><time>2026-08-14T03:30:42.997Z</time><hdop>4.687</hdop><vdop>3.375</vdop><extensions><gom:speed>0.502</gom:speed><gom:course>72.582</gom:course><gom:rel_alt>4.875</gom:rel_alt></extensions></trkpt>
   <trkpt lat="59.3514268354" lon="34.6834947016"><ele>161.816</ele><time>2026-08-14T03:31:00.996Z</time><hdop>4.625</hdop><vdop>3.437</vdop><extensions><gom:speed>0.299</gom:speed><gom:course>85.101</gom:course><gom:rel_alt>5.231</gom:rel_alt></extensions></trkpt>
   <trkpt lat="59.3513797291" lon="34.6836594898"><ele>161.572</ele><time>2026-08-14T03:31:11.996Z</time><hdop>4.625</hdop><vdop>3.437</vdop><extensions><gom:speed>0.0</gom:speed><gom:course>141.945</gom:course><gom:rel_alt>5.334</gom:rel_alt></extensions></trkpt>
   <trkpt lat="59.3513021127" lon="34.683764096"><ele>155.654</ele><time>2026-08-14T03:31:28.999Z</time><hdop>4.625</hdop><vdop>3.437</vdop><extensions><gom:speed>0.956</gom:speed><gom:rel_alt>5.406</gom:rel_alt></extensions></trkpt>
   <trkpt lat="59.3512599517" lon="34.6839295548"><ele>157.572</ele><time>2026-08-14T03:31:37.999Z</time><hdop>4.625</hdop><vdop>3.437</vdop><extensions><gom:speed>0.449</gom:speed><gom:course>92.819</gom:course><gom:rel_alt>5.625</gom:rel_alt></extensions></trkpt>
   <trkpt lat="59.3512427688" lon="34.6841102686"><ele>161.689</ele><time>2026-08-14T03:31:47.999Z</time><hdop>4.625</hdop><vdop>3.437</vdop><extensions><gom:speed>0.624</gom:speed><gom:course>44.879</gom:course><gom:rel_alt>5.614</gom:rel_alt></extensions></trkpt>
   <trkpt lat="59.3512361471" lon="34.6843025495"><ele>163.074</ele><time>2026-08-14T03:31:59.999Z</time><hdop>4.625</hdop><vdop>3.437</vdop><extensions><gom:speed>0.665</gom:speed><gom:course>77.767</gom:course><gom:rel_alt>5.916</gom:rel_alt></extensions></trkpt>
   <trkpt lat="59.3512284777" lon="34.6844947465"><ele>163.488</ele><time>2026-08-14T03:32:08.998Z</time><hdop>4.625</hdop><vdop>3.437</vdop><extensions><gom:speed>0.54</gom:speed><gom:course>54.696</gom:course><gom:rel_alt>6.04</gom:rel_alt></extensions></trkpt>
   <trkpt lat="59.3512225265" lon="34.6847023662"><ele>161.023</ele><time>2026-08-14T03:32:18.998Z</time><hdop>4.625</hdop><vdop>3.5</vdop><extensions><gom:speed>0.551</gom:speed><gom:course>82.601</gom:course><gom:rel_alt>5.813</gom:rel_alt></extensions></trkpt>
   <trkpt lat="59.3512388293" lon="34.6848855108"><ele>163.047</ele><time>2026-08-14T03:32:27.998Z</time><hdop>4.625</hdop><vdop>3.437</vdop><extensions><gom:speed>0.489</gom:speed><gom:course>64.172</gom:course><gom:rel_alt>5.749</gom:rel_alt></extensions></trkpt>
   <trkpt lat="59.351308483" lon="34.685014173"><ele>162.71</ele><time>2026-08-14T03:32:37.997Z</time><hdop>4.687</hdop><vdop>3.375</vdop><extensions><gom:speed>0.416</gom:speed><gom:course>38.222</gom:course><gom:rel_alt>5.569</gom:rel_alt></extensions></trkpt>
   <trkpt lat="59.3513131768" lon="34.6852000836"><ele>161.17</ele><time>2026-08-14T03:32:47.997Z</time><hdop>4.687</hdop><vdop>3.375</vdop><extensions><gom:speed>0.433</gom:speed><gom:course>48.362</gom:course><gom:rel_alt>4.742</gom:rel_alt></extensions></trkpt>
   <trkpt lat="59.3513302759" lon="34.685376858"><ele>163.014</ele><time>2026-08-14T03:32:57.997Z</time><hdop>4.687</hdop><vdop>3.375</vdop><extensions><gom:speed>0.0</gom:speed><gom:course>59.057</gom:course><gom:rel_alt>4.029</gom:rel_alt></extensions></trkpt>
   <trkpt lat="59.3513208044" lon="34.6855579909"><ele>162.82</ele><time>2026-08-14T03:33:09.996Z</time><hdop>4.687</hdop><vdop>3.375</vdop><extensions><gom:speed>0.446</gom:speed><gom:course>132.656</gom:course><gom:rel_alt>2.816</gom:rel_alt></extensions></trkpt>
   <trkpt lat="59.3513097402" lon="34.6857363578"><ele>164.271</ele><time>2026-08-14T03:33:22.996Z</time><hdop>4.687</hdop><vdop>3.375</vdop><extensions><gom:speed>0.0</gom:speed><gom:course>43.089</gom:course><gom:rel_alt>3.342</gom:rel_alt></extensions></trkpt>
   <trkpt lat="59.3513012745" lon="34.6859158982"><ele>162.22</ele><time>2026-08-14T03:33:33.999Z</time><hdop>4.687</hdop><vdop>3.375</vdop><extensions><gom:speed>0.545</gom:speed><gom:course>83.041</gom:course><gom:rel_alt>3.767</gom:rel_alt></extensions></trkpt>
   <trkpt lat="59.351335347" lon="34.6860994619"><ele>164.238</ele><time>2026-08-14T03:33:44.999Z</time><hdop>4.687</hdop><vdop>3.375</vdop><extensions><gom:speed>0.665</gom:speed><gom:course>53.427</gom:course><gom:rel_alt>3.738</gom:rel_alt></extensions></trkpt>
   <trkpt lat="59.3513585229" lon="34.686279589"><ele>165.476</ele><time>2026-08-14T03:33:53.999Z</time><hdop>4.687</hdop><vdop>3.375</vdop><extensions><gom:speed>0.491</gom:speed><gom:course>71.835</gom:course><gom:rel_alt>3.617</gom:rel_alt></extensions></trkpt>
   <trkpt lat="59.3513403342" lon="34.686463907"><ele>161.292</ele><time>2026-08-14T03:34:02.999Z</time><hdop>4.687</hdop><vdop>3.437</vdop><extensions><gom:speed>0.474</gom:speed><gom:course>99.361</gom:course><gom:rel_alt>3.408</gom:rel_alt></extensions></trkpt>
   <trkpt lat="59.3512963711" lon="34.6866177149"><ele>161.713</ele><time>2026-08-14T03:34:12.998Z</time><hdop>4.687</hdop><vdop>3.437</vdop><extensions><gom:speed>0.0</gom:speed><gom:course>61.919</gom:course><gom:rel_alt>3.199</gom:rel_alt></extensions></trkpt>
   <trkpt lat="59.3512195091" lon="34.6867248357"><ele>160.287</ele><time>2026-08-14T03:34:23.998Z</time><hdop>4.625</hdop><vdop>3.437</vdop><extensions><gom:speed>0.393</gom:speed><gom:course>126.668</gom:course><gom:rel_alt>3.043</gom:rel_alt></extensions></trkpt>
   <trkpt lat="59.3511484724" lon="34.6868607063"><ele>160.14</ele><time>2026-08-14T03:34:37.998Z</time><hdop>4.687</hdop><vdop>3.437</vdop><extensions><gom:speed>0.0</gom:speed><gom:course>319.415</gom:course><gom:rel_alt>2.856</gom:rel_alt></extensions></trkpt>
   <trkpt lat="59.3511136456" lon="34.6870351337"><ele>162.916</ele><time>2026-08-14T03:34:48.997Z</time><hdop>4.687</hdop><vdop>3.375</vdop><extensions><gom:speed>0.0</gom:speed><gom:rel_alt>2.803</gom:rel_alt></extensions></trkpt>
   <trkpt lat="59.3510855243" lon="34.6872195356"><ele>162.925</ele><time>2026-08-14T03:34:58.997Z</time><hdop>4.625</hdop><vdop>3.437</vdop><extensions><gom:speed>0.422</gom:speed><gom:course>84.508</gom:course><gom:rel_alt>2.671</gom:rel_alt></extensions></trkpt>
   <trkpt lat="59.3510678804" lon="34.6874007523"><ele>159.09</ele><time>2026-08-14T03:35:10.997Z</time><hdop>4.687</hdop><vdop>3.375</vdop><extensions><gom:speed>0.37</gom:speed><gom:course>74.84</gom:course><gom:rel_alt>2.66</gom:rel_alt></extensions></trkpt>
   <trkpt lat="59.3510237497" lon="34.6875635289"><ele>162.503</ele><time>2026-08-14T03:37:47.000Z</time><hdop>4.625</hdop><vdop>3.437</vdop><extensions><gom:speed>0.534</gom:speed><gom:course>140.693</gom:course><gom:rel_alt>3.247</gom:rel_alt></extensions></trkpt>
   <trkpt lat="59.350979158" lon="34.6877176721"><ele>160.635</ele><time>2026-08-14T03:38:02.999Z</time><hdop>4.625</hdop><vdop>3.437</vdop><extensions><gom:speed>0.0</gom:speed><gom:course>59.662</gom:course><gom:rel_alt>2.927</gom:rel_alt></extensions></trkpt>
   <trkpt lat="59.3509496537" lon="34.6878954522"><ele>159.894</ele><time>2026-08-14T03:38:21.999Z</time><hdop>4.625</hdop><vdop>3.437</vdop><extensions><gom:speed>0.0</gom:speed><gom:rel_alt>3.405</gom:rel_alt></extensions></trkpt>
   <trkpt lat="59.3509359912" lon="34.6880829554"><ele>160.215</ele><time>2026-08-14T03:38:32.998Z</time><hdop>4.625</hdop><vdop>3.437</vdop><extensions><gom:speed>0.537</gom:speed><gom:course>119.406</gom:course><gom:rel_alt>3.519</gom:rel_alt></extensions></trkpt>
   <trkpt lat="59.3508803773" lon="34.6882370148"><ele>166.267</ele><time>2026-08-14T03:38:43.998Z</time><hdop>4.625</hdop><vdop>3.5</vdop><extensions><gom:speed>0.679</gom:speed><gom:rel_alt>4.024</gom:rel_alt></extensions></trkpt>
   <trkpt lat="59.3508840653" lon="34.6884168066"><ele>164.603</ele><time>2026-08-14T03:38:56.998Z</time><hdop>4.625</hdop><vdop>3.437</vdop><extensions><gom:speed>0.0</gom:speed><gom:rel_alt>4.322</gom:rel_alt></extensions></trkpt>
   <trkpt lat="59.3508798743" lon="34.6886048127"><ele>162.389</ele><time>2026-08-14T03:39:08.997Z</time><hdop>4.625</hdop><vdop>3.437</vdop><extensions><gom:speed>0.0</gom:speed><gom:rel_alt>4.851</gom:rel_alt></extensions></trkpt>
   <trkpt lat="59.3509247594" lon="34.6887649071"><ele>161.69</ele><time>2026-08-14T03:39:18.997Z</time><hdop>4.625</hdop><vdop>3.437</vdop><extensions><gom:speed>0.374</gom:speed><gom:course>56.624</gom:course></extensions></trkpt>
   <trkpt lat="59.35094211" lon="34.6889519073"><ele>161.808</ele><time>2026-08-14T03:39:29.996Z</time><hdop>4.687</hdop><vdop>3.437</vdop><extensions><gom:speed>0.692</gom:speed><gom:rel_alt>5.673</gom:rel_alt></extensions></trkpt>
   <trkpt lat="59.3509559401" lon="34.6891428471"><ele>165.597</ele><time>2026-08-14T03:39:39.996Z</time><hdop>4.687</hdop><vdop>3.375</vdop><extensions><gom:speed>0.546</gom:speed><gom:course>74.439</gom:course><gom:rel_alt>6.138</gom:rel_alt></extensions></trkpt>
   <trkpt lat="59.3509795771" lon="34.6893207949"><ele>165.848</ele><time>2026-08-14T03:39:54.000Z</time><hdop>4.687</hdop><vdop>3.375</vdop><extensions><gom:speed>0.0</gom:speed><gom:rel_alt>6.547</gom:rel_alt></extensions></trkpt>
   <trkpt lat="59.3509491927" lon="34.6894923724"><ele>161.16</ele><time>2026-08-14T03:40:06.999Z</time><hdop>4.625</hdop><vdop>3.437</vdop><extensions><gom:speed>0.849</gom:speed></extensions></trkpt>
   <trkpt lat="59.3509228316" lon="34.6896663808"><ele>163.58</ele><time>2026-08-14T03:40:18.999Z</time><hdop>4.625</hdop><vdop>3.437</vdop><extensions><gom:speed>0.0</gom:speed><gom:course>82.184</gom:course><gom:rel_alt>6.135</gom:rel_alt></extensions></trkpt>
   <trkpt lat="59.3508937883" lon="34.6898503635"><ele>160.008</ele><time>2026-08-14T03:40:27.999Z</time><hdop>4.625</hdop><vdop>3.437</vdop><extensions><gom:speed>0.682</gom:speed><gom:course>80.899</gom:course><gom:rel_alt>5.802</gom:rel_alt></extensions></trkpt>
   <trkpt lat="59.3508766054" lon="34.6900256291"><ele>163.555</ele><time>2026-08-14T03:40:38.998Z</time><hdop>4.625</hdop><vdop>3.5</vdop><extensions><gom:speed>0.513</gom:speed><gom:course>74.037</gom:course></extensions></trkpt>
   <trkpt lat="59.3508876695" lon="34.6902010624"><ele>160.585</ele><time>2026-08-14T03:40:48.998Z</time><hdop>4.625</hdop><vdop>3.437</vdop><extensions><gom:speed>1.261</gom:speed><gom:rel_alt>5.762</gom:rel_alt></extensions></trkpt>
   <trkpt lat="59.3508706123" lon="34.690383704"><ele>164.707</ele><time>2026-08-14T03:40:56.998Z</time><hdop>4.687</hdop><vdop>3.375</vdop><extensions><gom:speed>0.0</gom:speed><gom:course>76.927</gom:course><gom:rel_alt>6.05</gom:rel_alt></extensions></trkpt>
   <trkpt lat="59.3508761863" lon="34.6905707881"><ele>165.56</ele><time>2026-08-14T03:41:08.997Z</time><hdop>4.687</hdop><vdop>3.375</vdop><extensions><gom:speed>0.657</gom:speed><gom:course>64.276</gom:course><gom:rel_alt>5.939</gom:rel_alt></extensions></trkpt>
   <trkpt lat="59.3508539743" lon="34.6907567825"><ele>161.676</ele><time>2026-08-14T03:41:22.997Z</time><hdop>4.687</hdop><vdop>3.375</vdop><extensions><gom:speed>0.398</gom:speed><gom:course>92.292</gom:course><gom:rel_alt>5.712</gom:rel_alt></extensions></trkpt>
   <trkpt lat="59.3508216201" lon="34.6909391727"><ele>162.031</ele><time>2026-08-14T03:41:35.997Z</time><hdop>4.625</hdop><vdop>3.437</vdop><extensions><gom:speed>0.536</gom:speed><gom:course>118.692</gom:course><gom:rel_alt>5.348</gom:rel_alt></extensions></trkpt>
   <trkpt lat="59.350833732" lon="34.6911259216"><ele>164.462</ele><time>2026-08-14T03:41:45.996Z</time><hdop>4.625</hdop><vdop>3.437</vdop><extensions><gom:speed>0.454</gom:speed><gom:course>78.674</gom:course><gom:rel_alt>5.493</gom:rel_alt></extensions></trkpt>
   <trkpt lat="59.3507974802" lon="34.6912928891"><ele>163.595</ele><time>2026-08-14T03:41:57.000Z</time><hdop>4.625</hdop><vdop>3.437</vdop><extensions><gom:speed>0.507</gom:speed><gom:course>110.326</gom:course><gom:rel_alt>5.305</gom:rel_alt></extensions></trkpt>
   <trkpt lat="59.3507680598" lon="34.6914779615"><ele>165.663</ele><time>2026-08-14T03:42:08.000Z</time><hdop>4.625</hdop><vdop>3.5</vdop><extensions><gom:speed>0.0</gom:speed><gom:rel_alt>5.057</gom:rel_alt></extensions></trkpt>
   <trkpt lat="59.3507371724" lon="34.6916614413"><ele>163.803</ele><time>2026-08-14T03:42:20.999Z</time><hdop>4.625</hdop><vdop>3.437</vdop><extensions><gom:speed>0.0</gom:speed><gom:course>110.727</gom:course><gom:rel_alt>4.89</gom:rel_alt></extensions></trkpt>
   <trkpt lat="59.3507148347" lon="34.6918464299"><ele>163.844</ele><time>2026-08-14T03:42:30.999Z</time><hdop>4.625</hdop><vdop>3.437</vdop><extensions><gom:speed>0.645</gom:speed><gom:course>125.894</gom:course></extensions></trkpt>
   <trkpt lat="59.3506891441" lon="34.6920180075"><ele>157.264</ele><time>2026-08-14T03:43:22.997Z</time><hdop>4.625</hdop><vdop>3.437</vdop><extensions><gom:speed>1.106</gom:speed><gom:rel_alt>4.468</gom:rel_alt></extensions></trkpt>
   <trkpt lat="59.350612785" lon="34.6921306603"><ele>158.191</ele><time>2026-08-14T03:43:39.997Z</time><hdop>4.625</hdop><vdop>3.437</vdop><extensions><gom:speed>0.0</gom:speed><gom:rel_alt>4.46</gom:rel_alt></extensions></trkpt>
  </trkseg>
 </trk>
</gpx>